<?xml version='1.0' encoding='UTF-8'?><gpx version="1.1" creator="JPX - https://github.com/jenetics/jpx" xmlns="http://www.topografix.com/GPX/1/1"><trk><trkseg><trkpt lat="40.00567518581313" lon="9.43417225744995"><ele>943.0</ele><time>2026-04-11T11:34:16Z</time></trkpt><trkpt lat="40.00570081809244" lon="9.434299536649597"><ele>943.0</ele><time>2026-04-11T11:34:18Z</time></trkpt><trkpt lat="40.00575402566692" lon="9.434484410484593"><ele>943.0</ele><time>2026-04-11T11:34:20Z</time></trkpt><trkpt lat="40.0057732117095" lon="9.43458256584126"><ele>943.0</ele><time>2026-04-11T11:34:21Z</time></trkpt><trkpt lat="40.005803925342214" lon="9.434692421687707"><ele>943.0</ele><time>2026-04-11T11:34:22Z</time></trkpt><trkpt lat="40.0058476551217" lon="9.434814271411994"><ele>943.4</ele><time>2026-04-11T11:34:23Z</time></trkpt><trkpt lat="40.00588718599024" lon="9.434946173743555"><ele>943.8</ele><time>2026-04-11T11:34:24Z</time></trkpt><trkpt lat="40.00592862597499" lon="9.43508369926481"><ele>944.2</ele><time>2026-04-11T11:34:25Z</time></trkpt><trkpt lat="40.00596917788689" lon="9.435221909010863"><ele>944.6</ele><time>2026-04-11T11:34:26Z</time></trkpt><trkpt lat="40.00600653861897" lon="9.435361079223131"><ele>945.0</ele><time>2026-04-11T11:34:27Z</time></trkpt><trkpt lat="40.00604225073995" lon="9.435488593221612"><ele>945.0</ele><time>2026-04-11T11:34:28Z</time></trkpt><trkpt lat="40.00608979346435" lon="9.435615273749187"><ele>945.0</ele><time>2026-04-11T11:34:29Z</time></trkpt><trkpt lat="40.006148357023505" lon="9.43574700477313"><ele>945.0</ele><time>2026-04-11T11:34:30Z</time></trkpt><trkpt lat="40.00621712966281" lon="9.435870650583857"><ele>945.0</ele><time>2026-04-11T11:34:31Z</time></trkpt><trkpt lat="40.006306289934024" lon="9.435990704974841"><ele>945.0</ele><time>2026-04-11T11:34:32Z</time></trkpt><trkpt lat="40.00640642416077" lon="9.436105412924885"><ele>945.0</ele><time>2026-04-11T11:34:33Z</time></trkpt><trkpt lat="40.00650227628845" lon="9.436233525021152"><ele>945.0</ele><time>2026-04-11T11:34:34Z</time></trkpt><trkpt lat="40.00657833496428" lon="9.436363122904995"><ele>945.0</ele><time>2026-04-11T11:34:35Z</time></trkpt><trkpt lat="40.006655355401264" lon="9.436501982646227"><ele>946.75</ele><time>2026-04-11T11:34:36Z</time></trkpt><trkpt lat="40.00672698241847" lon="9.43664911116521"><ele>948.5</ele><time>2026-04-11T11:34:37Z</time></trkpt><trkpt lat="40.00679715746891" lon="9.436793421792625"><ele>950.25</ele><time>2026-04-11T11:34:38Z</time></trkpt><trkpt lat="40.006868579136174" lon="9.436934855608568"><ele>952.0</ele><time>2026-04-11T11:34:39Z</time></trkpt><trkpt lat="40.00697464023384" lon="9.437217707198496"><ele>952.5</ele><time>2026-04-11T11:34:41Z</time></trkpt><trkpt lat="40.00699257267171" lon="9.437367265783486"><ele>953.0</ele><time>2026-04-11T11:34:42Z</time></trkpt><trkpt lat="40.00699104609226" lon="9.43752602092744"><ele>953.5</ele><time>2026-04-11T11:34:43Z</time></trkpt><trkpt lat="40.00698662682817" lon="9.437690443646726"><ele>954.0</ele><time>2026-04-11T11:34:44Z</time></trkpt><trkpt lat="40.00698066210954" lon="9.437858218101622"><ele>955.25</ele><time>2026-04-11T11:34:45Z</time></trkpt><trkpt lat="40.00698216041875" lon="9.438027781079278"><ele>956.5</ele><time>2026-04-11T11:34:46Z</time></trkpt><trkpt lat="40.0069838805903" lon="9.43820359738179"><ele>957.75</ele><time>2026-04-11T11:34:47Z</time></trkpt><trkpt lat="40.006985975852686" lon="9.438377964341182"><ele>959.0</ele><time>2026-04-11T11:34:48Z</time></trkpt><trkpt lat="40.00698813431343" lon="9.438554241026896"><ele>959.0</ele><time>2026-04-11T11:34:49Z</time></trkpt><trkpt lat="40.00699020185277" lon="9.438724635883451"><ele>959.0</ele><time>2026-04-11T11:34:50Z</time></trkpt><trkpt lat="40.0070053125696" lon="9.438882869957647"><ele>959.0</ele><time>2026-04-11T11:34:51Z</time></trkpt><trkpt lat="40.00703960516929" lon="9.439031963197424"><ele>959.0</ele><time>2026-04-11T11:34:52Z</time></trkpt><trkpt lat="40.00710219521582" lon="9.439164840447912"><ele>960.75</ele><time>2026-04-11T11:34:53Z</time></trkpt><trkpt lat="40.00718755193392" lon="9.439281667777692"><ele>962.5</ele><time>2026-04-11T11:34:54Z</time></trkpt><trkpt lat="40.0072950113601" lon="9.439381916698236"><ele>964.25</ele><time>2026-04-11T11:34:55Z</time></trkpt><trkpt lat="40.007397708607776" lon="9.439485789720663"><ele>966.0</ele><time>2026-04-11T11:34:56Z</time></trkpt><trkpt lat="40.00750118301905" lon="9.439595883169952"><ele>968.25</ele><time>2026-04-11T11:34:57Z</time></trkpt><trkpt lat="40.00761954987165" lon="9.439721101272616"><ele>970.5</ele><time>2026-04-11T11:34:58Z</time></trkpt><trkpt lat="40.00771631492493" lon="9.439816713214153"><ele>972.75</ele><time>2026-04-11T11:34:59Z</time></trkpt><trkpt lat="40.007818596714586" lon="9.439926873484879"><ele>975.0</ele><time>2026-04-11T11:35:00Z</time></trkpt><trkpt lat="40.008027059880455" lon="9.44015098234668"><ele>975.0</ele><time>2026-04-11T11:35:02Z</time></trkpt><trkpt lat="40.00813206399285" lon="9.44025465805716"><ele>975.0</ele><time>2026-04-11T11:35:02.999Z</time></trkpt><trkpt lat="40.008240531001505" lon="9.440350334411592"><ele>975.0</ele><time>2026-04-11T11:35:03.999Z</time></trkpt><trkpt lat="40.00835140384111" lon="9.440438679592187"><ele>975.0</ele><time>2026-04-11T11:35:04.999Z</time></trkpt><trkpt lat="40.00846715364273" lon="9.44050858348576"><ele>978.25</ele><time>2026-04-11T11:35:05.999Z</time></trkpt><trkpt lat="40.00858734154441" lon="9.440552355052874"><ele>981.5</ele><time>2026-04-11T11:35:06.999Z</time></trkpt><trkpt lat="40.00871566285919" lon="9.440564317241599"><ele>984.75</ele><time>2026-04-11T11:35:07.999Z</time></trkpt><trkpt lat="40.008848154820136" lon="9.440570734791295"><ele>988.0</ele><time>2026-04-11T11:35:08.999Z</time></trkpt><trkpt lat="40.0089797289816" lon="9.44058001020102"><ele>988.0</ele><time>2026-04-11T11:35:09.999Z</time></trkpt><trkpt lat="40.0091141259188" lon="9.440591544790951"><ele>988.0</ele><time>2026-04-11T11:35:10.999Z</time></trkpt><trkpt lat="40.00925005240945" lon="9.440606795793718"><ele>988.0</ele><time>2026-04-11T11:35:11.999Z</time></trkpt><trkpt lat="40.009385612832595" lon="9.440621588813963"><ele>988.0</ele><time>2026-04-11T11:35:12.999Z</time></trkpt><trkpt lat="40.009523235986194" lon="9.440633869974361"><ele>989.25</ele><time>2026-04-11T11:35:13.999Z</time></trkpt><trkpt lat="40.0096604195948" lon="9.440640983879256"><ele>990.5</ele><time>2026-04-11T11:35:14.999Z</time></trkpt><trkpt lat="40.00979953304958" lon="9.44064782087791"><ele>991.75</ele><time>2026-04-11T11:35:15.999Z</time></trkpt><trkpt lat="40.00993600432059" lon="9.440663809211529"><ele>993.0</ele><time>2026-04-11T11:35:16.999Z</time></trkpt><trkpt lat="40.01007260366094" lon="9.440685212687086"><ele>994.75</ele><time>2026-04-11T11:35:17.999Z</time></trkpt><trkpt lat="40.010211341086716" lon="9.440703477336148"><ele>996.5</ele><time>2026-04-11T11:35:18.999Z</time></trkpt><trkpt lat="40.01035033605091" lon="9.440726890865163"><ele>998.25</ele><time>2026-04-11T11:35:19.999Z</time></trkpt><trkpt lat="40.01049006195044" lon="9.44075458056921"><ele>1000.0</ele><time>2026-04-11T11:35:20.999Z</time></trkpt><trkpt lat="40.01076577278208" lon="9.4408403758777"><ele>1000.5</ele><time>2026-04-11T11:35:22.999Z</time></trkpt><trkpt lat="40.01090488705913" lon="9.440890122315873"><ele>1001.0</ele><time>2026-04-11T11:35:23.999Z</time></trkpt><trkpt lat="40.0110429975436" lon="9.440946513335973"><ele>1001.5</ele><time>2026-04-11T11:35:24.999Z</time></trkpt><trkpt lat="40.01117535767227" lon="9.440996015841106"><ele>1002.0</ele><time>2026-04-11T11:35:25.999Z</time></trkpt><trkpt lat="40.01130478388575" lon="9.441022700026373"><ele>1002.0</ele><time>2026-04-11T11:35:26.999Z</time></trkpt><trkpt lat="40.01143019188831" lon="9.441013139710174"><ele>1002.0</ele><time>2026-04-11T11:35:27.999Z</time></trkpt><trkpt lat="40.01154647509709" lon="9.440959937202942"><ele>1002.0</ele><time>2026-04-11T11:35:28.999Z</time></trkpt><trkpt lat="40.011647532631876" lon="9.44086230877953"><ele>1002.0</ele><time>2026-04-11T11:35:29.999Z</time></trkpt><trkpt lat="40.01172862976246" lon="9.440738380854917"><ele>1001.75</ele><time>2026-04-11T11:35:30.999Z</time></trkpt><trkpt lat="40.01180399916684" lon="9.44060343655817"><ele>1001.5</ele><time>2026-04-11T11:35:31.999Z</time></trkpt><trkpt lat="40.01188816005328" lon="9.440473449971973"><ele>1001.25</ele><time>2026-04-11T11:35:32.999Z</time></trkpt><trkpt lat="40.011987320530196" lon="9.44035641997009"><ele>1001.0</ele><time>2026-04-11T11:35:33.999Z</time></trkpt><trkpt lat="40.01209914498424" lon="9.44025532778847"><ele>1001.0</ele><time>2026-04-11T11:35:34.999Z</time></trkpt><trkpt lat="40.01222551734351" lon="9.440179298003427"><ele>1001.0</ele><time>2026-04-11T11:35:35.999Z</time></trkpt><trkpt lat="40.01236374591445" lon="9.440134888843271"><ele>1001.0</ele><time>2026-04-11T11:35:36.999Z</time></trkpt><trkpt lat="40.012506718969675" lon="9.440109129418653"><ele>1001.0</ele><time>2026-04-11T11:35:37.999Z</time></trkpt><trkpt lat="40.012648631525" lon="9.440091380237499"><ele>1004.5</ele><time>2026-04-11T11:35:38.999Z</time></trkpt><trkpt lat="40.012791933654235" lon="9.440077023626582"><ele>1008.0</ele><time>2026-04-11T11:35:39.999Z</time></trkpt><trkpt lat="40.01293474477107" lon="9.440064882658696"><ele>1011.5</ele><time>2026-04-11T11:35:40.999Z</time></trkpt><trkpt lat="40.01308078207845" lon="9.44006087880144"><ele>1015.0</ele><time>2026-04-11T11:35:41.999Z</time></trkpt><trkpt lat="40.013372664105844" lon="9.440059996443006"><ele>1018.0</ele><time>2026-04-11T11:35:43.999Z</time></trkpt><trkpt lat="40.01351739380065" lon="9.440057599831873"><ele>1021.0</ele><time>2026-04-11T11:35:44.999Z</time></trkpt><trkpt lat="40.01365993816589" lon="9.440067994395061"><ele>1024.0</ele><time>2026-04-11T11:35:45.999Z</time></trkpt><trkpt lat="40.013797133282196" lon="9.440094821062623"><ele>1027.0</ele><time>2026-04-11T11:35:46.999Z</time></trkpt><trkpt lat="40.01393124485958" lon="9.440137236613017"><ele>1027.0</ele><time>2026-04-11T11:35:47.999Z</time></trkpt><trkpt lat="40.01406320961075" lon="9.440185091188427"><ele>1027.0</ele><time>2026-04-11T11:35:48.999Z</time></trkpt><trkpt lat="40.01419684330165" lon="9.440234586255958"><ele>1027.0</ele><time>2026-04-11T11:35:49.999Z</time></trkpt><trkpt lat="40.01433367135201" lon="9.440287429233292"><ele>1027.0</ele><time>2026-04-11T11:35:50.999Z</time></trkpt><trkpt lat="40.014474248634144" lon="9.440345169471799"><ele>1027.5</ele><time>2026-04-11T11:35:51.999Z</time></trkpt><trkpt lat="40.01461662419107" lon="9.440394184630732"><ele>1028.0</ele><time>2026-04-11T11:35:52.999Z</time></trkpt><trkpt lat="40.01475875309241" lon="9.44044418960523"><ele>1028.5</ele><time>2026-04-11T11:35:53.999Z</time></trkpt><trkpt lat="40.01489938289979" lon="9.440499683703704"><ele>1029.0</ele><time>2026-04-11T11:35:54.999Z</time></trkpt><trkpt lat="40.015048434535466" lon="9.440562164229052"><ele>1030.3333333333333</ele><time>2026-04-11T11:35:55.999Z</time></trkpt><trkpt lat="40.01519858261657" lon="9.440621687555767"><ele>1031.6666666666665</ele><time>2026-04-11T11:35:56.999Z</time></trkpt><trkpt lat="40.01534454476108" lon="9.44067363256478"><ele>1033.0</ele><time>2026-04-11T11:35:57.999Z</time></trkpt><trkpt lat="40.015494476076476" lon="9.440731268949555"><ele>1033.0</ele><time>2026-04-11T11:35:58.999Z</time></trkpt><trkpt lat="40.01565333937635" lon="9.44079392824389"><ele>1033.0</ele><time>2026-04-11T11:35:59.999Z</time></trkpt><trkpt lat="40.015804931492454" lon="9.440837029624294"><ele>1033.0</ele><time>2026-04-11T11:36:00.999Z</time></trkpt><trkpt lat="40.01596362545931" lon="9.440860835073773"><ele>1030.5</ele><time>2026-04-11T11:36:01.999Z</time></trkpt><trkpt lat="40.01612435485875" lon="9.440846588039765"><ele>1028.0</ele><time>2026-04-11T11:36:02.999Z</time></trkpt><trkpt lat="40.01645590578589" lon="9.440742417433343"><ele>1028.0</ele><time>2026-04-11T11:36:04.999Z</time></trkpt><trkpt lat="40.016607343673854" lon="9.440692443753107"><ele>1028.0</ele><time>2026-04-11T11:36:05.999Z</time></trkpt><trkpt lat="40.016765935718084" lon="9.440646375165555"><ele>1028.0</ele><time>2026-04-11T11:36:06.999Z</time></trkpt><trkpt lat="40.0169286442243" lon="9.44059640477644"><ele>1027.6666666666667</ele><time>2026-04-11T11:36:07.999Z</time></trkpt><trkpt lat="40.01709367349592" lon="9.440548203781582"><ele>1027.3333333333333</ele><time>2026-04-11T11:36:08.999Z</time></trkpt><trkpt lat="40.0172594020834" lon="9.440506511889048"><ele>1027.0</ele><time>2026-04-11T11:36:09.999Z</time></trkpt><trkpt lat="40.017423921396436" lon="9.440462365353968"><ele>1026.0</ele><time>2026-04-11T11:36:10.999Z</time></trkpt><trkpt lat="40.01759215471762" lon="9.440414309823312"><ele>1025.0</ele><time>2026-04-11T11:36:11.999Z</time></trkpt><trkpt lat="40.01775853782175" lon="9.440357685043505"><ele>1024.0</ele><time>2026-04-11T11:36:12.999Z</time></trkpt><trkpt lat="40.01792423379588" lon="9.440295049329704"><ele>1024.0</ele><time>2026-04-11T11:36:14Z</time></trkpt><trkpt lat="40.01808717302086" lon="9.440229478736123"><ele>1024.0</ele><time>2026-04-11T11:36:15Z</time></trkpt><trkpt lat="40.01825215222516" lon="9.440166449065817"><ele>1024.0</ele><time>2026-04-11T11:36:16Z</time></trkpt><trkpt lat="40.018415994577296" lon="9.440096656397122"><ele>1025.0</ele><time>2026-04-11T11:36:17Z</time></trkpt><trkpt lat="40.01857445942099" lon="9.440006039291186"><ele>1026.0</ele><time>2026-04-11T11:36:18Z</time></trkpt><trkpt lat="40.01872368965833" lon="9.439891548014163"><ele>1027.0</ele><time>2026-04-11T11:36:19Z</time></trkpt><trkpt lat="40.01886873897169" lon="9.439766923178752"><ele>1027.0</ele><time>2026-04-11T11:36:20Z</time></trkpt><trkpt lat="40.019015459286436" lon="9.439643952224655"><ele>1027.0</ele><time>2026-04-11T11:36:21Z</time></trkpt><trkpt lat="40.01916604293343" lon="9.439524252494987"><ele>1027.0</ele><time>2026-04-11T11:36:22Z</time></trkpt><trkpt lat="40.01931032002291" lon="9.439387807496695"><ele>1025.5</ele><time>2026-04-11T11:36:23Z</time></trkpt><trkpt lat="40.01944384606025" lon="9.439235418397272"><ele>1024.0</ele><time>2026-04-11T11:36:24Z</time></trkpt><trkpt lat="40.01968590193241" lon="9.438950633511936"><ele>1024.0</ele><time>2026-04-11T11:36:26Z</time></trkpt><trkpt lat="40.019798318531805" lon="9.438819189870351"><ele>1024.0</ele><time>2026-04-11T11:36:27Z</time></trkpt><trkpt lat="40.01990422524472" lon="9.43869711128055"><ele>1024.0</ele><time>2026-04-11T11:36:28Z</time></trkpt><trkpt lat="40.02000776946127" lon="9.43858229870255"><ele>1024.0</ele><time>2026-04-11T11:36:29Z</time></trkpt><trkpt lat="40.02010836467367" lon="9.438475746807452"><ele>1023.5</ele><time>2026-04-11T11:36:30Z</time></trkpt><trkpt lat="40.0202100390217" lon="9.438389752441852"><ele>1023.0</ele><time>2026-04-11T11:36:31Z</time></trkpt><trkpt lat="40.020323019450345" lon="9.438331690555652"><ele>1022.5</ele><time>2026-04-11T11:36:32Z</time></trkpt><trkpt lat="40.02045433305281" lon="9.438320745100144"><ele>1022.0</ele><time>2026-04-11T11:36:33Z</time></trkpt><trkpt lat="40.02059484925854" lon="9.438327626209343"><ele>1022.0</ele><time>2026-04-11T11:36:34Z</time></trkpt><trkpt lat="40.020738906384665" lon="9.43833757348621"><ele>1022.0</ele><time>2026-04-11T11:36:35Z</time></trkpt><trkpt lat="40.02088198843719" lon="9.438336725830947"><ele>1022.0</ele><time>2026-04-11T11:36:36Z</time></trkpt><trkpt lat="40.02102611471525" lon="9.438330485410795"><ele>1022.0</ele><time>2026-04-11T11:36:37Z</time></trkpt><trkpt lat="40.02117173376125" lon="9.438325341679292"><ele>1022.75</ele><time>2026-04-11T11:36:38Z</time></trkpt><trkpt lat="40.02131920648459" lon="9.438322070538302"><ele>1023.5</ele><time>2026-04-11T11:36:39Z</time></trkpt><trkpt lat="40.02146365403513" lon="9.438317458386807"><ele>1024.25</ele><time>2026-04-11T11:36:40Z</time></trkpt><trkpt lat="40.02160850260253" lon="9.438309645731755"><ele>1025.0</ele><time>2026-04-11T11:36:41Z</time></trkpt><trkpt lat="40.02174992342108" lon="9.438301590284606"><ele>1026.0</ele><time>2026-04-11T11:36:42Z</time></trkpt><trkpt lat="40.021888504371184" lon="9.438297649267554"><ele>1027.0</ele><time>2026-04-11T11:36:43Z</time></trkpt><trkpt lat="40.02202339340885" lon="9.43829851274475"><ele>1028.0</ele><time>2026-04-11T11:36:44Z</time></trkpt><trkpt lat="40.02215768909674" lon="9.438289494873104"><ele>1029.0</ele><time>2026-04-11T11:36:45Z</time></trkpt><trkpt lat="40.02242897127761" lon="9.438166473996974"><ele>1029.25</ele><time>2026-04-11T11:36:47Z</time></trkpt><trkpt lat="40.02255211058227" lon="9.438056679209238"><ele>1029.5</ele><time>2026-04-11T11:36:48Z</time></trkpt><trkpt lat="40.0226739006181" lon="9.437946958985284"><ele>1029.75</ele><time>2026-04-11T11:36:49Z</time></trkpt><trkpt lat="40.022799277438544" lon="9.437843657780373"><ele>1030.0</ele><time>2026-04-11T11:36:50Z</time></trkpt><trkpt lat="40.02292299689286" lon="9.43773688178487"><ele>1030.0</ele><time>2026-04-11T11:36:51Z</time></trkpt><trkpt lat="40.023042768819124" lon="9.437640941624005"><ele>1030.0</ele><time>2026-04-11T11:36:52Z</time></trkpt><trkpt lat="40.02315012531228" lon="9.437539382711545"><ele>1030.0</ele><time>2026-04-11T11:36:53Z</time></trkpt><trkpt lat="40.02323282311512" lon="9.437414333965497"><ele>1030.0</ele><time>2026-04-11T11:36:54Z</time></trkpt><trkpt lat="40.023290415455946" lon="9.437271787044795"><ele>1032.75</ele><time>2026-04-11T11:36:55Z</time></trkpt><trkpt lat="40.0233233595896" lon="9.437114872302415"><ele>1035.5</ele><time>2026-04-11T11:36:56Z</time></trkpt><trkpt lat="40.023338123047516" lon="9.436954047257688"><ele>1038.25</ele><time>2026-04-11T11:36:57Z</time></trkpt><trkpt lat="40.023360311181094" lon="9.436786645337838"><ele>1041.0</ele><time>2026-04-11T11:36:58Z</time></trkpt><trkpt lat="40.02338047313893" lon="9.436607205946807"><ele>1041.0</ele><time>2026-04-11T11:36:59Z</time></trkpt><trkpt lat="40.0234048701864" lon="9.436429222045536"><ele>1041.0</ele><time>2026-04-11T11:37:00Z</time></trkpt><trkpt lat="40.02343156597644" lon="9.436249333723785"><ele>1041.0</ele><time>2026-04-11T11:37:01Z</time></trkpt><trkpt lat="40.023457276468534" lon="9.43606830800797"><ele>1041.0</ele><time>2026-04-11T11:37:02Z</time></trkpt><trkpt lat="40.02348317125371" lon="9.435882392432058"><ele>1041.0</ele><time>2026-04-11T11:37:03Z</time></trkpt><trkpt lat="40.023517250790924" lon="9.435692034510017"><ele>1041.0</ele><time>2026-04-11T11:37:04Z</time></trkpt><trkpt lat="40.02355250076099" lon="9.435521865266374"><ele>1041.0</ele><time>2026-04-11T11:37:05Z</time></trkpt><trkpt lat="40.023591035109064" lon="9.435367342278813"><ele>1041.0</ele><time>2026-04-11T11:37:06Z</time></trkpt><trkpt lat="40.02371837585498" lon="9.43506717658033"><ele>1041.0</ele><time>2026-04-11T11:37:08Z</time></trkpt><trkpt lat="40.02379514610012" lon="9.434921670378781"><ele>1041.0</ele><time>2026-04-11T11:37:09Z</time></trkpt><trkpt lat="40.023878076581184" lon="9.434782298908733"><ele>1041.0</ele><time>2026-04-11T11:37:10Z</time></trkpt><trkpt lat="40.02395856156391" lon="9.434639571749003"><ele>1041.0</ele><time>2026-04-11T11:37:11Z</time></trkpt><trkpt lat="40.02403531544087" lon="9.4344885900525"><ele>1041.5</ele><time>2026-04-11T11:37:12Z</time></trkpt><trkpt lat="40.02411249586148" lon="9.434332329419625"><ele>1042.0</ele><time>2026-04-11T11:37:13Z</time></trkpt><trkpt lat="40.02419585045385" lon="9.43419145397503"><ele>1042.5</ele><time>2026-04-11T11:37:14Z</time></trkpt><trkpt lat="40.024282710905766" lon="9.434078315617556"><ele>1043.0</ele><time>2026-04-11T11:37:15Z</time></trkpt><trkpt lat="40.02438258517258" lon="9.433984347430984"><ele>1042.0</ele><time>2026-04-11T11:37:16Z</time></trkpt><trkpt lat="40.02450469263831" lon="9.433931026855113"><ele>1041.0</ele><time>2026-04-11T11:37:17Z</time></trkpt><trkpt lat="40.024639345373195" lon="9.4338968155794"><ele>1040.0</ele><time>2026-04-11T11:37:18Z</time></trkpt><trkpt lat="40.0247786762383" lon="9.433865794588113"><ele>1039.0</ele><time>2026-04-11T11:37:19Z</time></trkpt><trkpt lat="40.02492554391206" lon="9.433835808205009"><ele>1038.6666666666665</ele><time>2026-04-11T11:37:19.999Z</time></trkpt><trkpt lat="40.02507660844995" lon="9.433806596473435"><ele>1038.3333333333333</ele><time>2026-04-11T11:37:20.999Z</time></trkpt><trkpt lat="40.0252324853193" lon="9.433770948475024"><ele>1038.0</ele><time>2026-04-11T11:37:21.999Z</time></trkpt><trkpt lat="40.025396445507745" lon="9.433736148212981"><ele>1038.0</ele><time>2026-04-11T11:37:22.999Z</time></trkpt><trkpt lat="40.02555120638736" lon="9.43370299504769"><ele>1038.0</ele><time>2026-04-11T11:37:23.999Z</time></trkpt><trkpt lat="40.02570802198072" lon="9.433672571198645"><ele>1038.0</ele><time>2026-04-11T11:37:24.999Z</time></trkpt><trkpt lat="40.025868727982555" lon="9.433637391838614"><ele>1032.0</ele><time>2026-04-11T11:37:25.999Z</time></trkpt><trkpt lat="40.02603028907932" lon="9.433602946048977"><ele>1026.0</ele><time>2026-04-11T11:37:26.999Z</time></trkpt><trkpt lat="40.02636014259586" lon="9.433532109310029"><ele>1026.0</ele><time>2026-04-11T11:37:28.999Z</time></trkpt><trkpt lat="40.026527399060136" lon="9.433497923159733"><ele>1026.0</ele><time>2026-04-11T11:37:29.999Z</time></trkpt><trkpt lat="40.026692166576815" lon="9.433473606749436"><ele>1026.0</ele><time>2026-04-11T11:37:30.999Z</time></trkpt><trkpt lat="40.0268586782679" lon="9.433463972395309"><ele>1025.0</ele><time>2026-04-11T11:37:31.999Z</time></trkpt><trkpt lat="40.02702323940061" lon="9.4334566709521"><ele>1024.0</ele><time>2026-04-11T11:37:32.999Z</time></trkpt><trkpt lat="40.0271861860667" lon="9.433446387556428"><ele>1023.0</ele><time>2026-04-11T11:37:33.999Z</time></trkpt><trkpt lat="40.02734996645847" lon="9.433431397859207"><ele>1022.6666666666667</ele><time>2026-04-11T11:37:34.999Z</time></trkpt><trkpt lat="40.027515060119235" lon="9.433417633918088"><ele>1022.3333333333334</ele><time>2026-04-11T11:37:35.999Z</time></trkpt><trkpt lat="40.027679823189956" lon="9.433405007231574"><ele>1022.0</ele><time>2026-04-11T11:37:36.999Z</time></trkpt><trkpt lat="40.027843113449734" lon="9.433395467250527"><ele>1022.0</ele><time>2026-04-11T11:37:37.999Z</time></trkpt><trkpt lat="40.02800723571866" lon="9.433380745297603"><ele>1022.0</ele><time>2026-04-11T11:37:38.999Z</time></trkpt><trkpt lat="40.02816779919182" lon="9.433370386104102"><ele>1022.0</ele><time>2026-04-11T11:37:39.999Z</time></trkpt><trkpt lat="40.02833001829082" lon="9.433360071036489"><ele>1021.6666666666667</ele><time>2026-04-11T11:37:40.999Z</time></trkpt><trkpt lat="40.02849271129053" lon="9.433353030795805"><ele>1021.3333333333333</ele><time>2026-04-11T11:37:41.999Z</time></trkpt><trkpt lat="40.028654016574244" lon="9.433341494596714"><ele>1021.0</ele><time>2026-04-11T11:37:42.999Z</time></trkpt><trkpt lat="40.02881312536774" lon="9.433330102061163"><ele>1021.0</ele><time>2026-04-11T11:37:43.999Z</time></trkpt><trkpt lat="40.02897690581332" lon="9.433319937570158"><ele>1021.0</ele><time>2026-04-11T11:37:44.999Z</time></trkpt><trkpt lat="40.029136398211044" lon="9.433313006365037"><ele>1021.0</ele><time>2026-04-11T11:37:45.999Z</time></trkpt><trkpt lat="40.029295916906015" lon="9.433301017371512"><ele>1022.0</ele><time>2026-04-11T11:37:46.999Z</time></trkpt><trkpt lat="40.02945548817778" lon="9.433288995265373"><ele>1023.0</ele><time>2026-04-11T11:37:47.999Z</time></trkpt><trkpt lat="40.029753502277934" lon="9.433283784033355"><ele>1023.0</ele><time>2026-04-11T11:37:49.999Z</time></trkpt><trkpt lat="40.02989067838826" lon="9.433304622629816"><ele>1023.0</ele><time>2026-04-11T11:37:50.999Z</time></trkpt><trkpt lat="40.03002376427425" lon="9.433375452083126"><ele>1023.0</ele><time>2026-04-11T11:37:51.999Z</time></trkpt><trkpt lat="40.030144414369175" lon="9.433487178727088"><ele>1023.0</ele><time>2026-04-11T11:37:52.999Z</time></trkpt><trkpt lat="40.03025598223975" lon="9.43359855783698"><ele>1023.25</ele><time>2026-04-11T11:37:53.999Z</time></trkpt><trkpt lat="40.03036981261446" lon="9.433703377689234"><ele>1023.5</ele><time>2026-04-11T11:37:54.999Z</time></trkpt><trkpt lat="40.030495372819615" lon="9.43381033636633"><ele>1023.75</ele><time>2026-04-11T11:37:55.999Z</time></trkpt><trkpt lat="40.030623111396565" lon="9.433916687991847"><ele>1024.0</ele><time>2026-04-11T11:37:56.999Z</time></trkpt><trkpt lat="40.030752060639934" lon="9.43402782223036"><ele>1025.25</ele><time>2026-04-11T11:37:57.999Z</time></trkpt><trkpt lat="40.03087853393039" lon="9.434138142800338"><ele>1026.5</ele><time>2026-04-11T11:37:58.999Z</time></trkpt><trkpt lat="40.031001847208174" lon="9.434245455816919"><ele>1027.75</ele><time>2026-04-11T11:37:59.999Z</time></trkpt><trkpt lat="40.03112085838834" lon="9.43435679695013"><ele>1029.0</ele><time>2026-04-11T11:38:00.999Z</time></trkpt><trkpt lat="40.03122251087082" lon="9.434475492521177"><ele>1029.0</ele><time>2026-04-11T11:38:01.999Z</time></trkpt><trkpt lat="40.031298843323036" lon="9.434609335225032"><ele>1029.0</ele><time>2026-04-11T11:38:02.999Z</time></trkpt><trkpt lat="40.031357195916094" lon="9.43475645266548"><ele>1029.0</ele><time>2026-04-11T11:38:03.999Z</time></trkpt><trkpt lat="40.03140820085825" lon="9.43490983065057"><ele>1029.0</ele><time>2026-04-11T11:38:04.999Z</time></trkpt><trkpt lat="40.03146652779258" lon="9.435064422360222"><ele>1028.25</ele><time>2026-04-11T11:38:05.999Z</time></trkpt><trkpt lat="40.0315281909794" lon="9.435224091502596"><ele>1027.5</ele><time>2026-04-11T11:38:06.999Z</time></trkpt><trkpt lat="40.03159081972586" lon="9.435390140472546"><ele>1026.75</ele><time>2026-04-11T11:38:07.999Z</time></trkpt><trkpt lat="40.03164969950323" lon="9.435559336684088"><ele>1026.0</ele><time>2026-04-11T11:38:08.999Z</time></trkpt><trkpt lat="40.031773990881106" lon="9.435902954538967"><ele>1026.0</ele><time>2026-04-11T11:38:10.999Z</time></trkpt><trkpt lat="40.031835916498785" lon="9.436074177834222"><ele>1026.0</ele><time>2026-04-11T11:38:11.999Z</time></trkpt><trkpt lat="40.03189822953618" lon="9.436245260177454"><ele>1026.0</ele><time>2026-04-11T11:38:12.999Z</time></trkpt><trkpt lat="40.03196040701103" lon="9.436415917012562"><ele>1026.0</ele><time>2026-04-11T11:38:13.999Z</time></trkpt><trkpt lat="40.03202264944002" lon="9.436586081299788"><ele>1026.75</ele><time>2026-04-11T11:38:14.999Z</time></trkpt><trkpt lat="40.03208679731191" lon="9.43675569645341"><ele>1027.5</ele><time>2026-04-11T11:38:15.999Z</time></trkpt><trkpt lat="40.03214327917037" lon="9.436931795354907"><ele>1028.25</ele><time>2026-04-11T11:38:16.999Z</time></trkpt><trkpt lat="40.032205515514015" lon="9.437098916524866"><ele>1029.0</ele><time>2026-04-11T11:38:17.999Z</time></trkpt><trkpt lat="40.032268811779595" lon="9.437265803169641"><ele>1029.5</ele><time>2026-04-11T11:38:18.999Z</time></trkpt><trkpt lat="40.03232945395658" lon="9.437435373338719"><ele>1030.0</ele><time>2026-04-11T11:38:20Z</time></trkpt><trkpt lat="40.03238859590799" lon="9.437609516240009"><ele>1030.5</ele><time>2026-04-11T11:38:21Z</time></trkpt><trkpt lat="40.03244864503561" lon="9.437782499770783"><ele>1031.0</ele><time>2026-04-11T11:38:22Z</time></trkpt><trkpt lat="40.03251182053582" lon="9.437951050500189"><ele>1031.0</ele><time>2026-04-11T11:38:23Z</time></trkpt><trkpt lat="40.03257383984981" lon="9.438118648563579"><ele>1031.0</ele><time>2026-04-11T11:38:24Z</time></trkpt><trkpt lat="40.03263407622749" lon="9.438289457947704"><ele>1031.0</ele><time>2026-04-11T11:38:25Z</time></trkpt><trkpt lat="40.03269384015095" lon="9.43845659981784"><ele>1031.0</ele><time>2026-04-11T11:38:26Z</time></trkpt><trkpt lat="40.032752265546804" lon="9.438621190596159"><ele>1031.0</ele><time>2026-04-11T11:38:27Z</time></trkpt><trkpt lat="40.0328111776828" lon="9.43878584749842"><ele>1031.0</ele><time>2026-04-11T11:38:28Z</time></trkpt><trkpt lat="40.032871850526114" lon="9.438948875805123"><ele>1031.0</ele><time>2026-04-11T11:38:29Z</time></trkpt><trkpt lat="40.03293052292531" lon="9.439113459470342"><ele>1031.0</ele><time>2026-04-11T11:38:30Z</time></trkpt><trkpt lat="40.03304231783773" lon="9.439439980744778"><ele>1033.25</ele><time>2026-04-11T11:38:32Z</time></trkpt><trkpt lat="40.03310044296691" lon="9.439605208261696"><ele>1035.5</ele><time>2026-04-11T11:38:33Z</time></trkpt><trkpt lat="40.03316260741081" lon="9.43977196846394"><ele>1037.75</ele><time>2026-04-11T11:38:34Z</time></trkpt><trkpt lat="40.033223198711305" lon="9.439943995803182"><ele>1040.0</ele><time>2026-04-11T11:38:35Z</time></trkpt><trkpt lat="40.033283592635996" lon="9.440116248481464"><ele>1039.6666666666667</ele><time>2026-04-11T11:38:36Z</time></trkpt><trkpt lat="40.03334618983432" lon="9.440294103450046"><ele>1039.3333333333333</ele><time>2026-04-11T11:38:37Z</time></trkpt><trkpt lat="40.03341161124997" lon="9.44047164016771"><ele>1039.0</ele><time>2026-04-11T11:38:38Z</time></trkpt><trkpt lat="40.03347366806611" lon="9.440652574154933"><ele>1041.3333333333333</ele><time>2026-04-11T11:38:39Z</time></trkpt><trkpt lat="40.03353833968588" lon="9.440833827482322"><ele>1043.6666666666667</ele><time>2026-04-11T11:38:40Z</time></trkpt><trkpt lat="40.03360262494006" lon="9.441017174464774"><ele>1046.0</ele><time>2026-04-11T11:38:41Z</time></trkpt><trkpt lat="40.033670304125316" lon="9.44119807895252"><ele>1050.3333333333335</ele><time>2026-04-11T11:38:42Z</time></trkpt><trkpt lat="40.03375180708394" lon="9.441371132621429"><ele>1054.6666666666667</ele><time>2026-04-11T11:38:43Z</time></trkpt><trkpt lat="40.033852787660656" lon="9.44152558582434"><ele>1059.0</ele><time>2026-04-11T11:38:44Z</time></trkpt><trkpt lat="40.033965741955996" lon="9.441664806038025"><ele>1059.0</ele><time>2026-04-11T11:38:45Z</time></trkpt><trkpt lat="40.034082242232934" lon="9.441795143689687"><ele>1059.0</ele><time>2026-04-11T11:38:46Z</time></trkpt><trkpt lat="40.034202181450254" lon="9.441927309931913"><ele>1059.0</ele><time>2026-04-11T11:38:47Z</time></trkpt><trkpt lat="40.03432182864605" lon="9.442063118682547"><ele>1058.6666666666667</ele><time>2026-04-11T11:38:48Z</time></trkpt><trkpt lat="40.034441974147214" lon="9.442201124699848"><ele>1058.3333333333335</ele><time>2026-04-11T11:38:49Z</time></trkpt><trkpt lat="40.03456131084864" lon="9.442334856428458"><ele>1058.0</ele><time>2026-04-11T11:38:50Z</time></trkpt><trkpt lat="40.034679108735894" lon="9.442461022417023"><ele>1058.0</ele><time>2026-04-11T11:38:51Z</time></trkpt><trkpt lat="40.03491954449005" lon="9.442726962412785"><ele>1058.0</ele><time>2026-04-11T11:38:53Z</time></trkpt><trkpt lat="40.03503989355257" lon="9.442860047822318"><ele>1059.6666666666667</ele><time>2026-04-11T11:38:54Z</time></trkpt><trkpt lat="40.035161500621605" lon="9.442993871958148"><ele>1061.3333333333333</ele><time>2026-04-11T11:38:55Z</time></trkpt><trkpt lat="40.035283493397095" lon="9.443131153510008"><ele>1063.0</ele><time>2026-04-11T11:38:56Z</time></trkpt><trkpt lat="40.0354021445126" lon="9.443265914178296"><ele>1063.0</ele><time>2026-04-11T11:38:57Z</time></trkpt><trkpt lat="40.03551733983187" lon="9.443404772675855"><ele>1063.0</ele><time>2026-04-11T11:38:58Z</time></trkpt><trkpt lat="40.03563527768271" lon="9.443537839455859"><ele>1063.0</ele><time>2026-04-11T11:38:59Z</time></trkpt><trkpt lat="40.03575276534572" lon="9.443670316999428"><ele>1065.6666666666665</ele><time>2026-04-11T11:39:00Z</time></trkpt><trkpt lat="40.035870196624764" lon="9.443801811931078"><ele>1068.3333333333333</ele><time>2026-04-11T11:39:01Z</time></trkpt><trkpt lat="40.0359885045035" lon="9.443933143631812"><ele>1071.0</ele><time>2026-04-11T11:39:02Z</time></trkpt><trkpt lat="40.03610502351235" lon="9.44406237885013"><ele>1071.0</ele><time>2026-04-11T11:39:03Z</time></trkpt><trkpt lat="40.03621960918616" lon="9.444196844495725"><ele>1071.0</ele><time>2026-04-11T11:39:04Z</time></trkpt><trkpt lat="40.036329770748985" lon="9.444343883795215"><ele>1071.0</ele><time>2026-04-11T11:39:05Z</time></trkpt><trkpt lat="40.03643493316345" lon="9.444496999537176"><ele>1071.0</ele><time>2026-04-11T11:39:06Z</time></trkpt><trkpt lat="40.03653569861747" lon="9.444651170303256"><ele>1071.0</ele><time>2026-04-11T11:39:07Z</time></trkpt><trkpt lat="40.036639077884665" lon="9.444806572173036"><ele>1071.0</ele><time>2026-04-11T11:39:08Z</time></trkpt><trkpt lat="40.036741177458296" lon="9.44496342082354"><ele>1071.0</ele><time>2026-04-11T11:39:09Z</time></trkpt><trkpt lat="40.036842824026046" lon="9.44512294037267"><ele>1071.0</ele><time>2026-04-11T11:39:10Z</time></trkpt><trkpt lat="40.0369386277864" lon="9.445281525298867"><ele>1071.0</ele><time>2026-04-11T11:39:11Z</time></trkpt><trkpt lat="40.03702614568148" lon="9.445441658918503"><ele>1078.0</ele><time>2026-04-11T11:39:12Z</time></trkpt><trkpt lat="40.037171734715095" lon="9.44579472113866"><ele>1085.0</ele><time>2026-04-11T11:39:14Z</time></trkpt><trkpt lat="40.03722897020173" lon="9.445978123362002"><ele>1085.0</ele><time>2026-04-11T11:39:15Z</time></trkpt><trkpt lat="40.0372852643741" lon="9.446159601188853"><ele>1085.0</ele><time>2026-04-11T11:39:16Z</time></trkpt><trkpt lat="40.03733666404649" lon="9.446338740580895"><ele>1085.0</ele><time>2026-04-11T11:39:17Z</time></trkpt><trkpt lat="40.037389595725514" lon="9.446513856430231"><ele>1085.0</ele><time>2026-04-11T11:39:18Z</time></trkpt><trkpt lat="40.03744304864135" lon="9.44669158903672"><ele>1085.5</ele><time>2026-04-11T11:39:19Z</time></trkpt><trkpt lat="40.037489842439506" lon="9.446870628012727"><ele>1086.0</ele><time>2026-04-11T11:39:20Z</time></trkpt><trkpt lat="40.03753304561327" lon="9.44704790980049"><ele>1086.5</ele><time>2026-04-11T11:39:21Z</time></trkpt><trkpt lat="40.03757262638575" lon="9.447225356843212"><ele>1087.0</ele><time>2026-04-11T11:39:22Z</time></trkpt><trkpt lat="40.03760809829978" lon="9.447411928977072"><ele>1087.0</ele><time>2026-04-11T11:39:23Z</time></trkpt><trkpt lat="40.03763671596292" lon="9.447590864054678"><ele>1087.0</ele><time>2026-04-11T11:39:24Z</time></trkpt><trkpt lat="40.03765928618019" lon="9.447767883040072"><ele>1087.0</ele><time>2026-04-11T11:39:25Z</time></trkpt><trkpt lat="40.03768411044907" lon="9.447949049898613"><ele>1087.0</ele><time>2026-04-11T11:39:26Z</time></trkpt><trkpt lat="40.037705136070144" lon="9.4481318299901"><ele>1088.0</ele><time>2026-04-11T11:39:27Z</time></trkpt><trkpt lat="40.03772376187966" lon="9.448319510524293"><ele>1089.0</ele><time>2026-04-11T11:39:28Z</time></trkpt><trkpt lat="40.03773228108658" lon="9.44851316663621"><ele>1090.0</ele><time>2026-04-11T11:39:29Z</time></trkpt><trkpt lat="40.037732287811004" lon="9.448709195828148"><ele>1091.0</ele><time>2026-04-11T11:39:30Z</time></trkpt><trkpt lat="40.03773286106037" lon="9.448908169694247"><ele>1092.0</ele><time>2026-04-11T11:39:31Z</time></trkpt><trkpt lat="40.03774002906899" lon="9.449107969047436"><ele>1093.0</ele><time>2026-04-11T11:39:32Z</time></trkpt><trkpt lat="40.03775109243101" lon="9.4493092478853"><ele>1094.0</ele><time>2026-04-11T11:39:33Z</time></trkpt><trkpt lat="40.03777015956125" lon="9.44971348841631"><ele>1095.0</ele><time>2026-04-11T11:39:35Z</time></trkpt><trkpt lat="40.03777562854745" lon="9.449918023118606"><ele>1096.0</ele><time>2026-04-11T11:39:36Z</time></trkpt><trkpt lat="40.0377793957989" lon="9.450123731118401"><ele>1097.0</ele><time>2026-04-11T11:39:37Z</time></trkpt><trkpt lat="40.03778444567929" lon="9.450331963733454"><ele>1096.0</ele><time>2026-04-11T11:39:38Z</time></trkpt><trkpt lat="40.0377937582073" lon="9.450527718290923"><ele>1095.0</ele><time>2026-04-11T11:39:39Z</time></trkpt><trkpt lat="40.03780394471113" lon="9.45070926605766"><ele>1094.0</ele><time>2026-04-11T11:39:40Z</time></trkpt><trkpt lat="40.037808316393146" lon="9.450892203425594"><ele>1093.0</ele><time>2026-04-11T11:39:41Z</time></trkpt><trkpt lat="40.037818065843496" lon="9.451061824820528"><ele>1093.0</ele><time>2026-04-11T11:39:42Z</time></trkpt><trkpt lat="40.03784087741273" lon="9.451218747478979"><ele>1093.0</ele><time>2026-04-11T11:39:43Z</time></trkpt><trkpt lat="40.037877307266214" lon="9.451368861961438"><ele>1093.0</ele><time>2026-04-11T11:39:44Z</time></trkpt><trkpt lat="40.03793877810992" lon="9.451503996538433"><ele>1093.0</ele><time>2026-04-11T11:39:44.999Z</time></trkpt><trkpt lat="40.038019258290674" lon="9.45163056922757"><ele>1092.25</ele><time>2026-04-11T11:39:45.999Z</time></trkpt><trkpt lat="40.03812576016837" lon="9.451720534257321"><ele>1091.5</ele><time>2026-04-11T11:39:46.999Z</time></trkpt><trkpt lat="40.03824889530999" lon="9.451778189817194"><ele>1090.75</ele><time>2026-04-11T11:39:47.999Z</time></trkpt><trkpt lat="40.038389075086656" lon="9.451815606118517"><ele>1090.0</ele><time>2026-04-11T11:39:48.999Z</time></trkpt><trkpt lat="40.038533165086704" lon="9.451873993736728"><ele>1090.0</ele><time>2026-04-11T11:39:49.999Z</time></trkpt><trkpt lat="40.038677788953564" lon="9.45195869338314"><ele>1090.0</ele><time>2026-04-11T11:39:50.999Z</time></trkpt><trkpt lat="40.03882262293262" lon="9.452062445369627"><ele>1090.0</ele><time>2026-04-11T11:39:51.999Z</time></trkpt><trkpt lat="40.038954539009374" lon="9.452165587301144"><ele>1085.0</ele><time>2026-04-11T11:39:52.999Z</time></trkpt><trkpt lat="40.039091019981434" lon="9.452276872508616"><ele>1080.0</ele><time>2026-04-11T11:39:53.999Z</time></trkpt><trkpt lat="40.039367189360426" lon="9.452502251954991"><ele>1080.0</ele><time>2026-04-11T11:39:55.999Z</time></trkpt><trkpt lat="40.03948925915946" lon="9.452612789340462"><ele>1080.0</ele><time>2026-04-11T11:39:56.999Z</time></trkpt><trkpt lat="40.03962142028693" lon="9.452703262312754"><ele>1080.0</ele><time>2026-04-11T11:39:57.999Z</time></trkpt><trkpt lat="40.039755002017465" lon="9.452794296934504"><ele>1080.0</ele><time>2026-04-11T11:39:58.999Z</time></trkpt><trkpt lat="40.03989252284575" lon="9.452875928586087"><ele>1076.3333333333333</ele><time>2026-04-11T11:39:59.999Z</time></trkpt><trkpt lat="40.04003681916353" lon="9.45293895376246"><ele>1072.6666666666665</ele><time>2026-04-11T11:40:00.999Z</time></trkpt><trkpt lat="40.04018522611903" lon="9.452999471454412"><ele>1069.0</ele><time>2026-04-11T11:40:01.999Z</time></trkpt><trkpt lat="40.040336829667275" lon="9.453059573801905"><ele>1069.0</ele><time>2026-04-11T11:40:02.999Z</time></trkpt><trkpt lat="40.0404898303128" lon="9.453108456935707"><ele>1069.0</ele><time>2026-04-11T11:40:03.999Z</time></trkpt><trkpt lat="40.04064845342634" lon="9.453146747573118"><ele>1069.0</ele><time>2026-04-11T11:40:04.999Z</time></trkpt><trkpt lat="40.04080900351276" lon="9.453190371051862"><ele>1072.3333333333333</ele><time>2026-04-11T11:40:05.999Z</time></trkpt><trkpt lat="40.040968787755425" lon="9.453234825059203"><ele>1075.6666666666667</ele><time>2026-04-11T11:40:06.999Z</time></trkpt><trkpt lat="40.04112841939707" lon="9.45329031840706"><ele>1079.0</ele><time>2026-04-11T11:40:07.999Z</time></trkpt><trkpt lat="40.041288393413" lon="9.453355928996709"><ele>1079.0</ele><time>2026-04-11T11:40:08.999Z</time></trkpt><trkpt lat="40.04144907828094" lon="9.453423394925862"><ele>1079.0</ele><time>2026-04-11T11:40:09.999Z</time></trkpt><trkpt lat="40.04161097756495" lon="9.453489579875972"><ele>1079.0</ele><time>2026-04-11T11:40:10.999Z</time></trkpt><trkpt lat="40.0417736229414" lon="9.453551675479394"><ele>1082.6666666666667</ele><time>2026-04-11T11:40:11.999Z</time></trkpt><trkpt lat="40.04194034652875" lon="9.45360897899875"><ele>1086.3333333333333</ele><time>2026-04-11T11:40:12.999Z</time></trkpt><trkpt lat="40.04210964816357" lon="9.453669364178278"><ele>1090.0</ele><time>2026-04-11T11:40:13.999Z</time></trkpt><trkpt lat="40.04226988152439" lon="9.453727949652633"><ele>1084.3333333333333</ele><time>2026-04-11T11:40:14.999Z</time></trkpt><trkpt lat="40.042563381971746" lon="9.453844814552864"><ele>1078.6666666666667</ele><time>2026-04-11T11:40:16.999Z</time></trkpt><trkpt lat="40.042692724382384" lon="9.453904515162575"><ele>1073.0</ele><time>2026-04-11T11:40:17.999Z</time></trkpt><trkpt lat="40.042801313873376" lon="9.453970208238257"><ele>1073.0</ele><time>2026-04-11T11:40:18.999Z</time></trkpt><trkpt lat="40.04289412990485" lon="9.454051873032052"><ele>1073.0</ele><time>2026-04-11T11:40:19.999Z</time></trkpt><trkpt lat="40.04297068018606" lon="9.45414689661783"><ele>1073.0</ele><time>2026-04-11T11:40:20.999Z</time></trkpt><trkpt lat="40.04303223944266" lon="9.454235965389897"><ele>1073.0</ele><time>2026-04-11T11:40:21.999Z</time></trkpt><trkpt lat="40.04308271369569" lon="9.454306825528311"><ele>1073.0</ele><time>2026-04-11T11:40:22.999Z</time></trkpt><trkpt lat="40.04313523320121" lon="9.454419914403093"><ele>1073.0</ele><time>2026-04-11T11:40:24.999Z</time></trkpt><trkpt lat="40.04317805791429" lon="9.454481885262357"><ele>1073.0</ele><time>2026-04-11T11:40:27Z</time></trkpt><trkpt lat="40.043264798685016" lon="9.45451714447075"><ele>1073.0</ele><time>2026-04-11T11:40:29Z</time></trkpt><trkpt lat="40.043324862945575" lon="9.454555476969139"><ele>1073.0</ele><time>2026-04-11T11:40:30Z</time></trkpt><trkpt lat="40.0433840262664" lon="9.45462194801841"><ele>1073.0</ele><time>2026-04-11T11:40:31Z</time></trkpt><trkpt lat="40.043437533736814" lon="9.454702863081671"><ele>1073.0</ele><time>2026-04-11T11:40:32Z</time></trkpt><trkpt lat="40.04348277618992" lon="9.454782308759793"><ele>1073.75</ele><time>2026-04-11T11:40:33Z</time></trkpt><trkpt lat="40.043533142383694" lon="9.454869341126349"><ele>1074.5</ele><time>2026-04-11T11:40:34Z</time></trkpt><trkpt lat="40.04359531457342" lon="9.454960067226935"><ele>1075.25</ele><time>2026-04-11T11:40:35Z</time></trkpt><trkpt lat="40.04366528542676" lon="9.455062288544108"><ele>1076.0</ele><time>2026-04-11T11:40:36Z</time></trkpt><trkpt lat="40.043804046312886" lon="9.455249217619171"><ele>1076.0</ele><time>2026-04-11T11:40:38Z</time></trkpt><trkpt lat="40.04388273048514" lon="9.455354084610715"><ele>1076.0</ele><time>2026-04-11T11:40:39Z</time></trkpt><trkpt lat="40.04395829160989" lon="9.455457446258551"><ele>1076.0</ele><time>2026-04-11T11:40:40Z</time></trkpt><trkpt lat="40.04402434446003" lon="9.455550644448046"><ele>1076.0</ele><time>2026-04-11T11:40:41Z</time></trkpt><trkpt lat="40.04408323983276" lon="9.455637846918538"><ele>1076.0</ele><time>2026-04-11T11:40:42Z</time></trkpt><trkpt lat="40.04412179380332" lon="9.455729276699827"><ele>1076.5</ele><time>2026-04-11T11:40:43Z</time></trkpt><trkpt lat="40.04413069610974" lon="9.455815096856451"><ele>1077.0</ele><time>2026-04-11T11:40:44Z</time></trkpt><trkpt lat="40.04411671687965" lon="9.455913986659342"><ele>1077.5</ele><time>2026-04-11T11:40:45Z</time></trkpt><trkpt lat="40.04407721729106" lon="9.456006629589274"><ele>1078.0</ele><time>2026-04-11T11:40:46Z</time></trkpt><trkpt lat="40.04404119590559" lon="9.456099582227415"><ele>1078.5</ele><time>2026-04-11T11:40:47Z</time></trkpt><trkpt lat="40.04400660556191" lon="9.456195514506744"><ele>1079.0</ele><time>2026-04-11T11:40:48Z</time></trkpt><trkpt lat="40.04396695515441" lon="9.456292330752836"><ele>1077.8333333333335</ele><time>2026-04-11T11:40:49Z</time></trkpt><trkpt lat="40.043919877071986" lon="9.45638194980046"><ele>1076.6666666666667</ele><time>2026-04-11T11:40:50Z</time></trkpt><trkpt lat="40.04387257066947" lon="9.456471234628728"><ele>1075.5</ele><time>2026-04-11T11:40:51Z</time></trkpt><trkpt lat="40.04382952554194" lon="9.45656475009639"><ele>1074.3333333333333</ele><time>2026-04-11T11:40:52Z</time></trkpt><trkpt lat="40.04379469677687" lon="9.456672316619073"><ele>1073.1666666666665</ele><time>2026-04-11T11:40:53Z</time></trkpt><trkpt lat="40.04377278863868" lon="9.456778571812762"><ele>1072.0</ele><time>2026-04-11T11:40:54Z</time></trkpt><trkpt lat="40.0437555292612" lon="9.456889884052758"><ele>1072.0</ele><time>2026-04-11T11:40:55Z</time></trkpt><trkpt lat="40.04374084463037" lon="9.456995760123956"><ele>1072.0</ele><time>2026-04-11T11:40:56Z</time></trkpt><trkpt lat="40.04373314625569" lon="9.457084926263072"><ele>1072.0</ele><time>2026-04-11T11:40:57Z</time></trkpt><trkpt lat="40.04387226320225" lon="9.4572546688263"><ele>1072.0</ele><time>2026-04-11T11:41:01Z</time></trkpt><trkpt lat="40.04399355130534" lon="9.457205674805452"><ele>1071.0</ele><time>2026-04-11T11:41:03Z</time></trkpt><trkpt lat="40.0441202192627" lon="9.45715301031682"><ele>1070.0</ele><time>2026-04-11T11:41:05Z</time></trkpt><trkpt lat="40.04420228179479" lon="9.457132781480173"><ele>1069.0</ele><time>2026-04-11T11:41:06Z</time></trkpt><trkpt lat="40.0442963026982" lon="9.457123177388786"><ele>1068.0</ele><time>2026-04-11T11:41:07Z</time></trkpt><trkpt lat="40.04439833001454" lon="9.457121149758564"><ele>1067.0</ele><time>2026-04-11T11:41:08Z</time></trkpt><trkpt lat="40.04450754006093" lon="9.457115584081391"><ele>1065.5</ele><time>2026-04-11T11:41:09Z</time></trkpt><trkpt lat="40.04461932366186" lon="9.457110792799366"><ele>1064.0</ele><time>2026-04-11T11:41:10Z</time></trkpt><trkpt lat="40.04473372633596" lon="9.457093330012935"><ele>1062.5</ele><time>2026-04-11T11:41:11Z</time></trkpt><trkpt lat="40.044842948927716" lon="9.45705245127022"><ele>1061.0</ele><time>2026-04-11T11:41:12Z</time></trkpt><trkpt lat="40.0449534037711" lon="9.456984723445498"><ele>1059.5</ele><time>2026-04-11T11:41:13Z</time></trkpt><trkpt lat="40.04506144001818" lon="9.45690861347528"><ele>1058.0</ele><time>2026-04-11T11:41:14Z</time></trkpt><trkpt lat="40.045162312998634" lon="9.456825438037914"><ele>1056.5</ele><time>2026-04-11T11:41:15Z</time></trkpt><trkpt lat="40.0452580698233" lon="9.456744010278845"><ele>1055.0</ele><time>2026-04-11T11:41:16Z</time></trkpt><trkpt lat="40.045345639595446" lon="9.45665328198084"><ele>1055.0</ele><time>2026-04-11T11:41:17Z</time></trkpt><trkpt lat="40.04543449507304" lon="9.456551927116452"><ele>1055.0</ele><time>2026-04-11T11:41:18Z</time></trkpt><trkpt lat="40.04561337106787" lon="9.456348463160307"><ele>1055.0</ele><time>2026-04-11T11:41:20Z</time></trkpt><trkpt lat="40.045707312833756" lon="9.456243773869035"><ele>1054.25</ele><time>2026-04-11T11:41:21Z</time></trkpt><trkpt lat="40.04579674160459" lon="9.456144754652868"><ele>1053.5</ele><time>2026-04-11T11:41:22Z</time></trkpt><trkpt lat="40.04588281287858" lon="9.45604956622053"><ele>1052.75</ele><time>2026-04-11T11:41:23Z</time></trkpt><trkpt lat="40.04596769124235" lon="9.45595738857138"><ele>1052.0</ele><time>2026-04-11T11:41:24Z</time></trkpt><trkpt lat="40.046050898842914" lon="9.455862835018152"><ele>1052.0</ele><time>2026-04-11T11:41:25Z</time></trkpt><trkpt lat="40.04613617282515" lon="9.455767200244136"><ele>1052.0</ele><time>2026-04-11T11:41:26Z</time></trkpt><trkpt lat="40.04622245140363" lon="9.455675657668884"><ele>1052.0</ele><time>2026-04-11T11:41:27Z</time></trkpt><trkpt lat="40.046317507416596" lon="9.455582408673816"><ele>1052.0</ele><time>2026-04-11T11:41:28Z</time></trkpt><trkpt lat="40.04641108268226" lon="9.455481428987692"><ele>1051.5</ele><time>2026-04-11T11:41:29Z</time></trkpt><trkpt lat="40.046504873985214" lon="9.455380453053394"><ele>1051.0</ele><time>2026-04-11T11:41:30Z</time></trkpt><trkpt lat="40.04660208801282" lon="9.455279276751924"><ele>1050.5</ele><time>2026-04-11T11:41:31Z</time></trkpt><trkpt lat="40.04669457033182" lon="9.455176950798062"><ele>1050.0</ele><time>2026-04-11T11:41:32Z</time></trkpt><trkpt lat="40.046781304233384" lon="9.455077044197358"><ele>1050.0</ele><time>2026-04-11T11:41:33Z</time></trkpt><trkpt lat="40.0468693118247" lon="9.454993709367573"><ele>1050.0</ele><time>2026-04-11T11:41:34Z</time></trkpt><trkpt lat="40.04696171538436" lon="9.454924407422247"><ele>1050.0</ele><time>2026-04-11T11:41:35Z</time></trkpt><trkpt lat="40.04705428400189" lon="9.45486102851981"><ele>1050.0</ele><time>2026-04-11T11:41:36Z</time></trkpt><trkpt lat="40.04715098159761" lon="9.454804326672987"><ele>1050.0</ele><time>2026-04-11T11:41:37Z</time></trkpt><trkpt lat="40.04725031854158" lon="9.45476351480704"><ele>1050.0</ele><time>2026-04-11T11:41:38Z</time></trkpt><trkpt lat="40.04734988524675" lon="9.454733949176909"><ele>1050.0</ele><time>2026-04-11T11:41:39Z</time></trkpt><trkpt lat="40.04753106299687" lon="9.454705810786031"><ele>1050.0</ele><time>2026-04-11T11:41:41Z</time></trkpt><trkpt lat="40.04761732325661" lon="9.454693169805854"><ele>1050.0</ele><time>2026-04-11T11:41:42Z</time></trkpt><trkpt lat="40.047697505415236" lon="9.454683357055307"><ele>1050.3333333333333</ele><time>2026-04-11T11:41:43Z</time></trkpt><trkpt lat="40.047775010571115" lon="9.454679336747885"><ele>1050.6666666666667</ele><time>2026-04-11T11:41:44Z</time></trkpt><trkpt lat="40.04785083236374" lon="9.454687748579255"><ele>1051.0</ele><time>2026-04-11T11:41:45Z</time></trkpt><trkpt lat="40.047925138244324" lon="9.454709668626373"><ele>1051.3333333333335</ele><time>2026-04-11T11:41:46Z</time></trkpt><trkpt lat="40.04799551193857" lon="9.45474856176702"><ele>1051.6666666666667</ele><time>2026-04-11T11:41:47Z</time></trkpt><trkpt lat="40.04805803483308" lon="9.454803097322669"><ele>1052.0</ele><time>2026-04-11T11:41:48Z</time></trkpt><trkpt lat="40.04812407636068" lon="9.45486246471618"><ele>1052.0</ele><time>2026-04-11T11:41:49Z</time></trkpt><trkpt lat="40.04818767522572" lon="9.454926210311875"><ele>1052.0</ele><time>2026-04-11T11:41:50Z</time></trkpt><trkpt lat="40.048251712118265" lon="9.454990400718795"><ele>1052.0</ele><time>2026-04-11T11:41:51Z</time></trkpt><trkpt lat="40.04831462761076" lon="9.455036146060072"><ele>1052.0</ele><time>2026-04-11T11:41:52Z</time></trkpt><trkpt lat="40.04840305018975" lon="9.455080462667654"><ele>1052.0</ele><time>2026-04-11T11:41:53Z</time></trkpt><trkpt lat="40.04848950543055" lon="9.455112096537986"><ele>1052.0</ele><time>2026-04-11T11:41:54Z</time></trkpt><trkpt lat="40.04858129200867" lon="9.455168348519013"><ele>1051.2</ele><time>2026-04-11T11:41:55Z</time></trkpt><trkpt lat="40.04865985767496" lon="9.455221408858963"><ele>1050.4</ele><time>2026-04-11T11:41:56Z</time></trkpt><trkpt lat="40.04874748216711" lon="9.455263807120948"><ele>1049.6</ele><time>2026-04-11T11:41:57Z</time></trkpt><trkpt lat="40.04883837102667" lon="9.455304935357656"><ele>1048.8</ele><time>2026-04-11T11:41:58Z</time></trkpt><trkpt lat="40.04892654704778" lon="9.455370166249534"><ele>1048.0</ele><time>2026-04-11T11:41:59Z</time></trkpt><trkpt lat="40.04901165101202" lon="9.455449317104106"><ele>1048.5</ele><time>2026-04-11T11:42:00Z</time></trkpt><trkpt lat="40.04918122149395" lon="9.455598168427057"><ele>1049.0</ele><time>2026-04-11T11:42:01.999Z</time></trkpt><trkpt lat="40.04927136049004" lon="9.45566715507987"><ele>1049.5</ele><time>2026-04-11T11:42:02.999Z</time></trkpt><trkpt lat="40.0493561776954" lon="9.45574623776327"><ele>1050.0</ele><time>2026-04-11T11:42:03.999Z</time></trkpt><trkpt lat="40.04943862567765" lon="9.455817807653421"><ele>1050.0</ele><time>2026-04-11T11:42:04.999Z</time></trkpt><trkpt lat="40.04952538999905" lon="9.455880799862987"><ele>1050.0</ele><time>2026-04-11T11:42:05.999Z</time></trkpt><trkpt lat="40.049600618980236" lon="9.455933281846658"><ele>1050.0</ele><time>2026-04-11T11:42:06.999Z</time></trkpt><trkpt lat="40.04966824735389" lon="9.455981645250755"><ele>1050.0</ele><time>2026-04-11T11:42:07.999Z</time></trkpt><trkpt lat="40.04975192515318" lon="9.45603598301624"><ele>1050.0</ele><time>2026-04-11T11:42:08.999Z</time></trkpt><trkpt lat="40.04984233959647" lon="9.456100375888878"><ele>1050.0</ele><time>2026-04-11T11:42:09.999Z</time></trkpt><trkpt lat="40.04993161791532" lon="9.456171848182182"><ele>1050.0</ele><time>2026-04-11T11:42:10.999Z</time></trkpt><trkpt lat="40.05002037396536" lon="9.456251200261422"><ele>1050.0</ele><time>2026-04-11T11:42:11.999Z</time></trkpt><trkpt lat="40.05010308318547" lon="9.456346002254968"><ele>1050.0</ele><time>2026-04-11T11:42:12.999Z</time></trkpt><trkpt lat="40.05017271195923" lon="9.456449079183248"><ele>1050.0</ele><time>2026-04-11T11:42:13.999Z</time></trkpt><trkpt lat="40.050235488127015" lon="9.456553105758932"><ele>1050.8</ele><time>2026-04-11T11:42:14.999Z</time></trkpt><trkpt lat="40.05030249684676" lon="9.456653183735462"><ele>1051.6</ele><time>2026-04-11T11:42:15.999Z</time></trkpt><trkpt lat="40.05037115985844" lon="9.456742463522417"><ele>1052.4</ele><time>2026-04-11T11:42:16.999Z</time></trkpt><trkpt lat="40.05044614136858" lon="9.456825007326273"><ele>1053.2</ele><time>2026-04-11T11:42:17.999Z</time></trkpt><trkpt lat="40.05052261944221" lon="9.456900312598881"><ele>1054.0</ele><time>2026-04-11T11:42:18.999Z</time></trkpt><trkpt lat="40.05059950571425" lon="9.456972248717664"><ele>1054.0</ele><time>2026-04-11T11:42:19.999Z</time></trkpt><trkpt lat="40.05067206078002" lon="9.457039333877129"><ele>1054.0</ele><time>2026-04-11T11:42:20.999Z</time></trkpt><trkpt lat="40.05083769148468" lon="9.457160334159818"><ele>1054.0</ele><time>2026-04-11T11:42:22.999Z</time></trkpt><trkpt lat="40.05093161717485" lon="9.457190113676473"><ele>1054.0</ele><time>2026-04-11T11:42:23.999Z</time></trkpt><trkpt lat="40.05102884386001" lon="9.457194965763378"><ele>1054.4</ele><time>2026-04-11T11:42:24.999Z</time></trkpt><trkpt lat="40.05113147898059" lon="9.457184793212045"><ele>1054.8000000000002</ele><time>2026-04-11T11:42:25.999Z</time></trkpt><trkpt lat="40.051236178500595" lon="9.457159511029142"><ele>1055.1999999999998</ele><time>2026-04-11T11:42:26.999Z</time></trkpt><trkpt lat="40.051346110469574" lon="9.457129999940635"><ele>1055.6</ele><time>2026-04-11T11:42:27.999Z</time></trkpt><trkpt lat="40.05146584113186" lon="9.457106937955453"><ele>1056.0</ele><time>2026-04-11T11:42:28.999Z</time></trkpt><trkpt lat="40.05159002924428" lon="9.457095441677112"><ele>1057.75</ele><time>2026-04-11T11:42:29.999Z</time></trkpt><trkpt lat="40.05171714231626" lon="9.457096468251155"><ele>1059.5</ele><time>2026-04-11T11:42:30.999Z</time></trkpt><trkpt lat="40.05184480005262" lon="9.45709433178264"><ele>1061.25</ele><time>2026-04-11T11:42:32Z</time></trkpt><trkpt lat="40.051969038154105" lon="9.45708986859366"><ele>1063.0</ele><time>2026-04-11T11:42:33Z</time></trkpt><trkpt lat="40.052095374324836" lon="9.457083823913312"><ele>1063.0</ele><time>2026-04-11T11:42:34Z</time></trkpt><trkpt lat="40.05221681737848" lon="9.457083781611622"><ele>1063.0</ele><time>2026-04-11T11:42:35Z</time></trkpt><trkpt lat="40.052320252426135" lon="9.457090398119151"><ele>1063.0</ele><time>2026-04-11T11:42:36Z</time></trkpt><trkpt lat="40.05241818964445" lon="9.45710641872064"><ele>1063.0</ele><time>2026-04-11T11:42:37Z</time></trkpt><trkpt lat="40.05250862679633" lon="9.457127195030669"><ele>1063.0</ele><time>2026-04-11T11:42:38Z</time></trkpt><trkpt lat="40.05259144938142" lon="9.457151533534423"><ele>1063.8</ele><time>2026-04-11T11:42:39Z</time></trkpt><trkpt lat="40.0526655183649" lon="9.457177676008392"><ele>1064.6</ele><time>2026-04-11T11:42:40Z</time></trkpt><trkpt lat="40.05273740846789" lon="9.457205683513028"><ele>1065.4</ele><time>2026-04-11T11:42:41Z</time></trkpt><trkpt lat="40.052800437142714" lon="9.45723066054111"><ele>1066.2</ele><time>2026-04-11T11:42:42Z</time></trkpt><trkpt lat="40.05294516197716" lon="9.457289597128213"><ele>1067.0</ele><time>2026-04-11T11:42:45Z</time></trkpt><trkpt lat="40.053053958847705" lon="9.457298049597872"><ele>1067.0</ele><time>2026-04-11T11:43:46.999Z</time></trkpt><trkpt lat="40.053250338516605" lon="9.457302499624664"><ele>1067.0</ele><time>2026-04-11T11:43:49.999Z</time></trkpt><trkpt lat="40.05333915497038" lon="9.457288333081262"><ele>1067.0</ele><time>2026-04-11T11:43:50.999Z</time></trkpt><trkpt lat="40.053429593858105" lon="9.457286455328"><ele>1067.0</ele><time>2026-04-11T11:43:51.999Z</time></trkpt><trkpt lat="40.05352199255254" lon="9.457276721269588"><ele>1067.0</ele><time>2026-04-11T11:43:52.999Z</time></trkpt><trkpt lat="40.05361694950978" lon="9.457265723886758"><ele>1067.0</ele><time>2026-04-11T11:43:53.999Z</time></trkpt><trkpt lat="40.053708498754744" lon="9.457259369832606"><ele>1067.0</ele><time>2026-04-11T11:43:54.999Z</time></trkpt><trkpt lat="40.05379870925115" lon="9.457268228628298"><ele>1067.0</ele><time>2026-04-11T11:43:55.999Z</time></trkpt><trkpt lat="40.05388998570277" lon="9.457287244743517"><ele>1067.0</ele><time>2026-04-11T11:43:56.999Z</time></trkpt><trkpt lat="40.05398923365793" lon="9.457309246101113"><ele>1067.0</ele><time>2026-04-11T11:43:57.999Z</time></trkpt><trkpt lat="40.05409032165012" lon="9.457328116007446"><ele>1067.0</ele><time>2026-04-11T11:43:58.999Z</time></trkpt><trkpt lat="40.0541871349163" lon="9.457342453118793"><ele>1067.0</ele><time>2026-04-11T11:43:59.999Z</time></trkpt><trkpt lat="40.054289950145986" lon="9.457337935453165"><ele>1067.0</ele><time>2026-04-11T11:44:00.999Z</time></trkpt><trkpt lat="40.05439013464972" lon="9.457311448231662"><ele>1067.0</ele><time>2026-04-11T11:44:01.999Z</time></trkpt><trkpt lat="40.054488369492695" lon="9.457268051566155"><ele>1067.6</ele><time>2026-04-11T11:44:02.999Z</time></trkpt><trkpt lat="40.05458429525221" lon="9.457227282699755"><ele>1068.2</ele><time>2026-04-11T11:44:03.999Z</time></trkpt><trkpt lat="40.05467936872376" lon="9.457173204935636"><ele>1068.8</ele><time>2026-04-11T11:44:04.999Z</time></trkpt><trkpt lat="40.054768434895735" lon="9.457131340281537"><ele>1069.4</ele><time>2026-04-11T11:44:05.999Z</time></trkpt><trkpt lat="40.054862238518986" lon="9.457106908062137"><ele>1070.0</ele><time>2026-04-11T11:44:06.999Z</time></trkpt><trkpt lat="40.05496109969916" lon="9.45709652203246"><ele>1070.3333333333335</ele><time>2026-04-11T11:44:07.999Z</time></trkpt><trkpt lat="40.05518180005779" lon="9.457098306410352"><ele>1070.6666666666667</ele><time>2026-04-11T11:44:09.999Z</time></trkpt><trkpt lat="40.055294221505235" lon="9.457114938568267"><ele>1071.0</ele><time>2026-04-11T11:44:10.999Z</time></trkpt><trkpt lat="40.055423428879394" lon="9.457129011952293"><ele>1071.75</ele><time>2026-04-11T11:44:11.999Z</time></trkpt><trkpt lat="40.055556292376124" lon="9.457150310043602"><ele>1072.5</ele><time>2026-04-11T11:44:12.999Z</time></trkpt><trkpt lat="40.055680023205355" lon="9.457184996275409"><ele>1073.25</ele><time>2026-04-11T11:44:13.999Z</time></trkpt><trkpt lat="40.05580144139686" lon="9.457221065968096"><ele>1074.0</ele><time>2026-04-11T11:44:14.999Z</time></trkpt><trkpt lat="40.05592997095667" lon="9.45725400053183"><ele>1074.5</ele><time>2026-04-11T11:44:15.999Z</time></trkpt><trkpt lat="40.05605956992192" lon="9.45729169321221"><ele>1075.0</ele><time>2026-04-11T11:44:16.999Z</time></trkpt><trkpt lat="40.05619108613454" lon="9.457335566989961"><ele>1075.5</ele><time>2026-04-11T11:44:17.999Z</time></trkpt><trkpt lat="40.05632174859753" lon="9.457379270107067"><ele>1076.0</ele><time>2026-04-11T11:44:18.999Z</time></trkpt><trkpt lat="40.05645308359015" lon="9.457419909094968"><ele>1076.0</ele><time>2026-04-11T11:44:19.999Z</time></trkpt><trkpt lat="40.05658334248892" lon="9.457457346396104"><ele>1076.0</ele><time>2026-04-11T11:44:20.999Z</time></trkpt><trkpt lat="40.05671632453141" lon="9.45749933493599"><ele>1076.0</ele><time>2026-04-11T11:44:21.999Z</time></trkpt><trkpt lat="40.05684556598858" lon="9.457542000227578"><ele>1076.0</ele><time>2026-04-11T11:44:22.999Z</time></trkpt><trkpt lat="40.05697582350038" lon="9.457580858042713"><ele>1077.0</ele><time>2026-04-11T11:44:23.999Z</time></trkpt><trkpt lat="40.05710880668146" lon="9.45762658685278"><ele>1078.0</ele><time>2026-04-11T11:44:24.999Z</time></trkpt><trkpt lat="40.057243434564775" lon="9.457665038966793"><ele>1079.0</ele><time>2026-04-11T11:44:25.999Z</time></trkpt><trkpt lat="40.05737675654944" lon="9.45769943229951"><ele>1080.0</ele><time>2026-04-11T11:44:26.999Z</time></trkpt><trkpt lat="40.057513602588685" lon="9.457731233967658"><ele>1080.3333333333333</ele><time>2026-04-11T11:44:27.999Z</time></trkpt><trkpt lat="40.05765410592707" lon="9.457751749302698"><ele>1080.6666666666665</ele><time>2026-04-11T11:44:28.999Z</time></trkpt><trkpt lat="40.057932858089984" lon="9.457757874774193"><ele>1081.0</ele><time>2026-04-11T11:44:30.999Z</time></trkpt><trkpt lat="40.05807647074055" lon="9.457742986231995"><ele>1081.0</ele><time>2026-04-11T11:44:31.999Z</time></trkpt><trkpt lat="40.05821660441476" lon="9.457714066144048"><ele>1081.0</ele><time>2026-04-11T11:44:32.999Z</time></trkpt><trkpt lat="40.0583555206883" lon="9.457679961406582"><ele>1081.0</ele><time>2026-04-11T11:44:33.999Z</time></trkpt><trkpt lat="40.05849605620596" lon="9.457651535545605"><ele>1081.0</ele><time>2026-04-11T11:44:34.999Z</time></trkpt><trkpt lat="40.05863969007342" lon="9.457640517029812"><ele>1082.0</ele><time>2026-04-11T11:44:35.999Z</time></trkpt><trkpt lat="40.058771766461625" lon="9.457632755841303"><ele>1083.0</ele><time>2026-04-11T11:44:36.999Z</time></trkpt><trkpt lat="40.058905387171606" lon="9.457647145022957"><ele>1084.0</ele><time>2026-04-11T11:44:38Z</time></trkpt><trkpt lat="40.05903862932658" lon="9.457681335002652"><ele>1085.0</ele><time>2026-04-11T11:44:39Z</time></trkpt><trkpt lat="40.0591672046912" lon="9.457716371910397"><ele>1087.0</ele><time>2026-04-11T11:44:40Z</time></trkpt><trkpt lat="40.05928479219841" lon="9.457747054232446"><ele>1089.0</ele><time>2026-04-11T11:44:41Z</time></trkpt><trkpt lat="40.059398819080506" lon="9.457781903027307"><ele>1091.0</ele><time>2026-04-11T11:44:42Z</time></trkpt><trkpt lat="40.05950749502357" lon="9.4578139971956"><ele>1093.0</ele><time>2026-04-11T11:44:43Z</time></trkpt><trkpt lat="40.05961544622731" lon="9.457845294865558"><ele>1093.0</ele><time>2026-04-11T11:44:44Z</time></trkpt><trkpt lat="40.05971966970296" lon="9.457892731074585"><ele>1093.0</ele><time>2026-04-11T11:44:45Z</time></trkpt><trkpt lat="40.05980220115334" lon="9.457898822758892"><ele>1093.0</ele><time>2026-04-11T11:44:46Z</time></trkpt><trkpt lat="40.05987978685281" lon="9.45791735719045"><ele>1093.0</ele><time>2026-04-11T11:44:47Z</time></trkpt><trkpt lat="40.059951114360516" lon="9.457923352002975"><ele>1093.0</ele><time>2026-04-11T11:44:48Z</time></trkpt><trkpt lat="40.06001547592514" lon="9.457910387718643"><ele>1093.0</ele><time>2026-04-11T11:44:49Z</time></trkpt><trkpt lat="40.06007628868387" lon="9.457885262316381"><ele>1094.1666666666665</ele><time>2026-04-11T11:44:50Z</time></trkpt><trkpt lat="40.060215902615155" lon="9.457848396624366"><ele>1095.3333333333333</ele><time>2026-04-11T11:44:52Z</time></trkpt><trkpt lat="40.06029476125848" lon="9.457841804885636"><ele>1096.5</ele><time>2026-04-11T11:44:53Z</time></trkpt><trkpt lat="40.06036965085424" lon="9.457844734976876"><ele>1097.6666666666667</ele><time>2026-04-11T11:44:54Z</time></trkpt><trkpt lat="40.06043920580145" lon="9.457853988734207"><ele>1098.8333333333335</ele><time>2026-04-11T11:44:55Z</time></trkpt><trkpt lat="40.06051302865436" lon="9.457864826496854"><ele>1100.0</ele><time>2026-04-11T11:44:56Z</time></trkpt><trkpt lat="40.06057530564013" lon="9.457887062453823"><ele>1100.0</ele><time>2026-04-11T11:44:57Z</time></trkpt><trkpt lat="40.060637018144895" lon="9.457918341090553"><ele>1100.0</ele><time>2026-04-11T11:44:58Z</time></trkpt><trkpt lat="40.06069312599061" lon="9.457974187040486"><ele>1100.0</ele><time>2026-04-11T11:44:59Z</time></trkpt><trkpt lat="40.06075378871252" lon="9.45803687873884"><ele>1100.0</ele><time>2026-04-11T11:45:00Z</time></trkpt><trkpt lat="40.06081164679791" lon="9.458090655946718"><ele>1100.0</ele><time>2026-04-11T11:45:01Z</time></trkpt><trkpt lat="40.06092028644933" lon="9.458157994600748"><ele>1100.0</ele><time>2026-04-11T11:45:03Z</time></trkpt><trkpt lat="40.06105010515681" lon="9.458197754825024"><ele>1099.4285714285716</ele><time>2026-04-11T11:45:05Z</time></trkpt><trkpt lat="40.061129306947414" lon="9.458221099821166"><ele>1098.857142857143</ele><time>2026-04-11T11:45:06Z</time></trkpt><trkpt lat="40.06119907771821" lon="9.45825860943303"><ele>1098.2857142857142</ele><time>2026-04-11T11:45:07Z</time></trkpt><trkpt lat="40.06126400471249" lon="9.458312495608292"><ele>1097.7142857142858</ele><time>2026-04-11T11:45:08Z</time></trkpt><trkpt lat="40.061322632477385" lon="9.458364663342124"><ele>1097.142857142857</ele><time>2026-04-11T11:45:09Z</time></trkpt><trkpt lat="40.06138696341258" lon="9.458406372611512"><ele>1096.5714285714287</ele><time>2026-04-11T11:45:10Z</time></trkpt><trkpt lat="40.0614467823608" lon="9.458442385741355"><ele>1096.0</ele><time>2026-04-11T11:45:11Z</time></trkpt><trkpt lat="40.06158517848638" lon="9.458603228699987"><ele>1094.0</ele><time>2026-04-11T11:45:14Z</time></trkpt><trkpt lat="40.061667561049546" lon="9.458687680253723"><ele>1092.0</ele><time>2026-04-11T11:45:16Z</time></trkpt><trkpt lat="40.06174942355608" lon="9.45863919125208"><ele>1090.0</ele><time>2026-04-11T11:45:18Z</time></trkpt><trkpt lat="40.061820201537266" lon="9.458533006428908"><ele>1088.0</ele><time>2026-04-11T11:45:20Z</time></trkpt><trkpt lat="40.06186940798428" lon="9.458480841824233"><ele>1086.0</ele><time>2026-04-11T11:45:21Z</time></trkpt><trkpt lat="40.061985638948165" lon="9.458432293087705"><ele>1086.0</ele><time>2026-04-11T11:45:23Z</time></trkpt><trkpt lat="40.06206678530738" lon="9.458428305176714"><ele>1086.0</ele><time>2026-04-11T11:45:24Z</time></trkpt><trkpt lat="40.06215567870357" lon="9.458411551659294"><ele>1086.0</ele><time>2026-04-11T11:45:25Z</time></trkpt><trkpt lat="40.062233011305985" lon="9.458394403472264"><ele>1086.0</ele><time>2026-04-11T11:45:26Z</time></trkpt><trkpt lat="40.062306555759584" lon="9.458382493057986"><ele>1086.0</ele><time>2026-04-11T11:45:27Z</time></trkpt><trkpt lat="40.06237315474341" lon="9.458386106946213"><ele>1086.0</ele><time>2026-04-11T11:45:28Z</time></trkpt><trkpt lat="40.062439541270635" lon="9.45839941447845"><ele>1084.2</ele><time>2026-04-11T11:45:29Z</time></trkpt><trkpt lat="40.06251841785915" lon="9.458448465077135"><ele>1082.3999999999999</ele><time>2026-04-11T11:45:30Z</time></trkpt><trkpt lat="40.06262044148448" lon="9.458485432004053"><ele>1080.6</ele><time>2026-04-11T11:45:32Z</time></trkpt><trkpt lat="40.062758342296014" lon="9.4585327291356"><ele>1078.8</ele><time>2026-04-11T11:45:34Z</time></trkpt><trkpt lat="40.06283237268457" lon="9.458548636056388"><ele>1077.0</ele><time>2026-04-11T11:45:35Z</time></trkpt><trkpt lat="40.062905492396595" lon="9.458567042966141"><ele>1077.0</ele><time>2026-04-11T11:45:36Z</time></trkpt><trkpt lat="40.063027701620186" lon="9.458553801690003"><ele>1077.0</ele><time>2026-04-11T11:45:38Z</time></trkpt><trkpt lat="40.0630923865231" lon="9.458534521840198"><ele>1077.0</ele><time>2026-04-11T11:45:39Z</time></trkpt><trkpt lat="40.063215498820846" lon="9.458530431362847"><ele>1077.0</ele><time>2026-04-11T11:45:41Z</time></trkpt><trkpt lat="40.06333988009346" lon="9.458545580384564"><ele>1077.0</ele><time>2026-04-11T11:45:43Z</time></trkpt><trkpt lat="40.06340305478719" lon="9.458525323160663"><ele>1075.6</ele><time>2026-04-11T11:45:44Z</time></trkpt><trkpt lat="40.06350809847813" lon="9.458472699637293"><ele>1074.2</ele><time>2026-04-11T11:45:46Z</time></trkpt><trkpt lat="40.063609554212604" lon="9.458512663039452"><ele>1072.8</ele><time>2026-04-11T11:45:48Z</time></trkpt><trkpt lat="40.06369608149753" lon="9.458603740234048"><ele>1071.4</ele><time>2026-04-11T11:45:50Z</time></trkpt><trkpt lat="40.06379825470585" lon="9.458585115132365"><ele>1070.0</ele><time>2026-04-11T11:45:52Z</time></trkpt><trkpt lat="40.063872699500784" lon="9.45848594153518"><ele>1070.0</ele><time>2026-04-11T11:45:54Z</time></trkpt><trkpt lat="40.06407003216676" lon="9.458420421811116"><ele>1070.0</ele><time>2026-04-11T11:45:57Z</time></trkpt><trkpt lat="40.06413910970986" lon="9.458434949720301"><ele>1070.0</ele><time>2026-04-11T11:45:58Z</time></trkpt><trkpt lat="40.06420960296232" lon="9.458448327804081"><ele>1070.0</ele><time>2026-04-11T11:45:59Z</time></trkpt><trkpt lat="40.064280490692326" lon="9.458459539309217"><ele>1070.0</ele><time>2026-04-11T11:46:00Z</time></trkpt><trkpt lat="40.06435366451604" lon="9.458489521059498"><ele>1069.1666666666667</ele><time>2026-04-11T11:46:01Z</time></trkpt><trkpt lat="40.06442755889998" lon="9.45852670967079"><ele>1068.3333333333335</ele><time>2026-04-11T11:46:02Z</time></trkpt><trkpt lat="40.06449777513779" lon="9.458559436316925"><ele>1067.5</ele><time>2026-04-11T11:46:03Z</time></trkpt><trkpt lat="40.0645728349039" lon="9.458599037432728"><ele>1066.6666666666667</ele><time>2026-04-11T11:46:04Z</time></trkpt><trkpt lat="40.06465975006043" lon="9.458640969701735"><ele>1065.8333333333333</ele><time>2026-04-11T11:46:05Z</time></trkpt><trkpt lat="40.06475392847222" lon="9.458678140649706"><ele>1065.0</ele><time>2026-04-11T11:46:06Z</time></trkpt><trkpt lat="40.064849013078124" lon="9.458720201845681"><ele>1065.0</ele><time>2026-04-11T11:46:07Z</time></trkpt><trkpt lat="40.06494560966873" lon="9.458765451033658"><ele>1065.0</ele><time>2026-04-11T11:46:08Z</time></trkpt><trkpt lat="40.06503533097356" lon="9.45880818362567"><ele>1065.0</ele><time>2026-04-11T11:46:09Z</time></trkpt><trkpt lat="40.065116524563315" lon="9.458843438091925"><ele>1065.0</ele><time>2026-04-11T11:46:10Z</time></trkpt><trkpt lat="40.06519457430479" lon="9.45888318906311"><ele>1065.0</ele><time>2026-04-11T11:46:11Z</time></trkpt><trkpt lat="40.065260758363486" lon="9.458919188167766"><ele>1065.0</ele><time>2026-04-11T11:46:12Z</time></trkpt><trkpt lat="40.06532395140283" lon="9.45900120818621"><ele>1065.2</ele><time>2026-04-11T11:46:14Z</time></trkpt><trkpt lat="40.065325944725096" lon="9.45910646935259"><ele>1065.4</ele><time>2026-04-11T11:46:16Z</time></trkpt><trkpt lat="40.06527034470713" lon="9.459328540281374"><ele>1065.6</ele><time>2026-04-11T11:46:19.999Z</time></trkpt><trkpt lat="40.06534669023927" lon="9.459428412344565"><ele>1065.8</ele><time>2026-04-11T11:46:21.999Z</time></trkpt><trkpt lat="40.065414663540814" lon="9.45943921177707"><ele>1066.0</ele><time>2026-04-11T11:46:22.999Z</time></trkpt><trkpt lat="40.06552922645866" lon="9.459489049650182"><ele>1066.0</ele><time>2026-04-11T11:46:24.999Z</time></trkpt><trkpt lat="40.065633724514626" lon="9.459527928027935"><ele>1066.0</ele><time>2026-04-11T11:46:26.999Z</time></trkpt><trkpt lat="40.06574962042549" lon="9.459530427251858"><ele>1066.0</ele><time>2026-04-11T11:46:28.999Z</time></trkpt><trkpt lat="40.06581827561455" lon="9.459531031575953"><ele>1066.0</ele><time>2026-04-11T11:46:29.999Z</time></trkpt><trkpt lat="40.06588604961745" lon="9.459544927878726"><ele>1066.0</ele><time>2026-04-11T11:46:30.999Z</time></trkpt><trkpt lat="40.0659635260934" lon="9.459562514104292"><ele>1066.0</ele><time>2026-04-11T11:46:31.999Z</time></trkpt><trkpt lat="40.066045075198055" lon="9.459577207062349"><ele>1063.6666666666665</ele><time>2026-04-11T11:46:32.999Z</time></trkpt><trkpt lat="40.066118359620816" lon="9.459576126265814"><ele>1061.3333333333333</ele><time>2026-04-11T11:46:33.999Z</time></trkpt><trkpt lat="40.06618741941066" lon="9.459557650949712"><ele>1059.0</ele><time>2026-04-11T11:46:34.999Z</time></trkpt><trkpt lat="40.06625644721552" lon="9.45954190155739"><ele>1056.6666666666667</ele><time>2026-04-11T11:46:35.999Z</time></trkpt><trkpt lat="40.06632028914899" lon="9.459533887479257"><ele>1054.3333333333335</ele><time>2026-04-11T11:46:36.999Z</time></trkpt><trkpt lat="40.06646452058192" lon="9.459534646013443"><ele>1052.0</ele><time>2026-04-11T11:46:38.999Z</time></trkpt><trkpt lat="40.066548290423846" lon="9.459521692753777"><ele>1050.5</ele><time>2026-04-11T11:46:39.999Z</time></trkpt><trkpt lat="40.06663380837118" lon="9.459498763232261"><ele>1049.0</ele><time>2026-04-11T11:46:40.999Z</time></trkpt><trkpt lat="40.066722604902886" lon="9.459485079484951"><ele>1047.5</ele><time>2026-04-11T11:46:41.999Z</time></trkpt><trkpt lat="40.066815327925106" lon="9.459487858297793"><ele>1046.0</ele><time>2026-04-11T11:46:42.999Z</time></trkpt><trkpt lat="40.06690217202006" lon="9.459489086753358"><ele>1044.5</ele><time>2026-04-11T11:46:44Z</time></trkpt><trkpt lat="40.066986843136775" lon="9.459489347483323"><ele>1043.0</ele><time>2026-04-11T11:46:45Z</time></trkpt><trkpt lat="40.06707129068443" lon="9.459487220605816"><ele>1043.0</ele><time>2026-04-11T11:46:46Z</time></trkpt><trkpt lat="40.067148087692246" lon="9.459482905768308"><ele>1043.0</ele><time>2026-04-11T11:46:47Z</time></trkpt><trkpt lat="40.06722188331885" lon="9.459466302552343"><ele>1043.0</ele><time>2026-04-11T11:46:48Z</time></trkpt><trkpt lat="40.06729458103915" lon="9.459435852251916"><ele>1043.0</ele><time>2026-04-11T11:46:49Z</time></trkpt><trkpt lat="40.06735714493365" lon="9.459394860937469"><ele>1043.0</ele><time>2026-04-11T11:46:50Z</time></trkpt><trkpt lat="40.0674700381768" lon="9.459388470103654"><ele>1043.0</ele><time>2026-04-11T11:46:52Z</time></trkpt><trkpt lat="40.06755189799156" lon="9.45946515835999"><ele>1043.0</ele><time>2026-04-11T11:46:54Z</time></trkpt><trkpt lat="40.06763806495576" lon="9.459576657579925"><ele>1043.0</ele><time>2026-04-11T11:46:56Z</time></trkpt><trkpt lat="40.06769783264741" lon="9.459602600917663"><ele>1043.0</ele><time>2026-04-11T11:46:57Z</time></trkpt><trkpt lat="40.06781514345024" lon="9.459565158699798"><ele>1043.0</ele><time>2026-04-11T11:46:59Z</time></trkpt><trkpt lat="40.06801819321386" lon="9.459494795255907"><ele>1043.0</ele><time>2026-04-11T11:47:02Z</time></trkpt><trkpt lat="40.06809669747301" lon="9.459499479859822"><ele>1043.0</ele><time>2026-04-11T11:47:03Z</time></trkpt><trkpt lat="40.068178747139555" lon="9.459502152868561"><ele>1043.0</ele><time>2026-04-11T11:47:04Z</time></trkpt><trkpt lat="40.06828141587683" lon="9.459502459439015"><ele>1043.0</ele><time>2026-04-11T11:47:05Z</time></trkpt><trkpt lat="40.068384647386765" lon="9.459513996401908"><ele>1043.0</ele><time>2026-04-11T11:47:06Z</time></trkpt><trkpt lat="40.06847632351292" lon="9.459535681608935"><ele>1042.5714285714287</ele><time>2026-04-11T11:47:07Z</time></trkpt><trkpt lat="40.06855729702406" lon="9.459562439157935"><ele>1042.142857142857</ele><time>2026-04-11T11:47:08Z</time></trkpt><trkpt lat="40.06863133436363" lon="9.459586268512776"><ele>1041.7142857142858</ele><time>2026-04-11T11:47:09Z</time></trkpt><trkpt lat="40.068701372396404" lon="9.459597850485158"><ele>1041.2857142857142</ele><time>2026-04-11T11:47:10Z</time></trkpt><trkpt lat="40.06877382684649" lon="9.459596493045314"><ele>1040.857142857143</ele><time>2026-04-11T11:47:11Z</time></trkpt><trkpt lat="40.06884388550433" lon="9.459597684780585"><ele>1040.4285714285716</ele><time>2026-04-11T11:47:12Z</time></trkpt><trkpt lat="40.06891107604777" lon="9.459610181388273"><ele>1040.0</ele><time>2026-04-11T11:47:13Z</time></trkpt><trkpt lat="40.06897961609859" lon="9.459632750535944"><ele>1040.5</ele><time>2026-04-11T11:47:14Z</time></trkpt><trkpt lat="40.069051090696995" lon="9.459653921276725"><ele>1041.0</ele><time>2026-04-11T11:47:15Z</time></trkpt><trkpt lat="40.069121529660194" lon="9.459665429551713"><ele>1041.5</ele><time>2026-04-11T11:47:16Z</time></trkpt><trkpt lat="40.06919130168187" lon="9.459673888446535"><ele>1042.0</ele><time>2026-04-11T11:47:17Z</time></trkpt><trkpt lat="40.0693179389882" lon="9.45964581561555"><ele>1042.5</ele><time>2026-04-11T11:47:19Z</time></trkpt><trkpt lat="40.069389811380134" lon="9.45962451243972"><ele>1043.0</ele><time>2026-04-11T11:47:20Z</time></trkpt><trkpt lat="40.06955525030354" lon="9.45960266422262"><ele>1043.0</ele><time>2026-04-11T11:47:22Z</time></trkpt><trkpt lat="40.06963579531947" lon="9.459606859085126"><ele>1043.0</ele><time>2026-04-11T11:47:23Z</time></trkpt><trkpt lat="40.06971724780829" lon="9.459614320613543"><ele>1043.0</ele><time>2026-04-11T11:47:24Z</time></trkpt><trkpt lat="40.069803540974114" lon="9.459620781243668"><ele>1043.0</ele><time>2026-04-11T11:47:25Z</time></trkpt><trkpt lat="40.06988917774688" lon="9.459611966569822"><ele>1043.0</ele><time>2026-04-11T11:47:26Z</time></trkpt><trkpt lat="40.06997198023638" lon="9.459590977196887"><ele>1043.0</ele><time>2026-04-11T11:47:27Z</time></trkpt><trkpt lat="40.070060333962246" lon="9.45956385916016"><ele>1041.1666666666667</ele><time>2026-04-11T11:47:28Z</time></trkpt><trkpt lat="40.07014502690636" lon="9.459542705605406"><ele>1039.3333333333335</ele><time>2026-04-11T11:47:29Z</time></trkpt><trkpt lat="40.07023193578684" lon="9.459515656110176"><ele>1037.5</ele><time>2026-04-11T11:47:30Z</time></trkpt><trkpt lat="40.070313235557414" lon="9.459475216224705"><ele>1035.6666666666667</ele><time>2026-04-11T11:47:31Z</time></trkpt><trkpt lat="40.070388017420214" lon="9.459433400125025"><ele>1033.8333333333333</ele><time>2026-04-11T11:47:32Z</time></trkpt><trkpt lat="40.070463694212854" lon="9.459396109453108"><ele>1032.0</ele><time>2026-04-11T11:47:33Z</time></trkpt><trkpt lat="40.070545160053" lon="9.459354797809272"><ele>1032.0</ele><time>2026-04-11T11:47:34Z</time></trkpt><trkpt lat="40.070635373535275" lon="9.459305174564735"><ele>1032.0</ele><time>2026-04-11T11:47:35Z</time></trkpt><trkpt lat="40.07072961174142" lon="9.459252189258422"><ele>1032.0</ele><time>2026-04-11T11:47:36Z</time></trkpt><trkpt lat="40.07081619050838" lon="9.459214407398933"><ele>1032.0</ele><time>2026-04-11T11:47:37Z</time></trkpt><trkpt lat="40.07090435412081" lon="9.459200269644374"><ele>1032.0</ele><time>2026-04-11T11:47:38Z</time></trkpt><trkpt lat="40.07098327569243" lon="9.459187989924079"><ele>1031.4</ele><time>2026-04-11T11:47:39Z</time></trkpt><trkpt lat="40.07106406452824" lon="9.459165721826905"><ele>1030.8000000000002</ele><time>2026-04-11T11:47:40Z</time></trkpt><trkpt lat="40.07114726037136" lon="9.459138970236632"><ele>1030.2</ele><time>2026-04-11T11:47:41Z</time></trkpt><trkpt lat="40.071311558712324" lon="9.45911071876536"><ele>1029.6000000000001</ele><time>2026-04-11T11:47:43Z</time></trkpt><trkpt lat="40.07138743649542" lon="9.459113659606546"><ele>1029.0</ele><time>2026-04-11T11:47:44Z</time></trkpt><trkpt lat="40.071470019149444" lon="9.459121691493142"><ele>1029.0</ele><time>2026-04-11T11:47:45Z</time></trkpt><trkpt lat="40.0715550659271" lon="9.459124061933458"><ele>1029.0</ele><time>2026-04-11T11:47:46Z</time></trkpt><trkpt lat="40.071642716386904" lon="9.45912977599959"><ele>1029.0</ele><time>2026-04-11T11:47:47Z</time></trkpt><trkpt lat="40.07172425754175" lon="9.459128572743289"><ele>1029.0</ele><time>2026-04-11T11:47:48Z</time></trkpt><trkpt lat="40.071795811336806" lon="9.459122670972507"><ele>1029.0</ele><time>2026-04-11T11:47:49Z</time></trkpt><trkpt lat="40.07186683110399" lon="9.459119386049219"><ele>1029.0</ele><time>2026-04-11T11:47:50Z</time></trkpt><trkpt lat="40.07198469802648" lon="9.459124104011964"><ele>1029.0</ele><time>2026-04-11T11:47:52Z</time></trkpt><trkpt lat="40.072101404700355" lon="9.459116408696653"><ele>1029.0</ele><time>2026-04-11T11:47:54Z</time></trkpt><trkpt lat="40.07219422530772" lon="9.459037473306054"><ele>1029.0</ele><time>2026-04-11T11:47:56Z</time></trkpt><trkpt lat="40.072236592344915" lon="9.458915055512975"><ele>1029.0</ele><time>2026-04-11T11:47:58Z</time></trkpt><trkpt lat="40.07223896594696" lon="9.458751632521402"><ele>1029.0</ele><time>2026-04-11T11:48:00Z</time></trkpt><trkpt lat="40.07224380596923" lon="9.458652367225396"><ele>1029.0</ele><time>2026-04-11T11:48:01Z</time></trkpt><trkpt lat="40.072249866362974" lon="9.458559297457887"><ele>1029.0</ele><time>2026-04-11T11:48:02Z</time></trkpt><trkpt lat="40.07227083648765" lon="9.458362640953279"><ele>1029.0</ele><time>2026-04-11T11:48:05Z</time></trkpt><trkpt lat="40.072312702162506" lon="9.45824405665386"><ele>1029.0</ele><time>2026-04-11T11:48:07Z</time></trkpt><trkpt lat="40.072301185887234" lon="9.458162888931046"><ele>1029.0</ele><time>2026-04-11T11:48:08Z</time></trkpt><trkpt lat="40.0723047643146" lon="9.458064686781368"><ele>1029.0</ele><time>2026-04-11T11:48:09Z</time></trkpt><trkpt lat="40.072321929505804" lon="9.457957378584057"><ele>1029.0</ele><time>2026-04-11T11:48:10Z</time></trkpt><trkpt lat="40.072343591063685" lon="9.45785501321817"><ele>1029.0</ele><time>2026-04-11T11:48:11Z</time></trkpt><trkpt lat="40.072377374626825" lon="9.457766459370378"><ele>1029.0</ele><time>2026-04-11T11:48:12Z</time></trkpt><trkpt lat="40.07242758441455" lon="9.457680610688016"><ele>1029.0</ele><time>2026-04-11T11:48:13Z</time></trkpt><trkpt lat="40.0724859662729" lon="9.457611407658396"><ele>1027.2</ele><time>2026-04-11T11:48:14Z</time></trkpt><trkpt lat="40.07256062283793" lon="9.457555120520759"><ele>1025.4</ele><time>2026-04-11T11:48:15Z</time></trkpt><trkpt lat="40.072642038337285" lon="9.457500070441212"><ele>1023.6</ele><time>2026-04-11T11:48:16Z</time></trkpt><trkpt lat="40.07272644714333" lon="9.457460470018699"><ele>1021.8</ele><time>2026-04-11T11:48:17Z</time></trkpt><trkpt lat="40.07281848085438" lon="9.45743622423581"><ele>1020.0</ele><time>2026-04-11T11:48:18Z</time></trkpt><trkpt lat="40.07291359516279" lon="9.45741491692796"><ele>1020.0</ele><time>2026-04-11T11:48:19Z</time></trkpt><trkpt lat="40.073012016694896" lon="9.45739616402232"><ele>1020.0</ele><time>2026-04-11T11:48:20Z</time></trkpt><trkpt lat="40.07311449366113" lon="9.457377398336533"><ele>1020.0</ele><time>2026-04-11T11:48:21Z</time></trkpt><trkpt lat="40.07321442477223" lon="9.45734955344997"><ele>1020.0</ele><time>2026-04-11T11:48:22Z</time></trkpt><trkpt lat="40.07331199304411" lon="9.457304558294732"><ele>1020.0</ele><time>2026-04-11T11:48:23Z</time></trkpt><trkpt lat="40.07349023802654" lon="9.457197119057883"><ele>1019.2</ele><time>2026-04-11T11:48:25Z</time></trkpt><trkpt lat="40.0735655292673" lon="9.457116814326513"><ele>1018.4</ele><time>2026-04-11T11:48:26Z</time></trkpt><trkpt lat="40.073638544612365" lon="9.457025033014142"><ele>1017.5999999999999</ele><time>2026-04-11T11:48:27Z</time></trkpt><trkpt lat="40.07370639850132" lon="9.456925633639065"><ele>1016.8</ele><time>2026-04-11T11:48:28Z</time></trkpt><trkpt lat="40.07376352571483" lon="9.456824053780991"><ele>1016.0</ele><time>2026-04-11T11:48:29Z</time></trkpt><trkpt lat="40.07381892674309" lon="9.456730988835053"><ele>1016.0</ele><time>2026-04-11T11:48:30Z</time></trkpt><trkpt lat="40.073889311969566" lon="9.456647548044451"><ele>1015.9999999999999</ele><time>2026-04-11T11:48:31Z</time></trkpt><trkpt lat="40.07397136138653" lon="9.45658093917297"><ele>1015.9999999999999</ele><time>2026-04-11T11:48:32Z</time></trkpt><trkpt lat="40.0740470838802" lon="9.456503722286831"><ele>1016.0</ele><time>2026-04-11T11:48:33Z</time></trkpt><trkpt lat="40.07411790328098" lon="9.456406068413513"><ele>1016.0</ele><time>2026-04-11T11:48:33.999Z</time></trkpt><trkpt lat="40.07417598917018" lon="9.456298105200306"><ele>1014.7142857142858</ele><time>2026-04-11T11:48:34.999Z</time></trkpt><trkpt lat="40.074224785454284" lon="9.456194789745288"><ele>1013.4285714285713</ele><time>2026-04-11T11:48:35.999Z</time></trkpt><trkpt lat="40.07427141957208" lon="9.456113941757643"><ele>1012.1428571428571</ele><time>2026-04-11T11:48:36.999Z</time></trkpt><trkpt lat="40.0743264941735" lon="9.456066963408974"><ele>1010.8571428571429</ele><time>2026-04-11T11:48:37.999Z</time></trkpt><trkpt lat="40.07439592200498" lon="9.45603134262159"><ele>1009.5714285714287</ele><time>2026-04-11T11:48:38.999Z</time></trkpt><trkpt lat="40.07445408377582" lon="9.45599716823876"><ele>1008.2857142857142</ele><time>2026-04-11T11:48:39.999Z</time></trkpt><trkpt lat="40.07451379841554" lon="9.45595502338015"><ele>1007.0</ele><time>2026-04-11T11:48:40.999Z</time></trkpt><trkpt lat="40.074571706716526" lon="9.455908434203826"><ele>1007.0</ele><time>2026-04-11T11:48:41.999Z</time></trkpt><trkpt lat="40.07462569116957" lon="9.455858090478007"><ele>1007.0</ele><time>2026-04-11T11:48:42.999Z</time></trkpt><trkpt lat="40.074680215218606" lon="9.455816489330173"><ele>1007.0</ele><time>2026-04-11T11:48:43.999Z</time></trkpt><trkpt lat="40.07481608247792" lon="9.455759925452274"><ele>1007.0</ele><time>2026-04-11T11:48:45.999Z</time></trkpt><trkpt lat="40.07488362640566" lon="9.455740563054157"><ele>1007.0</ele><time>2026-04-11T11:48:46.999Z</time></trkpt><trkpt lat="40.07498983966097" lon="9.455699892625685"><ele>1007.1666666666667</ele><time>2026-04-11T11:48:48.999Z</time></trkpt><trkpt lat="40.07509049580222" lon="9.455635122444418"><ele>1007.3333333333334</ele><time>2026-04-11T11:48:51Z</time></trkpt><trkpt lat="40.075149640555885" lon="9.45558481238817"><ele>1007.5</ele><time>2026-04-11T11:48:52Z</time></trkpt><trkpt lat="40.075214501473056" lon="9.455541348616434"><ele>1007.6666666666667</ele><time>2026-04-11T11:48:53Z</time></trkpt><trkpt lat="40.07527700898104" lon="9.455505424704231"><ele>1007.8333333333334</ele><time>2026-04-11T11:48:54Z</time></trkpt><trkpt lat="40.07533598958706" lon="9.455464851805639"><ele>1008.0</ele><time>2026-04-11T11:48:55Z</time></trkpt><trkpt lat="40.075397995439765" lon="9.45542693953613"><ele>1007.1428571428571</ele><time>2026-04-11T11:48:56Z</time></trkpt><trkpt lat="40.075460882971264" lon="9.455388642825538"><ele>1006.2857142857142</ele><time>2026-04-11T11:48:57Z</time></trkpt><trkpt lat="40.07551830155136" lon="9.455351210219025"><ele>1005.4285714285714</ele><time>2026-04-11T11:48:58Z</time></trkpt><trkpt lat="40.07557582760103" lon="9.455300327535214"><ele>1004.5714285714286</ele><time>2026-04-11T11:48:59Z</time></trkpt><trkpt lat="40.075632570235136" lon="9.455245008135899"><ele>1003.7142857142857</ele><time>2026-04-11T11:49:00Z</time></trkpt><trkpt lat="40.07568224743206" lon="9.45518443383295"><ele>1002.8571428571429</ele><time>2026-04-11T11:49:01Z</time></trkpt><trkpt lat="40.07572776790226" lon="9.455122178117342"><ele>1002.0</ele><time>2026-04-11T11:49:02Z</time></trkpt><trkpt lat="40.075806094293824" lon="9.455022492290668"><ele>1002.0</ele><time>2026-04-11T11:49:04Z</time></trkpt><trkpt lat="40.07587420953013" lon="9.454930140242466"><ele>1002.0</ele><time>2026-04-11T11:49:06Z</time></trkpt><trkpt lat="40.07599414374264" lon="9.45481062734334"><ele>1002.0</ele><time>2026-04-11T11:49:08Z</time></trkpt><trkpt lat="40.07605399073513" lon="9.454759027903565"><ele>1002.0</ele><time>2026-04-11T11:49:09Z</time></trkpt><trkpt lat="40.07611327660249" lon="9.454694023821485"><ele>1002.0</ele><time>2026-04-11T11:49:10Z</time></trkpt><trkpt lat="40.076177451483154" lon="9.454620439508567"><ele>1002.0</ele><time>2026-04-11T11:49:11Z</time></trkpt><trkpt lat="40.07624347166464" lon="9.454561366984715"><ele>1002.0</ele><time>2026-04-11T11:49:12Z</time></trkpt><trkpt lat="40.07631391965328" lon="9.454503446678407"><ele>1002.0</ele><time>2026-04-11T11:49:13Z</time></trkpt><trkpt lat="40.07637857270898" lon="9.45445576844233"><ele>1002.0</ele><time>2026-04-11T11:49:14Z</time></trkpt><trkpt lat="40.07648639265769" lon="9.454387795363612"><ele>1002.0</ele><time>2026-04-11T11:49:16Z</time></trkpt><trkpt lat="40.07654657757544" lon="9.454356870261531"><ele>1002.0</ele><time>2026-04-11T11:49:17Z</time></trkpt><trkpt lat="40.07661361657575" lon="9.454325378284667"><ele>1001.0</ele><time>2026-04-11T11:49:18Z</time></trkpt><trkpt lat="40.07668766999675" lon="9.454298057069927"><ele>1000.0</ele><time>2026-04-11T11:49:19Z</time></trkpt><trkpt lat="40.076763594212935" lon="9.45427350764912"><ele>999.0</ele><time>2026-04-11T11:49:20Z</time></trkpt><trkpt lat="40.07683398563973" lon="9.454263510947076"><ele>998.0</ele><time>2026-04-11T11:49:21Z</time></trkpt><trkpt lat="40.07690934931326" lon="9.454269142708139"><ele>997.0</ele><time>2026-04-11T11:49:22Z</time></trkpt><trkpt lat="40.07698093742025" lon="9.454273177354594"><ele>996.0</ele><time>2026-04-11T11:49:23Z</time></trkpt><trkpt lat="40.07705376850804" lon="9.454267077350893"><ele>995.0</ele><time>2026-04-11T11:49:24Z</time></trkpt><trkpt lat="40.07712517826979" lon="9.45425567279228"><ele>995.0000000000001</ele><time>2026-04-11T11:49:25Z</time></trkpt><trkpt lat="40.07719550842777" lon="9.454238440073166"><ele>995.0</ele><time>2026-04-11T11:49:26Z</time></trkpt><trkpt lat="40.07726257574463" lon="9.454205334112558"><ele>995.0</ele><time>2026-04-11T11:49:27Z</time></trkpt><trkpt lat="40.07738032085148" lon="9.454110291591437"><ele>995.0</ele><time>2026-04-11T11:49:29Z</time></trkpt><trkpt lat="40.077446374780514" lon="9.454083175209703"><ele>995.0000000000001</ele><time>2026-04-11T11:49:30Z</time></trkpt><trkpt lat="40.07751064830835" lon="9.45407331870831"><ele>995.0</ele><time>2026-04-11T11:49:31Z</time></trkpt><trkpt lat="40.077581346488124" lon="9.45407009549859"><ele>995.0</ele><time>2026-04-11T11:49:32Z</time></trkpt><trkpt lat="40.077665227051014" lon="9.454061299547197"><ele>995.0</ele><time>2026-04-11T11:49:33Z</time></trkpt><trkpt lat="40.077752830844" lon="9.454033715073797"><ele>995.0</ele><time>2026-04-11T11:49:34Z</time></trkpt><trkpt lat="40.077845058031976" lon="9.453983906439882"><ele>995.0</ele><time>2026-04-11T11:49:35Z</time></trkpt><trkpt lat="40.07793655641338" lon="9.453921816945405"><ele>995.0</ele><time>2026-04-11T11:49:36Z</time></trkpt><trkpt lat="40.07801556458957" lon="9.453863459335091"><ele>995.0</ele><time>2026-04-11T11:49:37Z</time></trkpt><trkpt lat="40.078092792402494" lon="9.45381786648844"><ele>995.0</ele><time>2026-04-11T11:49:38Z</time></trkpt><trkpt lat="40.078178127065364" lon="9.453785894348261"><ele>995.0</ele><time>2026-04-11T11:49:39Z</time></trkpt><trkpt lat="40.0782640183612" lon="9.45375348183363"><ele>995.0</ele><time>2026-04-11T11:49:40Z</time></trkpt><trkpt lat="40.07835342893745" lon="9.45371965782777"><ele>995.0</ele><time>2026-04-11T11:49:41Z</time></trkpt><trkpt lat="40.07844367403448" lon="9.453684685923056"><ele>995.1666666666667</ele><time>2026-04-11T11:49:42Z</time></trkpt><trkpt lat="40.07851599555512" lon="9.453647058183051"><ele>995.3333333333334</ele><time>2026-04-11T11:49:43Z</time></trkpt><trkpt lat="40.07858582355638" lon="9.453616269501131"><ele>995.5</ele><time>2026-04-11T11:49:44Z</time></trkpt><trkpt lat="40.078654781335175" lon="9.453591334418972"><ele>995.6666666666667</ele><time>2026-04-11T11:49:45Z</time></trkpt><trkpt lat="40.078731815969554" lon="9.453567158954808"><ele>995.8333333333334</ele><time>2026-04-11T11:49:46Z</time></trkpt><trkpt lat="40.078813443192125" lon="9.453539004713702"><ele>996.0</ele><time>2026-04-11T11:49:47Z</time></trkpt><trkpt lat="40.078897248833286" lon="9.45350905522833"><ele>996.0</ele><time>2026-04-11T11:49:48Z</time></trkpt><trkpt lat="40.07906189817398" lon="9.453473310170937"><ele>995.9999999999999</ele><time>2026-04-11T11:49:50Z</time></trkpt><trkpt lat="40.07913708184723" lon="9.453461103601647"><ele>995.9999999999999</ele><time>2026-04-11T11:49:51Z</time></trkpt><trkpt lat="40.0792110961685" lon="9.453446663412771"><ele>996.0</ele><time>2026-04-11T11:49:52Z</time></trkpt><trkpt lat="40.07927723967927" lon="9.453451222513223"><ele>996.0</ele><time>2026-04-11T11:49:53Z</time></trkpt><trkpt lat="40.079346536144755" lon="9.453454862118203"><ele>995.8333333333334</ele><time>2026-04-11T11:49:54Z</time></trkpt><trkpt lat="40.079425978546304" lon="9.453457798752591"><ele>995.6666666666667</ele><time>2026-04-11T11:49:55Z</time></trkpt><trkpt lat="40.07950491272855" lon="9.453456495551071"><ele>995.5</ele><time>2026-04-11T11:49:56Z</time></trkpt><trkpt lat="40.07958925258492" lon="9.453447514965402"><ele>995.3333333333334</ele><time>2026-04-11T11:49:57Z</time></trkpt><trkpt lat="40.07967578686556" lon="9.453431442163552"><ele>995.1666666666667</ele><time>2026-04-11T11:49:58Z</time></trkpt><trkpt lat="40.079757524130606" lon="9.45339629684369"><ele>995.0</ele><time>2026-04-11T11:49:59Z</time></trkpt><trkpt lat="40.079835069844165" lon="9.453346054416793"><ele>995.0000000000001</ele><time>2026-04-11T11:50:00Z</time></trkpt><trkpt lat="40.07991286603269" lon="9.453289250253237"><ele>995.0</ele><time>2026-04-11T11:50:01Z</time></trkpt><trkpt lat="40.08000041839107" lon="9.453239434444177"><ele>995.0</ele><time>2026-04-11T11:50:02Z</time></trkpt><trkpt lat="40.0800767492742" lon="9.45319291938589"><ele>995.0</ele><time>2026-04-11T11:50:03Z</time></trkpt><trkpt lat="40.08014862750533" lon="9.453149373817935"><ele>995.0000000000001</ele><time>2026-04-11T11:50:04Z</time></trkpt><trkpt lat="40.08021238859416" lon="9.453097778904993"><ele>995.0</ele><time>2026-04-11T11:50:05Z</time></trkpt><trkpt lat="40.08027367465156" lon="9.453040062261687"><ele>995.0</ele><time>2026-04-11T11:50:06Z</time></trkpt><trkpt lat="40.08032660279672" lon="9.45297020360238"><ele>995.0</ele><time>2026-04-11T11:50:07Z</time></trkpt><trkpt lat="40.08037306276889" lon="9.45288855396038"><ele>995.0</ele><time>2026-04-11T11:50:08Z</time></trkpt><trkpt lat="40.080418654943145" lon="9.452791307646748"><ele>995.0</ele><time>2026-04-11T11:50:09Z</time></trkpt><trkpt lat="40.080489513993726" lon="9.4525780200373"><ele>995.0</ele><time>2026-04-11T11:50:11Z</time></trkpt><trkpt lat="40.08052788077529" lon="9.452469005022065"><ele>994.6666666666667</ele><time>2026-04-11T11:50:12Z</time></trkpt><trkpt lat="40.08057337147061" lon="9.452378642758083"><ele>994.3333333333334</ele><time>2026-04-11T11:50:13Z</time></trkpt><trkpt lat="40.080624659498405" lon="9.452293864871818"><ele>994.0</ele><time>2026-04-11T11:50:14Z</time></trkpt><trkpt lat="40.0806715717624" lon="9.452205621769956"><ele>993.6666666666667</ele><time>2026-04-11T11:50:15Z</time></trkpt><trkpt lat="40.080709085161146" lon="9.452099634042767"><ele>993.3333333333334</ele><time>2026-04-11T11:50:16Z</time></trkpt><trkpt lat="40.08073929351184" lon="9.451982767609287"><ele>993.0</ele><time>2026-04-11T11:50:17Z</time></trkpt><trkpt lat="40.08078141801179" lon="9.451882017666671"><ele>992.0</ele><time>2026-04-11T11:50:18Z</time></trkpt><trkpt lat="40.08083546519061" lon="9.451797874262526"><ele>991.0</ele><time>2026-04-11T11:50:19Z</time></trkpt><trkpt lat="40.08089621231939" lon="9.451719622745376"><ele>990.0</ele><time>2026-04-11T11:50:20Z</time></trkpt><trkpt lat="40.08096011767436" lon="9.451647545697067"><ele>989.0</ele><time>2026-04-11T11:50:21Z</time></trkpt><trkpt lat="40.081012477672964" lon="9.451584077372294"><ele>988.0</ele><time>2026-04-11T11:50:22Z</time></trkpt><trkpt lat="40.08109438672183" lon="9.451515693863046"><ele>987.0</ele><time>2026-04-11T11:50:24Z</time></trkpt><trkpt lat="40.081172316056524" lon="9.451521977509248"><ele>987.0</ele><time>2026-04-11T11:50:26Z</time></trkpt><trkpt lat="40.08127074074628" lon="9.451509770662987"><ele>987.0</ele><time>2026-04-11T11:50:28Z</time></trkpt><trkpt lat="40.08139225739683" lon="9.451472404090598"><ele>987.0</ele><time>2026-04-11T11:50:30Z</time></trkpt><trkpt lat="40.08157787574362" lon="9.451436040945492"><ele>987.0</ele><time>2026-04-11T11:50:33Z</time></trkpt><trkpt lat="40.0816470755172" lon="9.451445713197343"><ele>986.3333333333334</ele><time>2026-04-11T11:50:34Z</time></trkpt><trkpt lat="40.08171302005678" lon="9.451452701105683"><ele>985.6666666666667</ele><time>2026-04-11T11:50:35Z</time></trkpt><trkpt lat="40.081825486122" lon="9.451500024568517"><ele>985.0</ele><time>2026-04-11T11:50:37Z</time></trkpt><trkpt lat="40.08187286173196" lon="9.451557979079563"><ele>984.3333333333334</ele><time>2026-04-11T11:50:38Z</time></trkpt><trkpt lat="40.08191017799166" lon="9.451629191213259"><ele>983.6666666666667</ele><time>2026-04-11T11:50:39Z</time></trkpt><trkpt lat="40.08195768730184" lon="9.451697798018502"><ele>983.0</ele><time>2026-04-11T11:50:40Z</time></trkpt><trkpt lat="40.08201962780956" lon="9.451762517648978"><ele>983.0</ele><time>2026-04-11T11:50:41Z</time></trkpt><trkpt lat="40.082078254346705" lon="9.451811238862568"><ele>983.0</ele><time>2026-04-11T11:50:42Z</time></trkpt><trkpt lat="40.08217848855694" lon="9.4518907752717"><ele>983.0</ele><time>2026-04-11T11:50:44Z</time></trkpt><trkpt lat="40.08226705888596" lon="9.451950341730544"><ele>983.0</ele><time>2026-04-11T11:50:46Z</time></trkpt><trkpt lat="40.08233843696715" lon="9.452018272684088"><ele>983.0</ele><time>2026-04-11T11:50:47.999Z</time></trkpt><trkpt lat="40.08240163347781" lon="9.45208037969217"><ele>981.6666666666667</ele><time>2026-04-11T11:50:49.999Z</time></trkpt><trkpt lat="40.08246273050328" lon="9.452129350328994"><ele>980.3333333333333</ele><time>2026-04-11T11:50:52.999Z</time></trkpt><trkpt lat="40.082768470835724" lon="9.452308363172502"><ele>979.0</ele><time>2026-04-11T11:52:05Z</time></trkpt><trkpt lat="40.08287201090074" lon="9.452361214682933"><ele>979.0</ele><time>2026-04-11T11:52:07Z</time></trkpt><trkpt lat="40.08298454205783" lon="9.452427593038905"><ele>979.0</ele><time>2026-04-11T11:52:09Z</time></trkpt><trkpt lat="40.08308808758353" lon="9.452487118694725"><ele>979.0</ele><time>2026-04-11T11:52:11Z</time></trkpt><trkpt lat="40.08318689508086" lon="9.452548643070505"><ele>979.0</ele><time>2026-04-11T11:52:13Z</time></trkpt><trkpt lat="40.08328585122853" lon="9.452626606964179"><ele>979.3333333333333</ele><time>2026-04-11T11:52:15Z</time></trkpt><trkpt lat="40.083349937430995" lon="9.452662141026915"><ele>979.6666666666666</ele><time>2026-04-11T11:52:16Z</time></trkpt><trkpt lat="40.08341905174437" lon="9.452682688981914"><ele>980.0</ele><time>2026-04-11T11:52:17Z</time></trkpt><trkpt lat="40.08348336659367" lon="9.452690203605979"><ele>980.3333333333333</ele><time>2026-04-11T11:52:18Z</time></trkpt><trkpt lat="40.08359934140906" lon="9.452700220064266"><ele>980.6666666666666</ele><time>2026-04-11T11:52:20Z</time></trkpt><trkpt lat="40.08366511223677" lon="9.452708143273226"><ele>981.0</ele><time>2026-04-11T11:52:21Z</time></trkpt><trkpt lat="40.08373372402092" lon="9.452710249860365"><ele>981.0</ele><time>2026-04-11T11:52:22Z</time></trkpt><trkpt lat="40.083877528520624" lon="9.452736966730619"><ele>980.9999999999999</ele><time>2026-04-11T11:52:24Z</time></trkpt><trkpt lat="40.08395770370191" lon="9.45272483552953"><ele>980.9999999999999</ele><time>2026-04-11T11:52:25Z</time></trkpt><trkpt lat="40.08403687622404" lon="9.452690291809223"><ele>981.0</ele><time>2026-04-11T11:52:26Z</time></trkpt><trkpt lat="40.08411832350668" lon="9.452645279820038"><ele>981.0</ele><time>2026-04-11T11:52:27Z</time></trkpt><trkpt lat="40.08419060412539" lon="9.452595015783116"><ele>980.8</ele><time>2026-04-11T11:52:28Z</time></trkpt><trkpt lat="40.08425375611445" lon="9.452542387187975"><ele>980.5999999999999</ele><time>2026-04-11T11:52:29Z</time></trkpt><trkpt lat="40.08436470671056" lon="9.452498326017261"><ele>980.4</ele><time>2026-04-11T11:52:31Z</time></trkpt><trkpt lat="40.08448977626063" lon="9.45250143338401"><ele>980.2</ele><time>2026-04-11T11:52:33Z</time></trkpt><trkpt lat="40.084556860108954" lon="9.452518094642574"><ele>980.0</ele><time>2026-04-11T11:52:34Z</time></trkpt><trkpt lat="40.084632992744346" lon="9.452527566998375"><ele>980.0000000000001</ele><time>2026-04-11T11:52:35Z</time></trkpt><trkpt lat="40.0847103933966" lon="9.452522192736964"><ele>980.0</ele><time>2026-04-11T11:52:36Z</time></trkpt><trkpt lat="40.08478448381884" lon="9.45250620678383"><ele>980.0</ele><time>2026-04-11T11:52:37Z</time></trkpt><trkpt lat="40.084866048689165" lon="9.452498120284796"><ele>980.0</ele><time>2026-04-11T11:52:38Z</time></trkpt><trkpt lat="40.084940650235225" lon="9.452493117595003"><ele>980.0000000000001</ele><time>2026-04-11T11:52:39Z</time></trkpt><trkpt lat="40.08504007301938" lon="9.45247129241945"><ele>980.0</ele><time>2026-04-11T11:52:41Z</time></trkpt><trkpt lat="40.08512203587673" lon="9.452466601544174"><ele>978.6</ele><time>2026-04-11T11:52:43.999Z</time></trkpt><trkpt lat="40.08521017752706" lon="9.452652700803606"><ele>977.2</ele><time>2026-04-11T11:52:49.999Z</time></trkpt><trkpt lat="40.085256466946625" lon="9.45273890560306"><ele>975.8</ele><time>2026-04-11T11:52:51.999Z</time></trkpt><trkpt lat="40.085346483024914" lon="9.45277807474278"><ele>974.4</ele><time>2026-04-11T11:52:54.999Z</time></trkpt><trkpt lat="40.08543856497926" lon="9.452761358106013"><ele>973.0</ele><time>2026-04-11T11:52:56.999Z</time></trkpt><trkpt lat="40.0855489900024" lon="9.452736961416878"><ele>972.9999999999999</ele><time>2026-04-11T11:52:58.999Z</time></trkpt><trkpt lat="40.08561393340386" lon="9.452728187126993"><ele>973.0</ele><time>2026-04-11T11:52:59.999Z</time></trkpt><trkpt lat="40.08568910831576" lon="9.452722135341034"><ele>973.0</ele><time>2026-04-11T11:53:00.999Z</time></trkpt><trkpt lat="40.08575719113147" lon="9.452718358442858"><ele>973.0</ele><time>2026-04-11T11:53:02Z</time></trkpt><trkpt lat="40.08588080705972" lon="9.452703465819827"><ele>972.9999999999999</ele><time>2026-04-11T11:53:04Z</time></trkpt><trkpt lat="40.08594447936061" lon="9.452701714005062"><ele>973.0</ele><time>2026-04-11T11:53:05Z</time></trkpt><trkpt lat="40.08607541776129" lon="9.45269796741124"><ele>972.8333333333333</ele><time>2026-04-11T11:53:07Z</time></trkpt><trkpt lat="40.08614282226692" lon="9.452709368716153"><ele>972.6666666666666</ele><time>2026-04-11T11:53:08Z</time></trkpt><trkpt lat="40.086262374889245" lon="9.45276656831243"><ele>972.5</ele><time>2026-04-11T11:53:10Z</time></trkpt><trkpt lat="40.08632048358039" lon="9.452808904962444"><ele>972.3333333333333</ele><time>2026-04-11T11:53:11Z</time></trkpt><trkpt lat="40.086396168484214" lon="9.452911511416236"><ele>972.1666666666666</ele><time>2026-04-11T11:53:13Z</time></trkpt><trkpt lat="40.086452632500674" lon="9.45298095080469"><ele>972.0</ele><time>2026-04-11T11:53:15Z</time></trkpt><trkpt lat="40.086547186578166" lon="9.453054692488603"><ele>972.6666666666666</ele><time>2026-04-11T11:53:17Z</time></trkpt><trkpt lat="40.08661371846676" lon="9.453097771937927"><ele>973.3333333333333</ele><time>2026-04-11T11:53:18Z</time></trkpt><trkpt lat="40.08668119909983" lon="9.453147892721121"><ele>974.0</ele><time>2026-04-11T11:53:19Z</time></trkpt><trkpt lat="40.08674256721352" lon="9.453193349682483"><ele>974.6666666666666</ele><time>2026-04-11T11:53:20Z</time></trkpt><trkpt lat="40.08684799684556" lon="9.45325064575609"><ele>975.3333333333333</ele><time>2026-04-11T11:53:22Z</time></trkpt><trkpt lat="40.086946665087595" lon="9.453290313810792"><ele>976.0</ele><time>2026-04-11T11:53:24Z</time></trkpt><trkpt lat="40.08704232600563" lon="9.453364774363209"><ele>976.0</ele><time>2026-04-11T11:53:26Z</time></trkpt><trkpt lat="40.08720806829816" lon="9.453549051236712"><ele>976.0</ele><time>2026-04-11T11:53:30Z</time></trkpt><trkpt lat="40.08728151841666" lon="9.453636703569385"><ele>976.0</ele><time>2026-04-11T11:53:32Z</time></trkpt><trkpt lat="40.087359966146906" lon="9.453741622348609"><ele>976.0</ele><time>2026-04-11T11:53:34Z</time></trkpt><trkpt lat="40.08743677469298" lon="9.45382348814825"><ele>976.4</ele><time>2026-04-11T11:53:36Z</time></trkpt><trkpt lat="40.08751929857673" lon="9.453909247759318"><ele>976.8</ele><time>2026-04-11T11:53:38Z</time></trkpt><trkpt lat="40.08759634349789" lon="9.453975696810243"><ele>977.1999999999999</ele><time>2026-04-11T11:53:40Z</time></trkpt><trkpt lat="40.08767678838494" lon="9.45403527271732"><ele>977.5999999999999</ele><time>2026-04-11T11:53:42Z</time></trkpt><trkpt lat="40.0877633972595" lon="9.454094629855021"><ele>978.0</ele><time>2026-04-11T11:53:44Z</time></trkpt><trkpt lat="40.08786443801326" lon="9.454168984367843"><ele>978.0</ele><time>2026-04-11T11:53:46Z</time></trkpt><trkpt lat="40.08795216871508" lon="9.454235071451517"><ele>978.0</ele><time>2026-04-11T11:53:48Z</time></trkpt><trkpt lat="40.088103718219536" lon="9.454245068569751"><ele>978.0</ele><time>2026-04-11T11:53:52Z</time></trkpt><trkpt lat="40.08817574102421" lon="9.454311805428071"><ele>978.0</ele><time>2026-04-11T11:53:54Z</time></trkpt><trkpt lat="40.08826073998542" lon="9.45438586457601"><ele>978.0</ele><time>2026-04-11T11:53:56Z</time></trkpt><trkpt lat="40.08835453426882" lon="9.454457736370514"><ele>975.8</ele><time>2026-04-11T11:53:58Z</time></trkpt><trkpt lat="40.08846396806383" lon="9.454503264156155"><ele>973.5999999999999</ele><time>2026-04-11T11:54:00Z</time></trkpt><trkpt lat="40.08857956155786" lon="9.454543889732602"><ele>971.4000000000001</ele><time>2026-04-11T11:54:02Z</time></trkpt><trkpt lat="40.08868778219266" lon="9.454572662876847"><ele>969.2</ele><time>2026-04-11T11:54:04Z</time></trkpt><trkpt lat="40.08879110994626" lon="9.454577966143894"><ele>967.0</ele><time>2026-04-11T11:54:06Z</time></trkpt><trkpt lat="40.08888245742117" lon="9.454569442288484"><ele>967.0</ele><time>2026-04-11T11:54:08Z</time></trkpt><trkpt lat="40.08897582152774" lon="9.454525161142653"><ele>967.0</ele><time>2026-04-11T11:54:10Z</time></trkpt><trkpt lat="40.08915889675263" lon="9.454382958492525"><ele>967.0</ele><time>2026-04-11T11:54:14Z</time></trkpt><trkpt lat="40.08925601699564" lon="9.454307223738978"><ele>967.0</ele><time>2026-04-11T11:54:16Z</time></trkpt><trkpt lat="40.089318447370864" lon="9.454283998553366"><ele>966.8571428571429</ele><time>2026-04-11T11:54:17Z</time></trkpt><trkpt lat="40.08938637560191" lon="9.454268200752615"><ele>966.7142857142857</ele><time>2026-04-11T11:54:18Z</time></trkpt><trkpt lat="40.0894582707982" lon="9.454244534900056"><ele>966.5714285714286</ele><time>2026-04-11T11:54:19Z</time></trkpt><trkpt lat="40.08953066256106" lon="9.454221082746399"><ele>966.4285714285714</ele><time>2026-04-11T11:54:20Z</time></trkpt><trkpt lat="40.089607664805115" lon="9.454201795461104"><ele>966.2857142857142</ele><time>2026-04-11T11:54:21Z</time></trkpt><trkpt lat="40.089684968980826" lon="9.45418310551884"><ele>966.1428571428571</ele><time>2026-04-11T11:54:22Z</time></trkpt><trkpt lat="40.0897512105524" lon="9.454167311288906"><ele>966.0</ele><time>2026-04-11T11:54:23Z</time></trkpt><trkpt lat="40.08987348444891" lon="9.454142792378333"><ele>965.8333333333334</ele><time>2026-04-11T11:54:25Z</time></trkpt><trkpt lat="40.08994898269894" lon="9.454120637022768"><ele>965.6666666666667</ele><time>2026-04-11T11:54:26Z</time></trkpt><trkpt lat="40.090030856431575" lon="9.454094822998568"><ele>965.5</ele><time>2026-04-11T11:54:27Z</time></trkpt><trkpt lat="40.09011148465867" lon="9.454070613256196"><ele>965.3333333333334</ele><time>2026-04-11T11:54:28Z</time></trkpt><trkpt lat="40.09018519927922" lon="9.454062276437343"><ele>965.1666666666667</ele><time>2026-04-11T11:54:29Z</time></trkpt><trkpt lat="40.09025443459243" lon="9.454066926532118"><ele>965.0</ele><time>2026-04-11T11:54:30Z</time></trkpt><trkpt lat="40.09032946461244" lon="9.45407681209535"><ele>965.0000000000001</ele><time>2026-04-11T11:54:31Z</time></trkpt><trkpt lat="40.090477902912276" lon="9.454094653779807"><ele>965.0</ele><time>2026-04-11T11:54:33Z</time></trkpt><trkpt lat="40.090547140229084" lon="9.454097926825211"><ele>965.0</ele><time>2026-04-11T11:54:34Z</time></trkpt><trkpt lat="40.0906219437358" lon="9.45410010938362"><ele>965.0</ele><time>2026-04-11T11:54:35Z</time></trkpt><trkpt lat="40.09068539432038" lon="9.454111529487049"><ele>965.0000000000001</ele><time>2026-04-11T11:54:36Z</time></trkpt><trkpt lat="40.09074727736522" lon="9.454127492065712"><ele>965.0</ele><time>2026-04-11T11:54:37Z</time></trkpt><trkpt lat="40.09081014109885" lon="9.454147622811554"><ele>964.5000000000001</ele><time>2026-04-11T11:54:38Z</time></trkpt><trkpt lat="40.09087526564092" lon="9.454168466167497"><ele>964.0</ele><time>2026-04-11T11:54:39Z</time></trkpt><trkpt lat="40.09094590579845" lon="9.454183229612127"><ele>963.5</ele><time>2026-04-11T11:54:40Z</time></trkpt><trkpt lat="40.09102189496008" lon="9.454190511815876"><ele>963.0</ele><time>2026-04-11T11:54:41Z</time></trkpt><trkpt lat="40.09110247422357" lon="9.454196334365792"><ele>962.5000000000001</ele><time>2026-04-11T11:54:42Z</time></trkpt><trkpt lat="40.09118450221768" lon="9.454207975227172"><ele>962.0</ele><time>2026-04-11T11:54:43Z</time></trkpt><trkpt lat="40.09126565384897" lon="9.454228578831763"><ele>962.0000000000001</ele><time>2026-04-11T11:54:44Z</time></trkpt><trkpt lat="40.09134387679686" lon="9.454248808175334"><ele>962.0</ele><time>2026-04-11T11:54:45Z</time></trkpt><trkpt lat="40.091421800031476" lon="9.454266208770695"><ele>962.0</ele><time>2026-04-11T11:54:46Z</time></trkpt><trkpt lat="40.091499871544706" lon="9.454275387080054"><ele>962.0</ele><time>2026-04-11T11:54:47Z</time></trkpt><trkpt lat="40.0915715574443" lon="9.454276259775618"><ele>962.0000000000001</ele><time>2026-04-11T11:54:48Z</time></trkpt><trkpt lat="40.0916430762521" lon="9.454282000545236"><ele>962.0</ele><time>2026-04-11T11:54:49Z</time></trkpt><trkpt lat="40.091719288418226" lon="9.454290988645418"><ele>961.8</ele><time>2026-04-11T11:54:50Z</time></trkpt><trkpt lat="40.09179516818625" lon="9.454300302118169"><ele>961.6</ele><time>2026-04-11T11:54:51Z</time></trkpt><trkpt lat="40.09187227915332" lon="9.454307377610629"><ele>961.3999999999999</ele><time>2026-04-11T11:54:52Z</time></trkpt><trkpt lat="40.09203331482683" lon="9.454336107582646"><ele>961.1999999999999</ele><time>2026-04-11T11:54:54Z</time></trkpt><trkpt lat="40.092112662708956" lon="9.454349237772112"><ele>961.0</ele><time>2026-04-11T11:54:55Z</time></trkpt><trkpt lat="40.09218482189018" lon="9.454361782470881"><ele>960.9999999999999</ele><time>2026-04-11T11:54:56Z</time></trkpt><trkpt lat="40.09225375744308" lon="9.45437234750256"><ele>961.0</ele><time>2026-04-11T11:54:57Z</time></trkpt><trkpt lat="40.09231977847539" lon="9.454398114209715"><ele>961.0</ele><time>2026-04-11T11:54:58Z</time></trkpt><trkpt lat="40.09239296148283" lon="9.454419717669964"><ele>961.0</ele><time>2026-04-11T11:54:59Z</time></trkpt><trkpt lat="40.09246694529187" lon="9.454436535870617"><ele>960.9999999999999</ele><time>2026-04-11T11:55:00Z</time></trkpt><trkpt lat="40.092579617645804" lon="9.454434668520118"><ele>961.0</ele><time>2026-04-11T11:55:02Z</time></trkpt><trkpt lat="40.09267463504931" lon="9.454468622204573"><ele>960.5999999999999</ele><time>2026-04-11T11:55:04Z</time></trkpt><trkpt lat="40.09277364473452" lon="9.454511363653259"><ele>960.1999999999999</ele><time>2026-04-11T11:55:06Z</time></trkpt><trkpt lat="40.092865688037826" lon="9.454550730486302"><ele>959.8000000000001</ele><time>2026-04-11T11:55:08Z</time></trkpt><trkpt lat="40.092984192454146" lon="9.454581160774756"><ele>959.4000000000001</ele><time>2026-04-11T11:55:10Z</time></trkpt><trkpt lat="40.09304939183122" lon="9.454598423278389"><ele>959.0</ele><time>2026-04-11T11:55:11Z</time></trkpt><trkpt lat="40.09312153367827" lon="9.454619349382385"><ele>959.25</ele><time>2026-04-11T11:55:12Z</time></trkpt><trkpt lat="40.09318916200099" lon="9.454655408397812"><ele>959.5</ele><time>2026-04-11T11:55:13Z</time></trkpt><trkpt lat="40.09341400706511" lon="9.454770855795351"><ele>959.75</ele><time>2026-04-11T11:55:17Z</time></trkpt><trkpt lat="40.093485120428284" lon="9.454803891625426"><ele>960.0</ele><time>2026-04-11T11:55:18Z</time></trkpt><trkpt lat="40.093557356906636" lon="9.454835038144351"><ele>959.5</ele><time>2026-04-11T11:55:19Z</time></trkpt><trkpt lat="40.09362910474988" lon="9.454863324836316"><ele>959.0</ele><time>2026-04-11T11:55:20Z</time></trkpt><trkpt lat="40.09370068453359" lon="9.454878153901014"><ele>958.5</ele><time>2026-04-11T11:55:21Z</time></trkpt><trkpt lat="40.09377079544871" lon="9.454894594072982"><ele>958.0</ele><time>2026-04-11T11:55:22Z</time></trkpt><trkpt lat="40.09383910073268" lon="9.45491241612046"><ele>957.5</ele><time>2026-04-11T11:55:23Z</time></trkpt><trkpt lat="40.09390782364634" lon="9.45493625922459"><ele>957.0</ele><time>2026-04-11T11:55:24Z</time></trkpt><trkpt lat="40.094016253548496" lon="9.454983505568965"><ele>956.5</ele><time>2026-04-11T11:55:26Z</time></trkpt><trkpt lat="40.094132178799796" lon="9.455067090904631"><ele>956.0</ele><time>2026-04-11T11:55:28Z</time></trkpt><trkpt lat="40.094188916265274" lon="9.455111548646297"><ele>955.5</ele><time>2026-04-11T11:55:29Z</time></trkpt><trkpt lat="40.0942507182636" lon="9.455155548308214"><ele>955.0</ele><time>2026-04-11T11:55:30Z</time></trkpt><trkpt lat="40.09431472742641" lon="9.455197198180237"><ele>954.5</ele><time>2026-04-11T11:55:31Z</time></trkpt><trkpt lat="40.094383381948354" lon="9.45524744401276"><ele>954.0</ele><time>2026-04-11T11:55:32Z</time></trkpt><trkpt lat="40.09445601916186" lon="9.45529003872512"><ele>954.0</ele><time>2026-04-11T11:55:33Z</time></trkpt><trkpt lat="40.09452716455469" lon="9.455340889932865"><ele>954.0000000000001</ele><time>2026-04-11T11:55:34Z</time></trkpt><trkpt lat="40.09466722451925" lon="9.455465948812575"><ele>954.0000000000001</ele><time>2026-04-11T11:55:36Z</time></trkpt><trkpt lat="40.09473281421937" lon="9.455543581164187"><ele>954.0</ele><time>2026-04-11T11:55:37Z</time></trkpt><trkpt lat="40.09479449674443" lon="9.455625569294813"><ele>954.0</ele><time>2026-04-11T11:55:38Z</time></trkpt><trkpt lat="40.094856593665774" lon="9.455711697236564"><ele>953.8333333333334</ele><time>2026-04-11T11:55:39Z</time></trkpt><trkpt lat="40.094915142095665" lon="9.455783795417874"><ele>953.6666666666667</ele><time>2026-04-11T11:55:40Z</time></trkpt><trkpt lat="40.094974104620086" lon="9.455848395268152"><ele>953.5</ele><time>2026-04-11T11:55:41Z</time></trkpt><trkpt lat="40.09502711237581" lon="9.45590562568718"><ele>953.3333333333334</ele><time>2026-04-11T11:55:42Z</time></trkpt><trkpt lat="40.09507524546786" lon="9.455959407401448"><ele>953.1666666666667</ele><time>2026-04-11T11:55:43Z</time></trkpt><trkpt lat="40.0951476693973" lon="9.456080090715377"><ele>953.0</ele><time>2026-04-11T11:55:45Z</time></trkpt><trkpt lat="40.0952012959459" lon="9.456187339988821"><ele>953.0</ele><time>2026-04-11T11:55:47Z</time></trkpt><trkpt lat="40.09526548050702" lon="9.456259970732058"><ele>953.0</ele><time>2026-04-11T11:55:49Z</time></trkpt><trkpt lat="40.095318310625636" lon="9.45633600875876"><ele>953.0</ele><time>2026-04-11T11:55:51Z</time></trkpt><trkpt lat="40.09538555521148" lon="9.456420942625842"><ele>953.0</ele><time>2026-04-11T11:55:53Z</time></trkpt><trkpt lat="40.09545064229609" lon="9.456527501998872"><ele>953.0</ele><time>2026-04-11T11:55:55Z</time></trkpt><trkpt lat="40.09550416873965" lon="9.456791545198943"><ele>953.1428571428571</ele><time>2026-04-11T11:55:59Z</time></trkpt><trkpt lat="40.09550393700565" lon="9.456890522444015"><ele>953.2857142857142</ele><time>2026-04-11T11:56:01Z</time></trkpt><trkpt lat="40.0954719779767" lon="9.457000825657003"><ele>953.4285714285713</ele><time>2026-04-11T11:56:04Z</time></trkpt><trkpt lat="40.09542646676427" lon="9.457078074504388"><ele>953.5714285714286</ele><time>2026-04-11T11:56:06Z</time></trkpt><trkpt lat="40.09538154532084" lon="9.457136060785281"><ele>953.7142857142856</ele><time>2026-04-11T11:56:07Z</time></trkpt><trkpt lat="40.09533853830563" lon="9.457207174939207"><ele>953.8571428571428</ele><time>2026-04-11T11:56:08Z</time></trkpt><trkpt lat="40.09529625601202" lon="9.457285082159943"><ele>954.0</ele><time>2026-04-11T11:56:09Z</time></trkpt><trkpt lat="40.09525051487233" lon="9.457387505426322"><ele>954.0</ele><time>2026-04-11T11:56:10Z</time></trkpt><trkpt lat="40.09520440926492" lon="9.457494718548206"><ele>954.0000000000001</ele><time>2026-04-11T11:56:11Z</time></trkpt><trkpt lat="40.09516642397293" lon="9.457606220721672"><ele>954.0000000000001</ele><time>2026-04-11T11:56:12Z</time></trkpt><trkpt lat="40.095128014239464" lon="9.457724043245094"><ele>954.0</ele><time>2026-04-11T11:56:13Z</time></trkpt><trkpt lat="40.095098063776376" lon="9.457840553893917"><ele>954.0</ele><time>2026-04-11T11:56:14Z</time></trkpt><trkpt lat="40.09506948015635" lon="9.457949696258666"><ele>954.2</ele><time>2026-04-11T11:56:15Z</time></trkpt><trkpt lat="40.09503976020019" lon="9.45806227820255"><ele>954.4000000000001</ele><time>2026-04-11T11:56:16Z</time></trkpt><trkpt lat="40.09502737805853" lon="9.458275530676254"><ele>954.6</ele><time>2026-04-11T11:56:18Z</time></trkpt><trkpt lat="40.09503996425506" lon="9.458370925096045"><ele>954.8</ele><time>2026-04-11T11:56:19Z</time></trkpt><trkpt lat="40.09504670868921" lon="9.458469732077326"><ele>955.0</ele><time>2026-04-11T11:56:20Z</time></trkpt><trkpt lat="40.095051621017774" lon="9.45857509487354"><ele>954.9999999999999</ele><time>2026-04-11T11:56:21Z</time></trkpt><trkpt lat="40.095059101748646" lon="9.458678772412343"><ele>955.0</ele><time>2026-04-11T11:56:22Z</time></trkpt><trkpt lat="40.09506439938289" lon="9.458786908884479"><ele>955.0</ele><time>2026-04-11T11:56:23Z</time></trkpt><trkpt lat="40.09507317177055" lon="9.458892353034773"><ele>955.0</ele><time>2026-04-11T11:56:24Z</time></trkpt><trkpt lat="40.09508382530032" lon="9.458988454421682"><ele>954.9999999999999</ele><time>2026-04-11T11:56:25Z</time></trkpt><trkpt lat="40.09509252287665" lon="9.459080750434753"><ele>955.0</ele><time>2026-04-11T11:56:26Z</time></trkpt><trkpt lat="40.09510088894767" lon="9.459177069098347"><ele>955.3333333333333</ele><time>2026-04-11T11:56:27Z</time></trkpt><trkpt lat="40.095108068745844" lon="9.45926974862822"><ele>955.6666666666666</ele><time>2026-04-11T11:56:27.999Z</time></trkpt><trkpt lat="40.09509643108803" lon="9.459356827201699"><ele>956.0</ele><time>2026-04-11T11:56:28.999Z</time></trkpt><trkpt lat="40.09506039580443" lon="9.459447402525347"><ele>956.3333333333333</ele><time>2026-04-11T11:56:29.999Z</time></trkpt><trkpt lat="40.09502245959709" lon="9.459530216189423"><ele>956.6666666666666</ele><time>2026-04-11T11:56:30.999Z</time></trkpt><trkpt lat="40.094986969774695" lon="9.459624759509268"><ele>957.0</ele><time>2026-04-11T11:56:31.999Z</time></trkpt><trkpt lat="40.09495375389678" lon="9.45971937285113"><ele>962.0</ele><time>2026-04-11T11:56:32.999Z</time></trkpt><trkpt lat="40.09490559018903" lon="9.459814972828237"><ele>960.0</ele><time>2026-04-11T11:56:33.999Z</time></trkpt><trkpt lat="40.09485055184493" lon="9.459917235963687"><ele>960.0</ele><time>2026-04-11T11:56:34.999Z</time></trkpt><trkpt lat="40.09479583316115" lon="9.460026901955848"><ele>960.0</ele><time>2026-04-11T11:56:35.999Z</time></trkpt><trkpt lat="40.09473915222079" lon="9.460139565582592"><ele>960.0</ele><time>2026-04-11T11:56:36.999Z</time></trkpt></trkseg><trkseg><trkpt lat="40.11869428516598" lon="9.480257939715733"><ele>896.0000000000001</ele><time>2026-04-19T14:41:05Z</time></trkpt><trkpt lat="40.11862157254259" lon="9.48020245443397"><ele>896.0</ele><time>2026-04-19T14:41:07Z</time></trkpt><trkpt lat="40.118524913383006" lon="9.480121560996265"><ele>896.0</ele><time>2026-04-19T14:41:09Z</time></trkpt><trkpt lat="40.11846776205256" lon="9.480083448982159"><ele>896.0</ele><time>2026-04-19T14:41:10Z</time></trkpt><trkpt lat="40.118401425467674" lon="9.48003820331989"><ele>896.0000000000001</ele><time>2026-04-19T14:41:11Z</time></trkpt><trkpt lat="40.11834160669795" lon="9.479991676149522"><ele>896.0</ele><time>2026-04-19T14:41:12Z</time></trkpt><trkpt lat="40.11827397874183" lon="9.47994076796507"><ele>895.8</ele><time>2026-04-19T14:41:13Z</time></trkpt><trkpt lat="40.11820204616606" lon="9.479883338406715"><ele>895.5999999999999</ele><time>2026-04-19T14:41:14Z</time></trkpt><trkpt lat="40.11812174760819" lon="9.479834481206401"><ele>895.4</ele><time>2026-04-19T14:41:15Z</time></trkpt><trkpt lat="40.1180432970093" lon="9.479774525709777"><ele>895.2</ele><time>2026-04-19T14:41:16Z</time></trkpt><trkpt lat="40.117964997801316" lon="9.4797043787276"><ele>895.0</ele><time>2026-04-19T14:41:17Z</time></trkpt><trkpt lat="40.11788257295397" lon="9.479635378376027"><ele>895.8</ele><time>2026-04-19T14:41:17.999Z</time></trkpt><trkpt lat="40.11780804261398" lon="9.479575654801728"><ele>896.6</ele><time>2026-04-19T14:41:18.999Z</time></trkpt><trkpt lat="40.11772348774069" lon="9.479513462600794"><ele>897.4000000000001</ele><time>2026-04-19T14:41:19.999Z</time></trkpt><trkpt lat="40.11763633840002" lon="9.479452349394721"><ele>898.2</ele><time>2026-04-19T14:41:20.999Z</time></trkpt><trkpt lat="40.11754554908937" lon="9.479384650805804"><ele>899.0</ele><time>2026-04-19T14:41:21.999Z</time></trkpt><trkpt lat="40.11745459724389" lon="9.47931426047752"><ele>899.4000000000001</ele><time>2026-04-19T14:41:22.999Z</time></trkpt><trkpt lat="40.11737114010535" lon="9.479233914315076"><ele>899.8000000000001</ele><time>2026-04-19T14:41:23.999Z</time></trkpt><trkpt lat="40.11727599919788" lon="9.479161665848173"><ele>900.1999999999999</ele><time>2026-04-19T14:41:24.999Z</time></trkpt><trkpt lat="40.11718173924233" lon="9.479083976030376"><ele>900.5999999999999</ele><time>2026-04-19T14:41:25.999Z</time></trkpt><trkpt lat="40.11708186354999" lon="9.479009788651558"><ele>901.0</ele><time>2026-04-19T14:41:26.999Z</time></trkpt><trkpt lat="40.116997617886575" lon="9.4789293065935"><ele>901.0</ele><time>2026-04-19T14:41:27.999Z</time></trkpt><trkpt lat="40.11687245446909" lon="9.478853381200187"><ele>901.0</ele><time>2026-04-19T14:41:28.999Z</time></trkpt><trkpt lat="40.11674857624889" lon="9.478767010978453"><ele>901.0</ele><time>2026-04-19T14:41:29.999Z</time></trkpt><trkpt lat="40.11667588028109" lon="9.478686341021994"><ele>901.0</ele><time>2026-04-19T14:41:30.999Z</time></trkpt><trkpt lat="40.11656788874946" lon="9.478605111445733"><ele>901.75</ele><time>2026-04-19T14:41:31.999Z</time></trkpt><trkpt lat="40.11646152735235" lon="9.478517703310878"><ele>902.5</ele><time>2026-04-19T14:41:32.999Z</time></trkpt><trkpt lat="40.11635601679899" lon="9.478432704401172"><ele>903.25</ele><time>2026-04-19T14:41:33.999Z</time></trkpt><trkpt lat="40.11624365130922" lon="9.478349593005253"><ele>904.0</ele><time>2026-04-19T14:41:34.999Z</time></trkpt><trkpt lat="40.11613015921671" lon="9.478261602743459"><ele>904.0</ele><time>2026-04-19T14:41:35.999Z</time></trkpt><trkpt lat="40.11601633997682" lon="9.478179395045679"><ele>904.0</ele><time>2026-04-19T14:41:36.999Z</time></trkpt><trkpt lat="40.11589951767242" lon="9.4780982489977"><ele>904.0</ele><time>2026-04-19T14:41:37.999Z</time></trkpt><trkpt lat="40.11577911307276" lon="9.478011245569611"><ele>904.0</ele><time>2026-04-19T14:41:38.999Z</time></trkpt><trkpt lat="40.115657300927154" lon="9.477925566818632"><ele>905.0</ele><time>2026-04-19T14:41:39.999Z</time></trkpt><trkpt lat="40.11553692892011" lon="9.477841878180639"><ele>906.0</ele><time>2026-04-19T14:41:40.999Z</time></trkpt><trkpt lat="40.115417961515035" lon="9.477756543146999"><ele>907.0</ele><time>2026-04-19T14:41:41.999Z</time></trkpt><trkpt lat="40.11529768438905" lon="9.477672754565663"><ele>908.0</ele><time>2026-04-19T14:41:42.999Z</time></trkpt><trkpt lat="40.11517911801283" lon="9.477586118771756"><ele>908.0</ele><time>2026-04-19T14:41:43.999Z</time></trkpt><trkpt lat="40.115052933974845" lon="9.477498891389784"><ele>908.0</ele><time>2026-04-19T14:41:44.999Z</time></trkpt><trkpt lat="40.11493257140946" lon="9.477409386189471"><ele>908.0</ele><time>2026-04-19T14:41:45.999Z</time></trkpt><trkpt lat="40.114810224914805" lon="9.477322944593464"><ele>908.0</ele><time>2026-04-19T14:41:46.999Z</time></trkpt><trkpt lat="40.114683258938065" lon="9.4772346548812"><ele>908.25</ele><time>2026-04-19T14:41:47.999Z</time></trkpt><trkpt lat="40.1145629971409" lon="9.477151949188508"><ele>908.5</ele><time>2026-04-19T14:41:48.999Z</time></trkpt><trkpt lat="40.11444787988649" lon="9.477066020758492"><ele>908.75</ele><time>2026-04-19T14:41:49.999Z</time></trkpt><trkpt lat="40.11432684321061" lon="9.476979120128265"><ele>909.0</ele><time>2026-04-19T14:41:50.999Z</time></trkpt><trkpt lat="40.114206115510406" lon="9.476894301563151"><ele>909.5</ele><time>2026-04-19T14:41:51.999Z</time></trkpt><trkpt lat="40.114084590379086" lon="9.47680309796001"><ele>910.0</ele><time>2026-04-19T14:41:52.999Z</time></trkpt><trkpt lat="40.11395091735347" lon="9.476726471416315"><ele>910.5</ele><time>2026-04-19T14:41:53.999Z</time></trkpt><trkpt lat="40.11380994817622" lon="9.476672353989196"><ele>911.0</ele><time>2026-04-19T14:41:54.999Z</time></trkpt><trkpt lat="40.11366713555079" lon="9.47661489080919"><ele>911.0</ele><time>2026-04-19T14:41:55.999Z</time></trkpt><trkpt lat="40.11352288119164" lon="9.47655636247423"><ele>911.0</ele><time>2026-04-19T14:41:56.999Z</time></trkpt><trkpt lat="40.113379313316464" lon="9.476499449131811"><ele>911.0</ele><time>2026-04-19T14:41:57.999Z</time></trkpt><trkpt lat="40.113237905672655" lon="9.476443402364177"><ele>911.0</ele><time>2026-04-19T14:41:58.999Z</time></trkpt><trkpt lat="40.11309459881436" lon="9.476385366858752"><ele>911.75</ele><time>2026-04-19T14:41:59.999Z</time></trkpt><trkpt lat="40.11295502240538" lon="9.476329805509542"><ele>912.5</ele><time>2026-04-19T14:42:00.999Z</time></trkpt><trkpt lat="40.1128149796061" lon="9.476276024119668"><ele>913.25</ele><time>2026-04-19T14:42:01.999Z</time></trkpt><trkpt lat="40.11267803438366" lon="9.476219181787114"><ele>914.0</ele><time>2026-04-19T14:42:02.999Z</time></trkpt><trkpt lat="40.11254133269854" lon="9.476156226199945"><ele>914.5</ele><time>2026-04-19T14:42:03.999Z</time></trkpt><trkpt lat="40.11241023161019" lon="9.476083138477591"><ele>915.0</ele><time>2026-04-19T14:42:04.999Z</time></trkpt><trkpt lat="40.11227839423756" lon="9.476000712523836"><ele>915.5</ele><time>2026-04-19T14:42:05.999Z</time></trkpt><trkpt lat="40.11215825001101" lon="9.475904699111242"><ele>916.0</ele><time>2026-04-19T14:42:06.999Z</time></trkpt><trkpt lat="40.11203547266061" lon="9.4757932998376"><ele>916.0</ele><time>2026-04-19T14:42:07.999Z</time></trkpt><trkpt lat="40.11192485472505" lon="9.475677248661183"><ele>916.0</ele><time>2026-04-19T14:42:08.999Z</time></trkpt><trkpt lat="40.11183134738226" lon="9.475557942255119"><ele>916.0</ele><time>2026-04-19T14:42:09.999Z</time></trkpt><trkpt lat="40.11174658992305" lon="9.47543291187258"><ele>916.0</ele><time>2026-04-19T14:42:10.999Z</time></trkpt><trkpt lat="40.11167568391105" lon="9.47528817703736"><ele>917.75</ele><time>2026-04-19T14:42:11.999Z</time></trkpt><trkpt lat="40.11161089014523" lon="9.475141450142095"><ele>919.5</ele><time>2026-04-19T14:42:12.999Z</time></trkpt><trkpt lat="40.11154161684615" lon="9.474985992264859"><ele>921.25</ele><time>2026-04-19T14:42:13.999Z</time></trkpt><trkpt lat="40.11146780130314" lon="9.47482792840449"><ele>923.0</ele><time>2026-04-19T14:42:14.999Z</time></trkpt><trkpt lat="40.11139152743201" lon="9.474668905384226"><ele>924.0</ele><time>2026-04-19T14:42:16Z</time></trkpt><trkpt lat="40.11131590697587" lon="9.474514213573563"><ele>925.0</ele><time>2026-04-19T14:42:17Z</time></trkpt><trkpt lat="40.111234617906234" lon="9.474361631453343"><ele>926.0</ele><time>2026-04-19T14:42:18Z</time></trkpt><trkpt lat="40.111155976804746" lon="9.47421620077172"><ele>927.0</ele><time>2026-04-19T14:42:19Z</time></trkpt><trkpt lat="40.11107861896099" lon="9.474086010600349"><ele>927.0</ele><time>2026-04-19T14:42:20Z</time></trkpt><trkpt lat="40.11099528341203" lon="9.473984172644828"><ele>927.0</ele><time>2026-04-19T14:42:21Z</time></trkpt><trkpt lat="40.11089675171159" lon="9.473902468372575"><ele>927.0</ele><time>2026-04-19T14:42:22Z</time></trkpt><trkpt lat="40.11078257531806" lon="9.473837281389228"><ele>927.0</ele><time>2026-04-19T14:42:23Z</time></trkpt><trkpt lat="40.11066424510383" lon="9.473778000928645"><ele>929.75</ele><time>2026-04-19T14:42:24Z</time></trkpt><trkpt lat="40.110539188494265" lon="9.473712477799086"><ele>932.5</ele><time>2026-04-19T14:42:25Z</time></trkpt><trkpt lat="40.11041679856342" lon="9.473642682424858"><ele>935.25</ele><time>2026-04-19T14:42:26Z</time></trkpt><trkpt lat="40.11029606136925" lon="9.473571073446548"><ele>938.0</ele><time>2026-04-19T14:42:27Z</time></trkpt><trkpt lat="40.11017378919608" lon="9.473498879957157"><ele>938.0</ele><time>2026-04-19T14:42:28Z</time></trkpt><trkpt lat="40.110051466500714" lon="9.473427091963416"><ele>938.0</ele><time>2026-04-19T14:42:29Z</time></trkpt><trkpt lat="40.10993333156468" lon="9.473363451834205"><ele>938.0</ele><time>2026-04-19T14:42:30Z</time></trkpt><trkpt lat="40.10981197938668" lon="9.473322885079547"><ele>938.0</ele><time>2026-04-19T14:42:31Z</time></trkpt><trkpt lat="40.109686831806194" lon="9.473318696492141"><ele>939.5</ele><time>2026-04-19T14:42:32Z</time></trkpt><trkpt lat="40.109560036480296" lon="9.47331320884002"><ele>941.0</ele><time>2026-04-19T14:42:33Z</time></trkpt><trkpt lat="40.10943491296082" lon="9.473276337266778"><ele>942.5</ele><time>2026-04-19T14:42:34Z</time></trkpt><trkpt lat="40.10931316586204" lon="9.473199904507617"><ele>944.0</ele><time>2026-04-19T14:42:35Z</time></trkpt><trkpt lat="40.10919771419634" lon="9.473105813084937"><ele>944.0</ele><time>2026-04-19T14:42:36Z</time></trkpt><trkpt lat="40.10908474630525" lon="9.473007340730941"><ele>944.0</ele><time>2026-04-19T14:42:37Z</time></trkpt><trkpt lat="40.10897070017993" lon="9.472908569921572"><ele>944.0</ele><time>2026-04-19T14:42:38Z</time></trkpt><trkpt lat="40.108853162828595" lon="9.472818512463817"><ele>944.0</ele><time>2026-04-19T14:42:39Z</time></trkpt><trkpt lat="40.108725598834816" lon="9.47272721039226"><ele>946.5</ele><time>2026-04-19T14:42:40Z</time></trkpt><trkpt lat="40.108611173009706" lon="9.472631858367215"><ele>949.0</ele><time>2026-04-19T14:42:41Z</time></trkpt><trkpt lat="40.108495555861225" lon="9.472532710695262"><ele>951.5</ele><time>2026-04-19T14:42:42Z</time></trkpt><trkpt lat="40.10838332647886" lon="9.472437410902389"><ele>954.0</ele><time>2026-04-19T14:42:43Z</time></trkpt><trkpt lat="40.10827370011164" lon="9.472356428695262"><ele>956.25</ele><time>2026-04-19T14:42:44Z</time></trkpt><trkpt lat="40.108162856908365" lon="9.47230121491486"><ele>958.5</ele><time>2026-04-19T14:42:45Z</time></trkpt><trkpt lat="40.108038071396194" lon="9.472270616910631"><ele>960.75</ele><time>2026-04-19T14:42:46Z</time></trkpt><trkpt lat="40.10791316628293" lon="9.472250217210963"><ele>963.0</ele><time>2026-04-19T14:42:47Z</time></trkpt><trkpt lat="40.10778636911943" lon="9.472227766300934"><ele>963.0</ele><time>2026-04-19T14:42:48Z</time></trkpt><trkpt lat="40.10765956187892" lon="9.472205147099151"><ele>963.0</ele><time>2026-04-19T14:42:49Z</time></trkpt><trkpt lat="40.10753264585307" lon="9.472178769856109"><ele>963.0</ele><time>2026-04-19T14:42:50Z</time></trkpt><trkpt lat="40.10740430151689" lon="9.472146384967031"><ele>963.0</ele><time>2026-04-19T14:42:51Z</time></trkpt><trkpt lat="40.10727518131992" lon="9.47211339741044"><ele>963.5</ele><time>2026-04-19T14:42:52Z</time></trkpt><trkpt lat="40.10714575932338" lon="9.472076588617796"><ele>964.0</ele><time>2026-04-19T14:42:53Z</time></trkpt><trkpt lat="40.10702097270413" lon="9.472018563128271"><ele>964.5</ele><time>2026-04-19T14:42:54Z</time></trkpt><trkpt lat="40.10690931014609" lon="9.47193173043901"><ele>965.0</ele><time>2026-04-19T14:42:55Z</time></trkpt><trkpt lat="40.106802447182645" lon="9.471845540982747"><ele>965.0</ele><time>2026-04-19T14:42:56Z</time></trkpt><trkpt lat="40.1066690265171" lon="9.471753002631218"><ele>965.0</ele><time>2026-04-19T14:42:57Z</time></trkpt><trkpt lat="40.10656626045423" lon="9.47168656944473"><ele>965.0</ele><time>2026-04-19T14:42:58Z</time></trkpt><trkpt lat="40.10645449095765" lon="9.471745336877305"><ele>965.0</ele><time>2026-04-19T14:42:59Z</time></trkpt><trkpt lat="40.10633573558276" lon="9.471788517742928"><ele>967.0</ele><time>2026-04-19T14:43:00Z</time></trkpt><trkpt lat="40.1062141652484" lon="9.471831112569447"><ele>969.0</ele><time>2026-04-19T14:43:01Z</time></trkpt><trkpt lat="40.10608520713757" lon="9.471869231253061"><ele>971.0</ele><time>2026-04-19T14:43:02Z</time></trkpt><trkpt lat="40.10595149736223" lon="9.471881616802165"><ele>973.0</ele><time>2026-04-19T14:43:03Z</time></trkpt><trkpt lat="40.10581405289272" lon="9.471865132658115"><ele>975.75</ele><time>2026-04-19T14:43:04Z</time></trkpt><trkpt lat="40.105678872944516" lon="9.471827310301443"><ele>978.5</ele><time>2026-04-19T14:43:05Z</time></trkpt><trkpt lat="40.10554941924467" lon="9.471781245041052"><ele>981.25</ele><time>2026-04-19T14:43:06Z</time></trkpt><trkpt lat="40.10542879740821" lon="9.471724939520872"><ele>984.0</ele><time>2026-04-19T14:43:06.999Z</time></trkpt><trkpt lat="40.105304625414746" lon="9.471656754705531"><ele>984.0</ele><time>2026-04-19T14:43:07.999Z</time></trkpt><trkpt lat="40.10518310307453" lon="9.471574294030622"><ele>984.0</ele><time>2026-04-19T14:43:08.999Z</time></trkpt><trkpt lat="40.105065334951036" lon="9.471477055690126"><ele>984.0</ele><time>2026-04-19T14:43:09.999Z</time></trkpt><trkpt lat="40.104952512157965" lon="9.471368824801226"><ele>984.0</ele><time>2026-04-19T14:43:10.999Z</time></trkpt><trkpt lat="40.10484416946621" lon="9.471252880460478"><ele>985.75</ele><time>2026-04-19T14:43:11.999Z</time></trkpt><trkpt lat="40.104739902985045" lon="9.471127114027288"><ele>987.5</ele><time>2026-04-19T14:43:12.999Z</time></trkpt><trkpt lat="40.104631693836176" lon="9.470989148332087"><ele>989.25</ele><time>2026-04-19T14:43:13.999Z</time></trkpt><trkpt lat="40.10453491438534" lon="9.470854624965288"><ele>991.0</ele><time>2026-04-19T14:43:14.999Z</time></trkpt><trkpt lat="40.10444090728182" lon="9.470710961383583"><ele>991.0</ele><time>2026-04-19T14:43:15.999Z</time></trkpt><trkpt lat="40.10435373668955" lon="9.47055855508936"><ele>991.0</ele><time>2026-04-19T14:43:16.999Z</time></trkpt><trkpt lat="40.104270307926754" lon="9.470403656870143"><ele>991.0</ele><time>2026-04-19T14:43:17.999Z</time></trkpt><trkpt lat="40.104185206119915" lon="9.470248395967745"><ele>991.0</ele><time>2026-04-19T14:43:18.999Z</time></trkpt><trkpt lat="40.10410705824947" lon="9.470093663177046"><ele>990.25</ele><time>2026-04-19T14:43:19.999Z</time></trkpt><trkpt lat="40.104035304228404" lon="9.469936258379688"><ele>989.5</ele><time>2026-04-19T14:43:20.999Z</time></trkpt><trkpt lat="40.103970807749924" lon="9.46977389593589"><ele>988.75</ele><time>2026-04-19T14:43:21.999Z</time></trkpt><trkpt lat="40.10391305062557" lon="9.46961364250297"><ele>988.0</ele><time>2026-04-19T14:43:22.999Z</time></trkpt><trkpt lat="40.10385638778361" lon="9.469451013112016"><ele>991.75</ele><time>2026-04-19T14:43:23.999Z</time></trkpt><trkpt lat="40.10380540439644" lon="9.469288618104098"><ele>995.5</ele><time>2026-04-19T14:43:24.999Z</time></trkpt><trkpt lat="40.10376090419626" lon="9.469124637323707"><ele>999.25</ele><time>2026-04-19T14:43:25.999Z</time></trkpt><trkpt lat="40.103718147743315" lon="9.468962036711908"><ele>1003.0</ele><time>2026-04-19T14:43:26.999Z</time></trkpt><trkpt lat="40.1036697377262" lon="9.468803731700268"><ele>1005.25</ele><time>2026-04-19T14:43:27.999Z</time></trkpt><trkpt lat="40.10362198729795" lon="9.468645627650563"><ele>1007.5</ele><time>2026-04-19T14:43:28.999Z</time></trkpt><trkpt lat="40.10357224452659" lon="9.468490894441826"><ele>1009.75</ele><time>2026-04-19T14:43:29.999Z</time></trkpt><trkpt lat="40.103528588308926" lon="9.468332826433514"><ele>1012.0</ele><time>2026-04-19T14:43:30.999Z</time></trkpt><trkpt lat="40.103488993748684" lon="9.468179438536966"><ele>1012.0</ele><time>2026-04-19T14:43:31.999Z</time></trkpt><trkpt lat="40.10344311382407" lon="9.468020008753397"><ele>1012.0</ele><time>2026-04-19T14:43:32.999Z</time></trkpt><trkpt lat="40.103397499062176" lon="9.467860403347109"><ele>1012.0</ele><time>2026-04-19T14:43:33.999Z</time></trkpt><trkpt lat="40.103360769458746" lon="9.467709435787599"><ele>1012.0</ele><time>2026-04-19T14:43:34.999Z</time></trkpt><trkpt lat="40.103315053205655" lon="9.467545272819986"><ele>1013.5</ele><time>2026-04-19T14:43:35.999Z</time></trkpt><trkpt lat="40.10327149409036" lon="9.46739637800042"><ele>1015.0</ele><time>2026-04-19T14:43:36.999Z</time></trkpt><trkpt lat="40.103219970762936" lon="9.467249757443124"><ele>1016.5</ele><time>2026-04-19T14:43:37.999Z</time></trkpt><trkpt lat="40.10317511097713" lon="9.467100120902607"><ele>1018.0</ele><time>2026-04-19T14:43:38.999Z</time></trkpt><trkpt lat="40.10310990455476" lon="9.466958606574432"><ele>1020.5</ele><time>2026-04-19T14:43:39.999Z</time></trkpt><trkpt lat="40.10303052155071" lon="9.46681681290259"><ele>1023.0</ele><time>2026-04-19T14:43:40.999Z</time></trkpt><trkpt lat="40.10293865827698" lon="9.4666916038656"><ele>1025.5</ele><time>2026-04-19T14:43:41.999Z</time></trkpt><trkpt lat="40.10283560352307" lon="9.46657967975332"><ele>1028.0</ele><time>2026-04-19T14:43:42.999Z</time></trkpt><trkpt lat="40.102720768811515" lon="9.466489850789197"><ele>1028.0</ele><time>2026-04-19T14:43:43.999Z</time></trkpt><trkpt lat="40.10260500931821" lon="9.46639678788864"><ele>1028.0</ele><time>2026-04-19T14:43:44.999Z</time></trkpt><trkpt lat="40.1024808698301" lon="9.466346361891205"><ele>1028.0</ele><time>2026-04-19T14:43:45.999Z</time></trkpt><trkpt lat="40.102344979576166" lon="9.466313578521282"><ele>1028.0</ele><time>2026-04-19T14:43:46.999Z</time></trkpt><trkpt lat="40.10220298276996" lon="9.466274475268785"><ele>1029.75</ele><time>2026-04-19T14:43:47.999Z</time></trkpt><trkpt lat="40.10207455784908" lon="9.466231722398513"><ele>1031.5</ele><time>2026-04-19T14:43:48.999Z</time></trkpt><trkpt lat="40.10194271368422" lon="9.466187750060772"><ele>1033.25</ele><time>2026-04-19T14:43:49.999Z</time></trkpt><trkpt lat="40.10181409370754" lon="9.466137686379835"><ele>1035.0</ele><time>2026-04-19T14:43:50.999Z</time></trkpt><trkpt lat="40.10169770381944" lon="9.466081577110012"><ele>1035.0</ele><time>2026-04-19T14:43:51.999Z</time></trkpt><trkpt lat="40.101589242370615" lon="9.466020179026698"><ele>1035.0</ele><time>2026-04-19T14:43:52.999Z</time></trkpt><trkpt lat="40.10147156872272" lon="9.465955331620815"><ele>1035.0</ele><time>2026-04-19T14:43:53.999Z</time></trkpt><trkpt lat="40.10134599047816" lon="9.465889589073129"><ele>1035.0</ele><time>2026-04-19T14:43:54.999Z</time></trkpt><trkpt lat="40.101223833588655" lon="9.465830330132455"><ele>1034.0</ele><time>2026-04-19T14:43:55.999Z</time></trkpt><trkpt lat="40.10110040918513" lon="9.465771713771588"><ele>1033.0</ele><time>2026-04-19T14:43:56.999Z</time></trkpt><trkpt lat="40.100969064451306" lon="9.46570980377775"><ele>1032.0</ele><time>2026-04-19T14:43:57.999Z</time></trkpt><trkpt lat="40.10083853264263" lon="9.465642425700079"><ele>1031.0</ele><time>2026-04-19T14:43:58.999Z</time></trkpt><trkpt lat="40.10070912815106" lon="9.465576434598796"><ele>1031.0</ele><time>2026-04-19T14:43:59.999Z</time></trkpt><trkpt lat="40.100575042082205" lon="9.465511716973001"><ele>1031.0</ele><time>2026-04-19T14:44:00.999Z</time></trkpt><trkpt lat="40.10044130281316" lon="9.465446065622658"><ele>1031.0</ele><time>2026-04-19T14:44:01.999Z</time></trkpt><trkpt lat="40.10031174051323" lon="9.465380053970721"><ele>1031.0</ele><time>2026-04-19T14:44:02.999Z</time></trkpt><trkpt lat="40.10018029865632" lon="9.465311517883206"><ele>1025.0</ele><time>2026-04-19T14:44:03.999Z</time></trkpt><trkpt lat="40.10004300544082" lon="9.465237498216581"><ele>1019.0</ele><time>2026-04-19T14:44:04.999Z</time></trkpt><trkpt lat="40.09990076654043" lon="9.465155911416035"><ele>1013.0</ele><time>2026-04-19T14:44:05.999Z</time></trkpt><trkpt lat="40.09975343273016" lon="9.465081623800863"><ele>1013.0</ele><time>2026-04-19T14:44:06.999Z</time></trkpt><trkpt lat="40.09961188002111" lon="9.465016506076495"><ele>1013.0</ele><time>2026-04-19T14:44:07.999Z</time></trkpt><trkpt lat="40.09947696725228" lon="9.46494704189269"><ele>1013.0</ele><time>2026-04-19T14:44:08.999Z</time></trkpt><trkpt lat="40.09934890491913" lon="9.464875395295534"><ele>1013.0</ele><time>2026-04-19T14:44:09.999Z</time></trkpt><trkpt lat="40.099217376278155" lon="9.464820488152014"><ele>1013.25</ele><time>2026-04-19T14:44:10.999Z</time></trkpt><trkpt lat="40.09908279035083" lon="9.464780599100855"><ele>1013.5</ele><time>2026-04-19T14:44:11.999Z</time></trkpt><trkpt lat="40.09895053270455" lon="9.464748185463106"><ele>1013.75</ele><time>2026-04-19T14:44:12.999Z</time></trkpt><trkpt lat="40.09881995056354" lon="9.464709248327623"><ele>1014.0</ele><time>2026-04-19T14:44:13.999Z</time></trkpt><trkpt lat="40.09869088088276" lon="9.46466291907105"><ele>1014.0</ele><time>2026-04-19T14:44:14.999Z</time></trkpt><trkpt lat="40.098562933140244" lon="9.464620182681138"><ele>1014.0</ele><time>2026-04-19T14:44:15.999Z</time></trkpt><trkpt lat="40.09843592327961" lon="9.464586620689385"><ele>1014.0</ele><time>2026-04-19T14:44:16.999Z</time></trkpt><trkpt lat="40.098309360453555" lon="9.464548482414614"><ele>1014.0</ele><time>2026-04-19T14:44:17.999Z</time></trkpt><trkpt lat="40.0981854222093" lon="9.46450757938969"><ele>1011.0</ele><time>2026-04-19T14:44:18.999Z</time></trkpt><trkpt lat="40.09807260406084" lon="9.464472736649185"><ele>1008.0000000000001</ele><time>2026-04-19T14:44:19.999Z</time></trkpt><trkpt lat="40.097962660211294" lon="9.464443797019374"><ele>1005.0000000000001</ele><time>2026-04-19T14:44:20.999Z</time></trkpt><trkpt lat="40.09785989134347" lon="9.464412495945144"><ele>1002.0</ele><time>2026-04-19T14:44:22Z</time></trkpt><trkpt lat="40.09776583963298" lon="9.464356489412614"><ele>999.0</ele><time>2026-04-19T14:44:23Z</time></trkpt><trkpt lat="40.09768182912327" lon="9.464283364629795"><ele>999.0</ele><time>2026-04-19T14:44:24Z</time></trkpt><trkpt lat="40.09761436117419" lon="9.464180505763865"><ele>999.0</ele><time>2026-04-19T14:44:25Z</time></trkpt><trkpt lat="40.09754291920342" lon="9.464061957130687"><ele>999.0</ele><time>2026-04-19T14:44:26Z</time></trkpt><trkpt lat="40.09747554401009" lon="9.463929738066241"><ele>999.0</ele><time>2026-04-19T14:44:27Z</time></trkpt><trkpt lat="40.09740708968569" lon="9.463788241058108"><ele>997.2</ele><time>2026-04-19T14:44:28Z</time></trkpt><trkpt lat="40.09733905776583" lon="9.463641302759473"><ele>995.4000000000001</ele><time>2026-04-19T14:44:29Z</time></trkpt><trkpt lat="40.09727286208489" lon="9.463510029253607"><ele>993.6</ele><time>2026-04-19T14:44:30Z</time></trkpt><trkpt lat="40.097210687437716" lon="9.463405433759062"><ele>991.8</ele><time>2026-04-19T14:44:31Z</time></trkpt><trkpt lat="40.09714224340288" lon="9.46332713587314"><ele>990.0</ele><time>2026-04-19T14:44:32Z</time></trkpt><trkpt lat="40.09704844719222" lon="9.463284059773537"><ele>990.0</ele><time>2026-04-19T14:44:33Z</time></trkpt><trkpt lat="40.09692878264899" lon="9.463260294806764"><ele>990.0</ele><time>2026-04-19T14:44:34Z</time></trkpt><trkpt lat="40.096800424990825" lon="9.463230987846615"><ele>990.0</ele><time>2026-04-19T14:44:35Z</time></trkpt><trkpt lat="40.096677581773754" lon="9.463195719682927"><ele>990.0</ele><time>2026-04-19T14:44:36Z</time></trkpt><trkpt lat="40.096571980947985" lon="9.463151780219023"><ele>989.8</ele><time>2026-04-19T14:44:37Z</time></trkpt><trkpt lat="40.09648298159623" lon="9.463085186753734"><ele>989.6</ele><time>2026-04-19T14:44:38Z</time></trkpt><trkpt lat="40.09642758036974" lon="9.462995164011698"><ele>989.4000000000001</ele><time>2026-04-19T14:44:39Z</time></trkpt><trkpt lat="40.096389767675774" lon="9.462891994670581"><ele>989.2</ele><time>2026-04-19T14:44:40Z</time></trkpt><trkpt lat="40.096362309642515" lon="9.462770997010951"><ele>989.0</ele><time>2026-04-19T14:44:41Z</time></trkpt><trkpt lat="40.09631982043892" lon="9.462646565559504"><ele>989.0</ele><time>2026-04-19T14:44:42Z</time></trkpt><trkpt lat="40.096264497595726" lon="9.462524812575632"><ele>989.0000000000001</ele><time>2026-04-19T14:44:43Z</time></trkpt><trkpt lat="40.09621126410906" lon="9.462413336862785"><ele>989.0000000000001</ele><time>2026-04-19T14:44:44Z</time></trkpt><trkpt lat="40.0961527918972" lon="9.462314264196205"><ele>989.0</ele><time>2026-04-19T14:44:45Z</time></trkpt><trkpt lat="40.096071152217455" lon="9.462238833358288"><ele>989.0</ele><time>2026-04-19T14:44:46Z</time></trkpt><trkpt lat="40.09598030964437" lon="9.46218647472992"><ele>989.0</ele><time>2026-04-19T14:44:47Z</time></trkpt><trkpt lat="40.09588952155291" lon="9.462140091520123"><ele>989.0000000000001</ele><time>2026-04-19T14:44:48Z</time></trkpt><trkpt lat="40.09578933548119" lon="9.462081606350894"><ele>989.0000000000001</ele><time>2026-04-19T14:44:49Z</time></trkpt><trkpt lat="40.09569213434803" lon="9.462016390865385"><ele>989.0</ele><time>2026-04-19T14:44:50Z</time></trkpt><trkpt lat="40.09559115773762" lon="9.46194828125911"><ele>989.0</ele><time>2026-04-19T14:44:51Z</time></trkpt><trkpt lat="40.095485591081356" lon="9.46188139491172"><ele>986.0</ele><time>2026-04-19T14:44:52Z</time></trkpt><trkpt lat="40.095380198435876" lon="9.461814956840612"><ele>983.0</ele><time>2026-04-19T14:44:53Z</time></trkpt><trkpt lat="40.09527296097544" lon="9.461745644212979"><ele>980.0</ele><time>2026-04-19T14:44:54Z</time></trkpt><trkpt lat="40.09516573538049" lon="9.461673832726023"><ele>977.0</ele><time>2026-04-19T14:44:55Z</time></trkpt><trkpt lat="40.09506245132313" lon="9.461602952020508"><ele>977.0</ele><time>2026-04-19T14:44:56Z</time></trkpt><trkpt lat="40.09496180593891" lon="9.461541636474362"><ele>977.0</ele><time>2026-04-19T14:44:57Z</time></trkpt><trkpt lat="40.09486811502552" lon="9.461481918593584"><ele>977.0</ele><time>2026-04-19T14:44:58Z</time></trkpt><trkpt lat="40.094777051350135" lon="9.46140533391479"><ele>977.0</ele><time>2026-04-19T14:44:59Z</time></trkpt><trkpt lat="40.09469844812059" lon="9.46131560228158"><ele>977.0</ele><time>2026-04-19T14:45:00Z</time></trkpt><trkpt lat="40.094640087935424" lon="9.461200466184076"><ele>975.1666666666667</ele><time>2026-04-19T14:45:01Z</time></trkpt><trkpt lat="40.09460452672026" lon="9.461092306743323"><ele>973.3333333333334</ele><time>2026-04-19T14:45:02Z</time></trkpt><trkpt lat="40.09457331385119" lon="9.460979514173781"><ele>971.5</ele><time>2026-04-19T14:45:03Z</time></trkpt><trkpt lat="40.09454356198312" lon="9.460873355495794"><ele>969.6666666666667</ele><time>2026-04-19T14:45:04Z</time></trkpt><trkpt lat="40.09452220138692" lon="9.4607618122365"><ele>967.8333333333334</ele><time>2026-04-19T14:45:05Z</time></trkpt><trkpt lat="40.09451084285352" lon="9.460653742889765"><ele>966.0</ele><time>2026-04-19T14:45:06Z</time></trkpt><trkpt lat="40.09452172379014" lon="9.460546765860888"><ele>964.8</ele><time>2026-04-19T14:45:07Z</time></trkpt><trkpt lat="40.09456185379577" lon="9.460442518135812"><ele>963.5999999999999</ele><time>2026-04-19T14:45:08Z</time></trkpt><trkpt lat="40.094618260201614" lon="9.460334555825368"><ele>962.4</ele><time>2026-04-19T14:45:09Z</time></trkpt><trkpt lat="40.09468112579199" lon="9.460224006962225"><ele>961.2</ele><time>2026-04-19T14:45:10Z</time></trkpt><trkpt lat="40.0947446920929" lon="9.460103819873352"><ele>960.0</ele><time>2026-04-19T14:45:11Z</time></trkpt><trkpt lat="40.094810584725806" lon="9.459980587099674"><ele>960.0</ele><time>2026-04-19T14:45:12Z</time></trkpt><trkpt lat="40.09487377231917" lon="9.459861468219993"><ele>960.0</ele><time>2026-04-19T14:45:13Z</time></trkpt><trkpt lat="40.09493128031743" lon="9.459748935457519"><ele>960.0</ele><time>2026-04-19T14:45:14Z</time></trkpt><trkpt lat="40.09497846762231" lon="9.459642019993426"><ele>960.0</ele><time>2026-04-19T14:45:15Z</time></trkpt><trkpt lat="40.095005850917346" lon="9.459556354958336"><ele>960.0</ele><time>2026-04-19T14:45:16Z</time></trkpt><trkpt lat="40.09502813861479" lon="9.459478268522886"><ele>960.0</ele><time>2026-04-19T14:45:17Z</time></trkpt><trkpt lat="40.095062914139454" lon="9.459390880102426"><ele>959.5</ele><time>2026-04-19T14:45:18Z</time></trkpt><trkpt lat="40.0950893037174" lon="9.45930279316546"><ele>959.0</ele><time>2026-04-19T14:45:19Z</time></trkpt><trkpt lat="40.09510759540968" lon="9.459213688019359"><ele>958.5</ele><time>2026-04-19T14:45:20Z</time></trkpt><trkpt lat="40.09510382724078" lon="9.459107138016714"><ele>958.0</ele><time>2026-04-19T14:45:21Z</time></trkpt><trkpt lat="40.095084165435935" lon="9.458996075606597"><ele>957.5</ele><time>2026-04-19T14:45:22Z</time></trkpt><trkpt lat="40.09506838985699" lon="9.458884137589122"><ele>957.0</ele><time>2026-04-19T14:45:23Z</time></trkpt><trkpt lat="40.095056286266946" lon="9.458766892943396"><ele>956.6</ele><time>2026-04-19T14:45:24Z</time></trkpt><trkpt lat="40.09504610826348" lon="9.458646792986048"><ele>956.2</ele><time>2026-04-19T14:45:25Z</time></trkpt><trkpt lat="40.095038982134454" lon="9.458523939177535"><ele>955.8</ele><time>2026-04-19T14:45:26Z</time></trkpt><trkpt lat="40.09503087357147" lon="9.458398686083775"><ele>955.4</ele><time>2026-04-19T14:45:27Z</time></trkpt><trkpt lat="40.09502159337414" lon="9.45827408942285"><ele>955.0</ele><time>2026-04-19T14:45:28Z</time></trkpt><trkpt lat="40.095016379112195" lon="9.458159697286025"><ele>954.9999999999999</ele><time>2026-04-19T14:45:29Z</time></trkpt><trkpt lat="40.095025149166474" lon="9.458054775877182"><ele>955.0</ele><time>2026-04-19T14:45:29.999Z</time></trkpt><trkpt lat="40.0950484762654" lon="9.457949294100308"><ele>955.0</ele><time>2026-04-19T14:45:30.999Z</time></trkpt><trkpt lat="40.09508322553886" lon="9.457844491192523"><ele>955.0</ele><time>2026-04-19T14:45:31.999Z</time></trkpt><trkpt lat="40.095118732935724" lon="9.45773729175613"><ele>954.9999999999999</ele><time>2026-04-19T14:45:32.999Z</time></trkpt><trkpt lat="40.09514990569746" lon="9.457623527051199"><ele>955.0</ele><time>2026-04-19T14:45:33.999Z</time></trkpt><trkpt lat="40.09518628955523" lon="9.457514840661188"><ele>955.0</ele><time>2026-04-19T14:45:34.999Z</time></trkpt><trkpt lat="40.0952324996352" lon="9.457396469831185"><ele>955.0</ele><time>2026-04-19T14:45:35.999Z</time></trkpt><trkpt lat="40.095288642528054" lon="9.457283139372215"><ele>955.0</ele><time>2026-04-19T14:45:36.999Z</time></trkpt><trkpt lat="40.09535156000085" lon="9.457181666853005"><ele>955.0</ele><time>2026-04-19T14:45:37.999Z</time></trkpt><trkpt lat="40.095414840272824" lon="9.457090473223182"><ele>955.0</ele><time>2026-04-19T14:45:38.999Z</time></trkpt><trkpt lat="40.09546339411221" lon="9.457009139463052"><ele>955.0</ele><time>2026-04-19T14:45:39.999Z</time></trkpt><trkpt lat="40.09553784190356" lon="9.4570040653759"><ele>955.0</ele><time>2026-04-19T14:46:01.999Z</time></trkpt><trkpt lat="40.095609004131354" lon="9.456962396445379"><ele>955.0</ele><time>2026-04-19T14:46:03.999Z</time></trkpt><trkpt lat="40.09568094496786" lon="9.456852059395002"><ele>955.0</ele><time>2026-04-19T14:46:05.999Z</time></trkpt><trkpt lat="40.09574155468845" lon="9.456722610437085"><ele>955.0</ele><time>2026-04-19T14:46:07.999Z</time></trkpt><trkpt lat="40.095812613846235" lon="9.456610177218616"><ele>954.4</ele><time>2026-04-19T14:46:09.999Z</time></trkpt><trkpt lat="40.09589221469074" lon="9.456498608934918"><ele>953.8</ele><time>2026-04-19T14:46:11.999Z</time></trkpt><trkpt lat="40.09593359188222" lon="9.456432934862665"><ele>953.2</ele><time>2026-04-19T14:46:12.999Z</time></trkpt><trkpt lat="40.09600417302607" lon="9.456319349522353"><ele>952.6</ele><time>2026-04-19T14:46:14.999Z</time></trkpt><trkpt lat="40.096069380944215" lon="9.456238643936176"><ele>952.0</ele><time>2026-04-19T14:46:16.999Z</time></trkpt><trkpt lat="40.09613074382592" lon="9.45617440853949"><ele>951.9999999999999</ele><time>2026-04-19T14:46:18.999Z</time></trkpt><trkpt lat="40.09619789906472" lon="9.456115601915513"><ele>952.0</ele><time>2026-04-19T14:46:21.999Z</time></trkpt><trkpt lat="40.09625830617206" lon="9.45607747378751"><ele>952.0</ele><time>2026-04-19T14:46:23.999Z</time></trkpt><trkpt lat="40.09631672435667" lon="9.456042177024523"><ele>952.0</ele><time>2026-04-19T14:46:26.999Z</time></trkpt><trkpt lat="40.09636374312909" lon="9.455951630852445"><ele>951.9999999999999</ele><time>2026-04-19T14:46:31Z</time></trkpt><trkpt lat="40.09640448854429" lon="9.455861460858275"><ele>952.0</ele><time>2026-04-19T14:46:34Z</time></trkpt><trkpt lat="40.096430222326916" lon="9.455766585531503"><ele>952.0</ele><time>2026-04-19T14:46:37Z</time></trkpt><trkpt lat="40.0964430496327" lon="9.455677417659514"><ele>952.0</ele><time>2026-04-19T14:46:39Z</time></trkpt><trkpt lat="40.096463369830495" lon="9.45558667973094"><ele>952.0</ele><time>2026-04-19T14:46:41Z</time></trkpt><trkpt lat="40.096462540989315" lon="9.455489221170348"><ele>952.0</ele><time>2026-04-19T14:46:43Z</time></trkpt><trkpt lat="40.096441707354415" lon="9.455391252703897"><ele>952.0</ele><time>2026-04-19T14:46:46Z</time></trkpt><trkpt lat="40.0964204963532" lon="9.455307181034868"><ele>952.0</ele><time>2026-04-19T14:46:49Z</time></trkpt><trkpt lat="40.09640887393449" lon="9.455197080790118"><ele>952.0</ele><time>2026-04-19T14:46:52Z</time></trkpt><trkpt lat="40.096402302856205" lon="9.455104996801316"><ele>952.4999999999999</ele><time>2026-04-19T14:46:54Z</time></trkpt><trkpt lat="40.09640189614734" lon="9.455022490502516"><ele>953.0</ele><time>2026-04-19T14:46:56Z</time></trkpt><trkpt lat="40.09640487152271" lon="9.45491739385117"><ele>953.5</ele><time>2026-04-19T14:47:00Z</time></trkpt><trkpt lat="40.09641123024587" lon="9.454819556254689"><ele>954.0</ele><time>2026-04-19T14:47:03Z</time></trkpt><trkpt lat="40.096418278777854" lon="9.454733485205406"><ele>954.4999999999999</ele><time>2026-04-19T14:47:06Z</time></trkpt><trkpt lat="40.09643337663827" lon="9.454621661742909"><ele>955.0</ele><time>2026-04-19T14:47:09Z</time></trkpt><trkpt lat="40.096478769284715" lon="9.454539066262551"><ele>954.9999999999999</ele><time>2026-04-19T14:47:12Z</time></trkpt><trkpt lat="40.09639876607872" lon="9.45458318649563"><ele>955.0</ele><time>2026-04-19T14:47:16Z</time></trkpt><trkpt lat="40.09640736475169" lon="9.454676392830862"><ele>954.9999999999999</ele><time>2026-04-19T14:47:18Z</time></trkpt><trkpt lat="40.09640276866735" lon="9.454777598383666"><ele>954.9999999999999</ele><time>2026-04-19T14:47:23Z</time></trkpt><trkpt lat="40.096408356583915" lon="9.454864209364633"><ele>955.0</ele><time>2026-04-19T14:47:26Z</time></trkpt><trkpt lat="40.09640106600906" lon="9.45496111887129"><ele>954.9999999999999</ele><time>2026-04-19T14:47:29Z</time></trkpt><trkpt lat="40.096398107873824" lon="9.455048471200833"><ele>954.9999999999999</ele><time>2026-04-19T14:47:31Z</time></trkpt><trkpt lat="40.09639493741295" lon="9.45514027170617"><ele>954.9999999999999</ele><time>2026-04-19T14:47:33Z</time></trkpt><trkpt lat="40.09640344701708" lon="9.455244441371038"><ele>955.0</ele><time>2026-04-19T14:47:34.999Z</time></trkpt><trkpt lat="40.09642151986854" lon="9.455344989652986"><ele>955.0</ele><time>2026-04-19T14:47:37.999Z</time></trkpt><trkpt lat="40.09645528481751" lon="9.4554585834096"><ele>955.0</ele><time>2026-04-19T14:47:40.999Z</time></trkpt><trkpt lat="40.096447197319094" lon="9.455546437674066"><ele>954.9999999999999</ele><time>2026-04-19T14:47:49.999Z</time></trkpt><trkpt lat="40.09644649259827" lon="9.455647343583863"><ele>955.0</ele><time>2026-04-19T14:47:51.999Z</time></trkpt><trkpt lat="40.09641885862163" lon="9.455764646278745"><ele>954.4999999999999</ele><time>2026-04-19T14:47:53.999Z</time></trkpt><trkpt lat="40.09639457548637" lon="9.45586068109278"><ele>954.0</ele><time>2026-04-19T14:47:55.999Z</time></trkpt><trkpt lat="40.09635650425867" lon="9.455951238819278"><ele>953.5</ele><time>2026-04-19T14:47:58.999Z</time></trkpt><trkpt lat="40.09630676258268" lon="9.45601782224563"><ele>953.0</ele><time>2026-04-19T14:48:02.999Z</time></trkpt><trkpt lat="40.09624253454416" lon="9.456087482693034"><ele>952.4999999999999</ele><time>2026-04-19T14:48:05.999Z</time></trkpt><trkpt lat="40.0961752994399" lon="9.45612166211031"><ele>952.0</ele><time>2026-04-19T14:48:07.999Z</time></trkpt><trkpt lat="40.09610982071106" lon="9.456188921505342"><ele>951.9999999999999</ele><time>2026-04-19T14:48:09.999Z</time></trkpt><trkpt lat="40.096029861878456" lon="9.456272638958847"><ele>952.0</ele><time>2026-04-19T14:48:11.999Z</time></trkpt><trkpt lat="40.09594725314101" lon="9.456392144852295"><ele>952.0</ele><time>2026-04-19T14:48:13.999Z</time></trkpt><trkpt lat="40.095910435221505" lon="9.456470121844024"><ele>952.0</ele><time>2026-04-19T14:48:14.999Z</time></trkpt><trkpt lat="40.09586592709322" lon="9.456547624212618"><ele>951.9999999999999</ele><time>2026-04-19T14:48:15.999Z</time></trkpt><trkpt lat="40.0958225095404" lon="9.45661640860123"><ele>952.0</ele><time>2026-04-19T14:48:16.999Z</time></trkpt><trkpt lat="40.095735414608235" lon="9.45672514883119"><ele>952.6</ele><time>2026-04-19T14:48:18.999Z</time></trkpt><trkpt lat="40.095661845810994" lon="9.456861828586362"><ele>953.2</ele><time>2026-04-19T14:48:20.999Z</time></trkpt><trkpt lat="40.09562186545506" lon="9.456927779986371"><ele>953.8</ele><time>2026-04-19T14:48:21.999Z</time></trkpt><trkpt lat="40.09552084529159" lon="9.457014712022508"><ele>954.4</ele><time>2026-04-19T14:48:23.999Z</time></trkpt><trkpt lat="40.095455993370386" lon="9.457016394908871"><ele>955.0</ele><time>2026-04-19T14:48:26.999Z</time></trkpt><trkpt lat="40.09538920088273" lon="9.45709540069378"><ele>955.0</ele><time>2026-04-19T14:48:32.999Z</time></trkpt><trkpt lat="40.09533847702404" lon="9.457187418557089"><ele>955.0</ele><time>2026-04-19T14:48:35Z</time></trkpt><trkpt lat="40.09529106228766" lon="9.457263644103058"><ele>955.0</ele><time>2026-04-19T14:48:37Z</time></trkpt><trkpt lat="40.09535853270322" lon="9.457179225600807"><ele>955.0</ele><time>2026-04-19T14:49:10Z</time></trkpt><trkpt lat="40.09542066939956" lon="9.457066054710124"><ele>955.0</ele><time>2026-04-19T14:49:12Z</time></trkpt><trkpt lat="40.09547653578562" lon="9.456951629035588"><ele>955.0</ele><time>2026-04-19T14:49:14Z</time></trkpt><trkpt lat="40.095489932035186" lon="9.456837529594415"><ele>955.0</ele><time>2026-04-19T14:49:16Z</time></trkpt><trkpt lat="40.095477752118605" lon="9.456707025895927"><ele>955.0</ele><time>2026-04-19T14:49:18Z</time></trkpt><trkpt lat="40.09543593067995" lon="9.456521777481141"><ele>955.0</ele><time>2026-04-19T14:49:20Z</time></trkpt><trkpt lat="40.09540713443262" lon="9.456446946691697"><ele>955.0</ele><time>2026-04-19T14:49:21Z</time></trkpt><trkpt lat="40.095322713044204" lon="9.456348504483792"><ele>954.6</ele><time>2026-04-19T14:49:23Z</time></trkpt><trkpt lat="40.09524433812607" lon="9.456260861506992"><ele>954.2</ele><time>2026-04-19T14:49:25Z</time></trkpt><trkpt lat="40.09517930840221" lon="9.456140279923723"><ele>953.8</ele><time>2026-04-19T14:49:27Z</time></trkpt><trkpt lat="40.095105689466386" lon="9.455998325721676"><ele>953.4</ele><time>2026-04-19T14:49:29Z</time></trkpt><trkpt lat="40.09505567759202" lon="9.455931987385819"><ele>953.0</ele><time>2026-04-19T14:49:30Z</time></trkpt><trkpt lat="40.095003348011225" lon="9.455866136430734"><ele>953.0000000000001</ele><time>2026-04-19T14:49:31Z</time></trkpt><trkpt lat="40.09494915605998" lon="9.455803466204713"><ele>953.0</ele><time>2026-04-19T14:49:32Z</time></trkpt><trkpt lat="40.094885610398634" lon="9.455739480975796"><ele>953.0</ele><time>2026-04-19T14:49:33Z</time></trkpt><trkpt lat="40.09482504816828" lon="9.455671929796345"><ele>953.0</ele><time>2026-04-19T14:49:34Z</time></trkpt><trkpt lat="40.09477006393082" lon="9.45560166131448"><ele>953.0000000000001</ele><time>2026-04-19T14:49:35Z</time></trkpt><trkpt lat="40.09471144703683" lon="9.45553818411154"><ele>953.0</ele><time>2026-04-19T14:49:36Z</time></trkpt><trkpt lat="40.09466333505526" lon="9.455454852374292"><ele>953.1666666666667</ele><time>2026-04-19T14:49:37Z</time></trkpt><trkpt lat="40.094601930018946" lon="9.45538849396779"><ele>953.3333333333334</ele><time>2026-04-19T14:49:38Z</time></trkpt><trkpt lat="40.094537269161705" lon="9.455328888340171"><ele>953.5</ele><time>2026-04-19T14:49:38.999Z</time></trkpt><trkpt lat="40.09446952453778" lon="9.45527817364623"><ele>953.6666666666667</ele><time>2026-04-19T14:49:39.999Z</time></trkpt><trkpt lat="40.09439564240576" lon="9.455230466117289"><ele>953.8333333333334</ele><time>2026-04-19T14:49:40.999Z</time></trkpt><trkpt lat="40.09431731020363" lon="9.455184472631334"><ele>954.0</ele><time>2026-04-19T14:49:41.999Z</time></trkpt><trkpt lat="40.09423849584238" lon="9.455136720791604"><ele>954.0</ele><time>2026-04-19T14:49:42.999Z</time></trkpt><trkpt lat="40.09415826738909" lon="9.455093721603214"><ele>954.0</ele><time>2026-04-19T14:49:43.999Z</time></trkpt><trkpt lat="40.09407708098306" lon="9.455050638586854"><ele>954.0</ele><time>2026-04-19T14:49:44.999Z</time></trkpt><trkpt lat="40.09400740739622" lon="9.454990008851722"><ele>954.0</ele><time>2026-04-19T14:49:45.999Z</time></trkpt><trkpt lat="40.09393760785123" lon="9.454934233814607"><ele>954.0</ele><time>2026-04-19T14:49:46.999Z</time></trkpt><trkpt lat="40.09385778807917" lon="9.454895863322067"><ele>954.0</ele><time>2026-04-19T14:49:47.999Z</time></trkpt><trkpt lat="40.09377955224848" lon="9.454858221885406"><ele>954.5</ele><time>2026-04-19T14:49:48.999Z</time></trkpt><trkpt lat="40.09369665248495" lon="9.454839166076644"><ele>955.0</ele><time>2026-04-19T14:49:49.999Z</time></trkpt><trkpt lat="40.09361220722742" lon="9.454831947000184"><ele>955.5</ele><time>2026-04-19T14:49:50.999Z</time></trkpt><trkpt lat="40.093525706883874" lon="9.454817581922313"><ele>956.0</ele><time>2026-04-19T14:49:51.999Z</time></trkpt><trkpt lat="40.093442927089505" lon="9.454786254636597"><ele>956.5</ele><time>2026-04-19T14:49:52.999Z</time></trkpt><trkpt lat="40.09336601619748" lon="9.454749516278966"><ele>957.0</ele><time>2026-04-19T14:49:53.999Z</time></trkpt><trkpt lat="40.09330204432161" lon="9.454716609923098"><ele>957.4000000000001</ele><time>2026-04-19T14:49:54.999Z</time></trkpt><trkpt lat="40.09320237261112" lon="9.454661751947345"><ele>957.8000000000001</ele><time>2026-04-19T14:49:56.999Z</time></trkpt><trkpt lat="40.093112045851164" lon="9.454620856123848"><ele>958.2</ele><time>2026-04-19T14:49:58.999Z</time></trkpt><trkpt lat="40.092988045926795" lon="9.454574605541481"><ele>958.6</ele><time>2026-04-19T14:50:00.999Z</time></trkpt><trkpt lat="40.09287322531141" lon="9.454550155236348"><ele>959.0</ele><time>2026-04-19T14:50:02.999Z</time></trkpt><trkpt lat="40.092786304505836" lon="9.454525236564374"><ele>959.0000000000001</ele><time>2026-04-19T14:50:04.999Z</time></trkpt><trkpt lat="40.09270765890712" lon="9.454503749346443"><ele>959.0</ele><time>2026-04-19T14:50:06.999Z</time></trkpt><trkpt lat="40.09263212701205" lon="9.454472098380808"><ele>959.0</ele><time>2026-04-19T14:50:08.999Z</time></trkpt><trkpt lat="40.09256561899574" lon="9.454449078503432"><ele>959.0</ele><time>2026-04-19T14:50:10.999Z</time></trkpt><trkpt lat="40.09247937062804" lon="9.454438209020706"><ele>959.0000000000001</ele><time>2026-04-19T14:50:13.999Z</time></trkpt><trkpt lat="40.09238075605419" lon="9.454440983744838"><ele>959.0</ele><time>2026-04-19T14:50:15.999Z</time></trkpt><trkpt lat="40.092257847794215" lon="9.454393561049857"><ele>959.2857142857142</ele><time>2026-04-19T14:50:17.999Z</time></trkpt><trkpt lat="40.09219094195878" lon="9.454368251672518"><ele>959.5714285714286</ele><time>2026-04-19T14:50:18.999Z</time></trkpt><trkpt lat="40.09212699119193" lon="9.454345365084407"><ele>959.8571428571429</ele><time>2026-04-19T14:50:19.999Z</time></trkpt><trkpt lat="40.09206138052947" lon="9.454339276082491"><ele>960.1428571428571</ele><time>2026-04-19T14:50:20.999Z</time></trkpt><trkpt lat="40.0919892118027" lon="9.454332644759354"><ele>960.4285714285713</ele><time>2026-04-19T14:50:21.999Z</time></trkpt><trkpt lat="40.091917195267314" lon="9.454319392260256"><ele>960.7142857142857</ele><time>2026-04-19T14:50:22.999Z</time></trkpt><trkpt lat="40.09184086961856" lon="9.454307569301074"><ele>961.0</ele><time>2026-04-19T14:50:23.999Z</time></trkpt><trkpt lat="40.09176470572699" lon="9.454300664404311"><ele>960.9999999999999</ele><time>2026-04-19T14:50:24.999Z</time></trkpt><trkpt lat="40.09168485061952" lon="9.454291432093042"><ele>961.0</ele><time>2026-04-19T14:50:25.999Z</time></trkpt><trkpt lat="40.09160299254531" lon="9.454284051530086"><ele>961.0</ele><time>2026-04-19T14:50:26.999Z</time></trkpt><trkpt lat="40.09152049372868" lon="9.454277611424768"><ele>961.0</ele><time>2026-04-19T14:50:27.999Z</time></trkpt><trkpt lat="40.091443392916645" lon="9.454267283970186"><ele>960.9999999999999</ele><time>2026-04-19T14:50:28.999Z</time></trkpt><trkpt lat="40.09137752400901" lon="9.454261442446692"><ele>961.0</ele><time>2026-04-19T14:50:29.999Z</time></trkpt><trkpt lat="40.09130757576337" lon="9.454245965578775"><ele>961.1666666666666</ele><time>2026-04-19T14:50:30.999Z</time></trkpt><trkpt lat="40.091235474449334" lon="9.454219330986087"><ele>961.3333333333333</ele><time>2026-04-19T14:50:31.999Z</time></trkpt><trkpt lat="40.091161022184345" lon="9.45420264990328"><ele>961.5</ele><time>2026-04-19T14:50:32.999Z</time></trkpt><trkpt lat="40.091080901971104" lon="9.454191012050714"><ele>961.6666666666667</ele><time>2026-04-19T14:50:33.999Z</time></trkpt><trkpt lat="40.09100121723215" lon="9.454182151706531"><ele>961.8333333333334</ele><time>2026-04-19T14:50:34.999Z</time></trkpt><trkpt lat="40.09092292341493" lon="9.454172782285578"><ele>962.0</ele><time>2026-04-19T14:50:35.999Z</time></trkpt><trkpt lat="40.090850258751" lon="9.454156039721264"><ele>961.9999999999999</ele><time>2026-04-19T14:50:36.999Z</time></trkpt><trkpt lat="40.09077890647784" lon="9.45414049990235"><ele>962.0</ele><time>2026-04-19T14:50:37.999Z</time></trkpt><trkpt lat="40.090709130246466" lon="9.454123354467807"><ele>961.9999999999999</ele><time>2026-04-19T14:50:38.999Z</time></trkpt><trkpt lat="40.09064222738928" lon="9.45410788258484"><ele>961.9999999999999</ele><time>2026-04-19T14:50:40Z</time></trkpt><trkpt lat="40.090570388621906" lon="9.454097957159481"><ele>962.0</ele><time>2026-04-19T14:50:41Z</time></trkpt><trkpt lat="40.090503386072186" lon="9.454089140101896"><ele>961.9999999999999</ele><time>2026-04-19T14:50:42Z</time></trkpt><trkpt lat="40.09042863499769" lon="9.454084059987775"><ele>961.9999999999999</ele><time>2026-04-19T14:50:43Z</time></trkpt><trkpt lat="40.09036028147838" lon="9.454079756045298"><ele>962.5000000000001</ele><time>2026-04-19T14:50:44Z</time></trkpt><trkpt lat="40.09028267640022" lon="9.454081621855387"><ele>963.0</ele><time>2026-04-19T14:50:45Z</time></trkpt><trkpt lat="40.090209606067674" lon="9.45407808680451"><ele>963.5</ele><time>2026-04-19T14:50:46Z</time></trkpt><trkpt lat="40.090131991352635" lon="9.454079464228995"><ele>964.0</ele><time>2026-04-19T14:50:47Z</time></trkpt><trkpt lat="40.09005102993421" lon="9.45409593061885"><ele>964.5000000000001</ele><time>2026-04-19T14:50:48Z</time></trkpt><trkpt lat="40.0899700003096" lon="9.454122228249709"><ele>965.0</ele><time>2026-04-19T14:50:49Z</time></trkpt><trkpt lat="40.08988599920882" lon="9.454143720788828"><ele>965.2</ele><time>2026-04-19T14:50:50Z</time></trkpt><trkpt lat="40.08980396415861" lon="9.454166268836904"><ele>965.4</ele><time>2026-04-19T14:50:51Z</time></trkpt><trkpt lat="40.08972957531311" lon="9.45418209070067"><ele>965.5999999999999</ele><time>2026-04-19T14:50:52Z</time></trkpt><trkpt lat="40.08966526302473" lon="9.454194722938466"><ele>965.8</ele><time>2026-04-19T14:50:53Z</time></trkpt><trkpt lat="40.08955096676355" lon="9.454230653184402"><ele>966.0</ele><time>2026-04-19T14:50:55Z</time></trkpt><trkpt lat="40.089442854148" lon="9.454255856048608"><ele>966.0</ele><time>2026-04-19T14:50:57Z</time></trkpt><trkpt lat="40.08937543902887" lon="9.454275762662922"><ele>966.0</ele><time>2026-04-19T14:50:58Z</time></trkpt><trkpt lat="40.08930881155219" lon="9.454295873164218"><ele>966.0</ele><time>2026-04-19T14:50:59Z</time></trkpt><trkpt lat="40.089246625573516" lon="9.454313341694197"><ele>966.0</ele><time>2026-04-19T14:51:00Z</time></trkpt><trkpt lat="40.089187452814066" lon="9.454357493138096"><ele>966.0</ele><time>2026-04-19T14:51:01Z</time></trkpt><trkpt lat="40.089133143275134" lon="9.45441079540975"><ele>966.0</ele><time>2026-04-19T14:51:02Z</time></trkpt><trkpt lat="40.089049161124834" lon="9.454508920340666"><ele>966.1666666666666</ele><time>2026-04-19T14:51:04Z</time></trkpt><trkpt lat="40.088933512990245" lon="9.454561295305457"><ele>966.3333333333333</ele><time>2026-04-19T14:51:06Z</time></trkpt><trkpt lat="40.08886789413331" lon="9.454583899833702"><ele>966.5</ele><time>2026-04-19T14:51:07Z</time></trkpt><trkpt lat="40.088798881798056" lon="9.454594091929664"><ele>966.6666666666666</ele><time>2026-04-19T14:51:08Z</time></trkpt><trkpt lat="40.08873131661164" lon="9.454585484737876"><ele>966.8333333333333</ele><time>2026-04-19T14:51:09Z</time></trkpt><trkpt lat="40.08866212869737" lon="9.454570548409384"><ele>967.0</ele><time>2026-04-19T14:51:10Z</time></trkpt><trkpt lat="40.08858842227797" lon="9.454552090393163"><ele>966.9999999999999</ele><time>2026-04-19T14:51:11Z</time></trkpt><trkpt lat="40.088515138168276" lon="9.454514462561326"><ele>967.0</ele><time>2026-04-19T14:51:12Z</time></trkpt><trkpt lat="40.08844123331811" lon="9.454482138024149"><ele>967.0</ele><time>2026-04-19T14:51:13Z</time></trkpt><trkpt lat="40.08836782478722" lon="9.454451146091618"><ele>967.0</ele><time>2026-04-19T14:51:14Z</time></trkpt><trkpt lat="40.0882997461847" lon="9.454413467664095"><ele>966.9999999999999</ele><time>2026-04-19T14:51:15Z</time></trkpt><trkpt lat="40.08824460851085" lon="9.454368520480266"><ele>967.0</ele><time>2026-04-19T14:51:16Z</time></trkpt><trkpt lat="40.08815173699323" lon="9.454302827287913"><ele>969.2</ele><time>2026-04-19T14:51:18Z</time></trkpt><trkpt lat="40.088048082162445" lon="9.454239358172822"><ele>971.4000000000001</ele><time>2026-04-19T14:51:20Z</time></trkpt><trkpt lat="40.08793520536279" lon="9.454227834904554"><ele>973.5999999999999</ele><time>2026-04-19T14:51:22Z</time></trkpt><trkpt lat="40.0878566714849" lon="9.454182766221859"><ele>975.8</ele><time>2026-04-19T14:51:25Z</time></trkpt><trkpt lat="40.08775736217875" lon="9.454096607966298"><ele>978.0</ele><time>2026-04-19T14:51:27Z</time></trkpt><trkpt lat="40.087697286967625" lon="9.45405307392059"><ele>978.0</ele><time>2026-04-19T14:51:28Z</time></trkpt><trkpt lat="40.087634203507" lon="9.454013355915865"><ele>978.0000000000001</ele><time>2026-04-19T14:51:29Z</time></trkpt><trkpt lat="40.087571430345896" lon="9.45396852670954"><ele>978.0</ele><time>2026-04-19T14:51:30Z</time></trkpt><trkpt lat="40.0875134688646" lon="9.453909628139225"><ele>978.0</ele><time>2026-04-19T14:51:31Z</time></trkpt><trkpt lat="40.08745439604274" lon="9.45384966039768"><ele>978.0000000000001</ele><time>2026-04-19T14:51:32Z</time></trkpt><trkpt lat="40.087395919203125" lon="9.453789294397458"><ele>978.0</ele><time>2026-04-19T14:51:33Z</time></trkpt><trkpt lat="40.08734142611252" lon="9.453728431114905"><ele>978.0</ele><time>2026-04-19T14:51:34Z</time></trkpt><trkpt lat="40.08728453576033" lon="9.45366229682663"><ele>977.7142857142858</ele><time>2026-04-19T14:51:35Z</time></trkpt><trkpt lat="40.087230492726704" lon="9.453589916745136"><ele>977.4285714285716</ele><time>2026-04-19T14:51:36Z</time></trkpt><trkpt lat="40.087175276942425" lon="9.453521559712978"><ele>977.1428571428571</ele><time>2026-04-19T14:51:37Z</time></trkpt><trkpt lat="40.087117019232934" lon="9.45346249564394"><ele>976.8571428571429</ele><time>2026-04-19T14:51:38Z</time></trkpt><trkpt lat="40.08706572233026" lon="9.453399439410676"><ele>976.5714285714286</ele><time>2026-04-19T14:51:39Z</time></trkpt><trkpt lat="40.087016604855854" lon="9.453346113363896"><ele>976.2857142857142</ele><time>2026-04-19T14:51:40Z</time></trkpt><trkpt lat="40.086957411967234" lon="9.453300684141015"><ele>975.9999999999999</ele><time>2026-04-19T14:51:40.999Z</time></trkpt><trkpt lat="40.08689723591989" lon="9.453267320055037"><ele>975.9999999999999</ele><time>2026-04-19T14:51:41.999Z</time></trkpt><trkpt lat="40.0868354939919" lon="9.453243176596125"><ele>976.0</ele><time>2026-04-19T14:51:42.999Z</time></trkpt><trkpt lat="40.08677110723391" lon="9.453221885068334"><ele>975.9999999999999</ele><time>2026-04-19T14:51:43.999Z</time></trkpt><trkpt lat="40.086708799879915" lon="9.45319150679735"><ele>975.9999999999999</ele><time>2026-04-19T14:51:44.999Z</time></trkpt><trkpt lat="40.086649598487064" lon="9.453148198905392"><ele>976.0</ele><time>2026-04-19T14:51:45.999Z</time></trkpt><trkpt lat="40.086593780773036" lon="9.453102168930485"><ele>975.9999999999999</ele><time>2026-04-19T14:51:46.999Z</time></trkpt><trkpt lat="40.0865354808509" lon="9.45305528426386"><ele>975.9999999999999</ele><time>2026-04-19T14:51:47.999Z</time></trkpt><trkpt lat="40.0864739050423" lon="9.453012228005658"><ele>975.1999999999999</ele><time>2026-04-19T14:51:48.999Z</time></trkpt><trkpt lat="40.08641453411027" lon="9.452965600845914"><ele>974.3999999999999</ele><time>2026-04-19T14:51:49.999Z</time></trkpt><trkpt lat="40.086343541165334" lon="9.452858242770986"><ele>973.6</ele><time>2026-04-19T14:51:51.999Z</time></trkpt><trkpt lat="40.08626572286297" lon="9.452775364832375"><ele>972.8</ele><time>2026-04-19T14:51:53.999Z</time></trkpt><trkpt lat="40.086139956147925" lon="9.452717165577353"><ele>972.0</ele><time>2026-04-19T14:51:55.999Z</time></trkpt><trkpt lat="40.08607417099036" lon="9.452709409533398"><ele>972.0</ele><time>2026-04-19T14:51:56.999Z</time></trkpt><trkpt lat="40.086007936685" lon="9.45272060644999"><ele>972.0</ele><time>2026-04-19T14:51:57.999Z</time></trkpt><trkpt lat="40.08594129999512" lon="9.4527312664537"><ele>972.0</ele><time>2026-04-19T14:51:58.999Z</time></trkpt><trkpt lat="40.085863235373694" lon="9.452720307831054"><ele>972.0</ele><time>2026-04-19T14:51:59.999Z</time></trkpt><trkpt lat="40.08579120554143" lon="9.45271864096661"><ele>972.0</ele><time>2026-04-19T14:52:00.999Z</time></trkpt><trkpt lat="40.085714140343526" lon="9.45272403757231"><ele>972.0</ele><time>2026-04-19T14:52:01.999Z</time></trkpt><trkpt lat="40.08564292590652" lon="9.452727381790755"><ele>972.0</ele><time>2026-04-19T14:52:02.999Z</time></trkpt><trkpt lat="40.085529291379224" lon="9.452728643615833"><ele>972.1666666666666</ele><time>2026-04-19T14:52:04.999Z</time></trkpt><trkpt lat="40.08543259930925" lon="9.452743649666921"><ele>972.3333333333333</ele><time>2026-04-19T14:52:06.999Z</time></trkpt><trkpt lat="40.085363815250254" lon="9.452765335408538"><ele>972.5</ele><time>2026-04-19T14:52:08.999Z</time></trkpt><trkpt lat="40.08528018391605" lon="9.452761831911417"><ele>972.6666666666666</ele><time>2026-04-19T14:52:11.999Z</time></trkpt><trkpt lat="40.08521923490749" lon="9.452723859439192"><ele>972.8333333333333</ele><time>2026-04-19T14:52:40.999Z</time></trkpt><trkpt lat="40.08518681853629" lon="9.452641046422631"><ele>973.0</ele><time>2026-04-19T14:52:44.999Z</time></trkpt><trkpt lat="40.085155384005745" lon="9.452565726410944"><ele>973.0</ele><time>2026-04-19T14:52:48Z</time></trkpt><trkpt lat="40.08509984556795" lon="9.452491007491979"><ele>973.0</ele><time>2026-04-19T14:52:51Z</time></trkpt><trkpt lat="40.08500710025511" lon="9.452465634544685"><ele>973.0</ele><time>2026-04-19T14:52:54Z</time></trkpt><trkpt lat="40.08492378247742" lon="9.452494103133176"><ele>973.0</ele><time>2026-04-19T14:52:56Z</time></trkpt><trkpt lat="40.08481559162916" lon="9.452488142574959"><ele>973.0</ele><time>2026-04-19T14:52:58Z</time></trkpt><trkpt lat="40.08471580760516" lon="9.452506051573767"><ele>974.4</ele><time>2026-04-19T14:53:00Z</time></trkpt><trkpt lat="40.084615275298695" lon="9.452513596676015"><ele>975.8</ele><time>2026-04-19T14:53:02Z</time></trkpt><trkpt lat="40.08451226569257" lon="9.452507423854062"><ele>977.2</ele><time>2026-04-19T14:53:04Z</time></trkpt><trkpt lat="40.08440395578032" lon="9.45248676053054"><ele>978.6</ele><time>2026-04-19T14:53:06Z</time></trkpt><trkpt lat="40.08429106577379" lon="9.452495913587752"><ele>980.0</ele><time>2026-04-19T14:53:08Z</time></trkpt><trkpt lat="40.084193079543304" lon="9.452564113541184"><ele>980.1666666666667</ele><time>2026-04-19T14:53:10Z</time></trkpt><trkpt lat="40.08409331482668" lon="9.452646202718554"><ele>980.3333333333334</ele><time>2026-04-19T14:53:12Z</time></trkpt><trkpt lat="40.084032884485545" lon="9.45268185622522"><ele>980.5</ele><time>2026-04-19T14:53:13Z</time></trkpt><trkpt lat="40.0839639098347" lon="9.452710137748053"><ele>980.6666666666667</ele><time>2026-04-19T14:53:14Z</time></trkpt><trkpt lat="40.08389574167629" lon="9.452726593359627"><ele>980.8333333333334</ele><time>2026-04-19T14:53:15Z</time></trkpt><trkpt lat="40.08382529687092" lon="9.45273298989411"><ele>981.0</ele><time>2026-04-19T14:53:16Z</time></trkpt><trkpt lat="40.083755559771674" lon="9.452729889862542"><ele>981.0</ele><time>2026-04-19T14:53:17Z</time></trkpt><trkpt lat="40.08369090036824" lon="9.452711575268708"><ele>981.0</ele><time>2026-04-19T14:53:18Z</time></trkpt><trkpt lat="40.083579268469606" lon="9.45271274195202"><ele>981.0</ele><time>2026-04-19T14:53:20Z</time></trkpt><trkpt lat="40.083512338822715" lon="9.452703630462102"><ele>981.0</ele><time>2026-04-19T14:53:22Z</time></trkpt><trkpt lat="40.083431849623935" lon="9.452709249394536"><ele>981.0</ele><time>2026-04-19T14:53:24Z</time></trkpt><trkpt lat="40.08331796450123" lon="9.452661626319344"><ele>981.0</ele><time>2026-04-19T14:53:26Z</time></trkpt><trkpt lat="40.08325865459326" lon="9.452617637258205"><ele>980.5999999999999</ele><time>2026-04-19T14:53:27Z</time></trkpt><trkpt lat="40.08320022665743" lon="9.452572188278438"><ele>980.1999999999999</ele><time>2026-04-19T14:53:28Z</time></trkpt><trkpt lat="40.08313870142756" lon="9.452531446254543"><ele>979.8000000000001</ele><time>2026-04-19T14:53:29Z</time></trkpt><trkpt lat="40.083026266515034" lon="9.452467995556898"><ele>979.4000000000001</ele><time>2026-04-19T14:53:31Z</time></trkpt><trkpt lat="40.082910864544345" lon="9.452399610524495"><ele>979.0</ele><time>2026-04-19T14:53:33Z</time></trkpt><trkpt lat="40.08284927127931" lon="9.452365467079662"><ele>979.0</ele><time>2026-04-19T14:53:34Z</time></trkpt><trkpt lat="40.082787762209975" lon="9.452326927726672"><ele>979.0</ele><time>2026-04-19T14:53:35Z</time></trkpt><trkpt lat="40.0827247708957" lon="9.45228991727108"><ele>979.0</ele><time>2026-04-19T14:53:36Z</time></trkpt><trkpt lat="40.082662857860655" lon="9.452255740269953"><ele>979.0</ele><time>2026-04-19T14:53:37Z</time></trkpt><trkpt lat="40.08260339226499" lon="9.452217555669169"><ele>979.0</ele><time>2026-04-19T14:53:38Z</time></trkpt><trkpt lat="40.082524475050064" lon="9.452163963652906"><ele>979.0</ele><time>2026-04-19T14:53:40Z</time></trkpt><trkpt lat="40.08245671051808" lon="9.452115035721688"><ele>979.0</ele><time>2026-04-19T14:54:13.999Z</time></trkpt><trkpt lat="40.08237701144952" lon="9.452048022760847"><ele>979.8000000000001</ele><time>2026-04-19T14:54:44.999Z</time></trkpt><trkpt lat="40.08230895066143" lon="9.45198132027214"><ele>980.6000000000001</ele><time>2026-04-19T14:54:46.999Z</time></trkpt><trkpt lat="40.082211914164205" lon="9.451896502057705"><ele>981.4</ele><time>2026-04-19T14:54:48.999Z</time></trkpt><trkpt lat="40.08211929620328" lon="9.451814952700651"><ele>982.2</ele><time>2026-04-19T14:54:50.999Z</time></trkpt><trkpt lat="40.082014913088756" lon="9.451731806237687"><ele>983.0</ele><time>2026-04-19T14:54:53Z</time></trkpt><trkpt lat="40.081958162598916" lon="9.451682666134198"><ele>983.0000000000001</ele><time>2026-04-19T14:54:54Z</time></trkpt><trkpt lat="40.08191151370454" lon="9.45162500633324"><ele>983.0</ele><time>2026-04-19T14:54:55Z</time></trkpt><trkpt lat="40.081871466739265" lon="9.45155603100924"><ele>983.0</ele><time>2026-04-19T14:54:56Z</time></trkpt><trkpt lat="40.0817832968323" lon="9.451452302935433"><ele>983.0</ele><time>2026-04-19T14:54:58Z</time></trkpt><trkpt lat="40.08168114972222" lon="9.451419539042352"><ele>983.0000000000001</ele><time>2026-04-19T14:55:00Z</time></trkpt><trkpt lat="40.081586828814075" lon="9.451428958315041"><ele>983.0</ele><time>2026-04-19T14:55:02Z</time></trkpt><trkpt lat="40.08146769680096" lon="9.451428881151582"><ele>983.8</ele><time>2026-04-19T14:55:04Z</time></trkpt><trkpt lat="40.08138119147924" lon="9.451462186126747"><ele>984.5999999999999</ele><time>2026-04-19T14:55:06Z</time></trkpt><trkpt lat="40.0812784687963" lon="9.451505428184076"><ele>985.4000000000001</ele><time>2026-04-19T14:55:08Z</time></trkpt><trkpt lat="40.08116626291442" lon="9.451518844472139"><ele>986.2</ele><time>2026-04-19T14:55:10Z</time></trkpt><trkpt lat="40.08107882209909" lon="9.451520929730094"><ele>987.0</ele><time>2026-04-19T14:55:12Z</time></trkpt><trkpt lat="40.080996414479216" lon="9.4515795269929"><ele>987.0</ele><time>2026-04-19T14:55:14Z</time></trkpt><trkpt lat="40.08094703292462" lon="9.45163191816106"><ele>987.0</ele><time>2026-04-19T14:55:15Z</time></trkpt><trkpt lat="40.08089490511103" lon="9.451695253158313"><ele>987.0</ele><time>2026-04-19T14:55:16Z</time></trkpt><trkpt lat="40.08084277284551" lon="9.451768003489974"><ele>987.0</ele><time>2026-04-19T14:55:17Z</time></trkpt><trkpt lat="40.08079021266749" lon="9.45184903523293"><ele>987.0</ele><time>2026-04-19T14:55:18Z</time></trkpt><trkpt lat="40.08073827443109" lon="9.451936209221046"><ele>987.0</ele><time>2026-04-19T14:55:19Z</time></trkpt><trkpt lat="40.080696062601284" lon="9.452030389748316"><ele>988.0</ele><time>2026-04-19T14:55:20Z</time></trkpt><trkpt lat="40.080664326368044" lon="9.45213444459124"><ele>989.0</ele><time>2026-04-19T14:55:21Z</time></trkpt><trkpt lat="40.080630938132785" lon="9.452238122631389"><ele>990.0</ele><time>2026-04-19T14:55:22Z</time></trkpt><trkpt lat="40.0805852155181" lon="9.452333998944022"><ele>991.0</ele><time>2026-04-19T14:55:23Z</time></trkpt><trkpt lat="40.08053456245297" lon="9.452429058485777"><ele>992.0</ele><time>2026-04-19T14:55:24Z</time></trkpt><trkpt lat="40.08048941776361" lon="9.45253396340838"><ele>993.0</ele><time>2026-04-19T14:55:25Z</time></trkpt><trkpt lat="40.08045529303336" lon="9.452645368322779"><ele>993.0</ele><time>2026-04-19T14:55:26Z</time></trkpt><trkpt lat="40.08041669835856" lon="9.452760508582042"><ele>993.0</ele><time>2026-04-19T14:55:27Z</time></trkpt><trkpt lat="40.08037291878078" lon="9.452852638974335"><ele>993.0</ele><time>2026-04-19T14:55:28Z</time></trkpt><trkpt lat="40.080319970216195" lon="9.452946199791116"><ele>993.0</ele><time>2026-04-19T14:55:29Z</time></trkpt><trkpt lat="40.08026256196051" lon="9.453031118815453"><ele>993.0</ele><time>2026-04-19T14:55:30Z</time></trkpt><trkpt lat="40.08019710667905" lon="9.453097165753524"><ele>993.0</ele><time>2026-04-19T14:55:31Z</time></trkpt><trkpt lat="40.08012392764725" lon="9.453159731827858"><ele>993.3333333333334</ele><time>2026-04-19T14:55:32Z</time></trkpt><trkpt lat="40.08004861825932" lon="9.45321411456995"><ele>993.6666666666667</ele><time>2026-04-19T14:55:33Z</time></trkpt><trkpt lat="40.079971497932924" lon="9.453257320284678"><ele>994.0</ele><time>2026-04-19T14:55:34Z</time></trkpt><trkpt lat="40.07988993961918" lon="9.453297915286592"><ele>994.3333333333334</ele><time>2026-04-19T14:55:35Z</time></trkpt><trkpt lat="40.07980803767642" lon="9.453339269372032"><ele>994.6666666666667</ele><time>2026-04-19T14:55:36Z</time></trkpt><trkpt lat="40.079728128875495" lon="9.453388142129235"><ele>995.0</ele><time>2026-04-19T14:55:37Z</time></trkpt><trkpt lat="40.07965200478759" lon="9.453431821053686"><ele>995.0000000000001</ele><time>2026-04-19T14:55:38Z</time></trkpt><trkpt lat="40.07957504382736" lon="9.453452813348477"><ele>995.0</ele><time>2026-04-19T14:55:39Z</time></trkpt><trkpt lat="40.079487894097824" lon="9.453459665384186"><ele>995.0</ele><time>2026-04-19T14:55:40Z</time></trkpt><trkpt lat="40.07939650443898" lon="9.453458690766553"><ele>995.0</ele><time>2026-04-19T14:55:41Z</time></trkpt><trkpt lat="40.07930327569861" lon="9.45345128943631"><ele>995.0000000000001</ele><time>2026-04-19T14:55:42Z</time></trkpt><trkpt lat="40.07921203348793" lon="9.453443568727483"><ele>995.0</ele><time>2026-04-19T14:55:43Z</time></trkpt><trkpt lat="40.07913911114409" lon="9.453442714362307"><ele>995.2</ele><time>2026-04-19T14:55:44Z</time></trkpt><trkpt lat="40.079060856495964" lon="9.453443582071895"><ele>995.4</ele><time>2026-04-19T14:55:46Z</time></trkpt><trkpt lat="40.07899884854403" lon="9.453467574545073"><ele>995.5999999999999</ele><time>2026-04-19T14:55:48Z</time></trkpt><trkpt lat="40.07890928078711" lon="9.45349655775941"><ele>995.8</ele><time>2026-04-19T14:55:50Z</time></trkpt><trkpt lat="40.07878442654019" lon="9.453561310469153"><ele>996.0</ele><time>2026-04-19T14:55:52Z</time></trkpt><trkpt lat="40.07870648153491" lon="9.453590562009168"><ele>996.0</ele><time>2026-04-19T14:55:53Z</time></trkpt><trkpt lat="40.07861452723231" lon="9.453622417101737"><ele>996.0</ele><time>2026-04-19T14:55:54Z</time></trkpt><trkpt lat="40.07852218814927" lon="9.453654225080527"><ele>996.0</ele><time>2026-04-19T14:55:55Z</time></trkpt><trkpt lat="40.07843903857901" lon="9.453679109343414"><ele>996.0</ele><time>2026-04-19T14:55:56Z</time></trkpt><trkpt lat="40.07836300015858" lon="9.45371207970698"><ele>996.0</ele><time>2026-04-19T14:55:57Z</time></trkpt><trkpt lat="40.07828748772923" lon="9.453749002342763"><ele>996.0</ele><time>2026-04-19T14:55:58Z</time></trkpt><trkpt lat="40.07821595069349" lon="9.453770404684919"><ele>995.8571428571428</ele><time>2026-04-19T14:55:59Z</time></trkpt><trkpt lat="40.07814971968176" lon="9.45380258422157"><ele>995.7142857142856</ele><time>2026-04-19T14:56:00Z</time></trkpt><trkpt lat="40.07808605608552" lon="9.453839180723529"><ele>995.5714285714286</ele><time>2026-04-19T14:56:01Z</time></trkpt><trkpt lat="40.07801818763518" lon="9.45387068635757"><ele>995.4285714285713</ele><time>2026-04-19T14:56:02Z</time></trkpt><trkpt lat="40.07795318627296" lon="9.453905970540877"><ele>995.2857142857142</ele><time>2026-04-19T14:56:02.999Z</time></trkpt><trkpt lat="40.07788866192748" lon="9.453952692759188"><ele>995.1428571428571</ele><time>2026-04-19T14:56:03.999Z</time></trkpt><trkpt lat="40.07782139050524" lon="9.45399727862857"><ele>995.0</ele><time>2026-04-19T14:56:04.999Z</time></trkpt><trkpt lat="40.07775040761079" lon="9.454037133752712"><ele>995.0000000000001</ele><time>2026-04-19T14:56:05.999Z</time></trkpt><trkpt lat="40.077672310563855" lon="9.454068377114542"><ele>995.0</ele><time>2026-04-19T14:56:06.999Z</time></trkpt><trkpt lat="40.07759505648081" lon="9.454076603706644"><ele>995.0</ele><time>2026-04-19T14:56:07.999Z</time></trkpt><trkpt lat="40.07752513383412" lon="9.45407702529497"><ele>995.0</ele><time>2026-04-19T14:56:08.999Z</time></trkpt><trkpt lat="40.07741255566121" lon="9.454102051842899"><ele>995.0000000000001</ele><time>2026-04-19T14:56:10.999Z</time></trkpt><trkpt lat="40.07733886029228" lon="9.45415185528643"><ele>995.0</ele><time>2026-04-19T14:56:12.999Z</time></trkpt><trkpt lat="40.0772633259252" lon="9.45420741517407"><ele>995.0000000000001</ele><time>2026-04-19T14:56:14.999Z</time></trkpt><trkpt lat="40.077150438886676" lon="9.454268444971369"><ele>995.0</ele><time>2026-04-19T14:56:16.999Z</time></trkpt><trkpt lat="40.077079440786115" lon="9.454280899710952"><ele>995.0</ele><time>2026-04-19T14:56:17.999Z</time></trkpt><trkpt lat="40.07696051386676" lon="9.454285167124896"><ele>995.0</ele><time>2026-04-19T14:56:19.999Z</time></trkpt><trkpt lat="40.07689687148154" lon="9.454282180036685"><ele>995.0000000000001</ele><time>2026-04-19T14:56:20.999Z</time></trkpt><trkpt lat="40.07682545928926" lon="9.4542723027758"><ele>995.0</ele><time>2026-04-19T14:56:21.999Z</time></trkpt><trkpt lat="40.07675444160045" lon="9.454268234315633"><ele>995.0</ele><time>2026-04-19T14:56:22.999Z</time></trkpt><trkpt lat="40.07669012193479" lon="9.454288472020105"><ele>995.0</ele><time>2026-04-19T14:56:23.999Z</time></trkpt><trkpt lat="40.076623171566794" lon="9.454318188951794"><ele>995.0</ele><time>2026-04-19T14:56:24.999Z</time></trkpt><trkpt lat="40.07655592082731" lon="9.454350262259092"><ele>995.0</ele><time>2026-04-19T14:56:25.999Z</time></trkpt><trkpt lat="40.076486824661096" lon="9.454386595257908"><ele>995.0</ele><time>2026-04-19T14:56:26.999Z</time></trkpt><trkpt lat="40.076423761398594" lon="9.454419414294359"><ele>995.0</ele><time>2026-04-19T14:56:27.999Z</time></trkpt><trkpt lat="40.076361685114286" lon="9.454456928386554"><ele>995.0</ele><time>2026-04-19T14:56:28.999Z</time></trkpt><trkpt lat="40.07630644507553" lon="9.454508114729165"><ele>995.5000000000001</ele><time>2026-04-19T14:56:29.999Z</time></trkpt><trkpt lat="40.07620459285975" lon="9.454603068959264"><ele>996.0</ele><time>2026-04-19T14:56:31.999Z</time></trkpt><trkpt lat="40.07614598493279" lon="9.454654382450164"><ele>996.5</ele><time>2026-04-19T14:56:32.999Z</time></trkpt><trkpt lat="40.07609112630226" lon="9.454710217018231"><ele>997.0</ele><time>2026-04-19T14:56:33.999Z</time></trkpt><trkpt lat="40.07603072897475" lon="9.454773922135786"><ele>997.5000000000001</ele><time>2026-04-19T14:56:34.999Z</time></trkpt><trkpt lat="40.07596909687308" lon="9.454836908472819"><ele>998.0</ele><time>2026-04-19T14:56:35.999Z</time></trkpt><trkpt lat="40.07590733789833" lon="9.454901054691845"><ele>998.0000000000001</ele><time>2026-04-19T14:56:36.999Z</time></trkpt><trkpt lat="40.07585369045249" lon="9.454956475637337"><ele>998.0</ele><time>2026-04-19T14:56:37.999Z</time></trkpt><trkpt lat="40.0758043147622" lon="9.455010873876585"><ele>998.0</ele><time>2026-04-19T14:56:38.999Z</time></trkpt><trkpt lat="40.07573834788592" lon="9.455097464077683"><ele>998.0</ele><time>2026-04-19T14:56:40.999Z</time></trkpt><trkpt lat="40.07569482974358" lon="9.455174580126549"><ele>998.0000000000001</ele><time>2026-04-19T14:56:42.999Z</time></trkpt><trkpt lat="40.07563621917672" lon="9.455242858883533"><ele>998.0</ele><time>2026-04-19T14:56:46.999Z</time></trkpt><trkpt lat="40.075556039852" lon="9.455323711641872"><ele>998.6666666666667</ele><time>2026-04-19T14:56:48.999Z</time></trkpt><trkpt lat="40.07544938699516" lon="9.45540897476018"><ele>999.3333333333334</ele><time>2026-04-19T14:56:50.999Z</time></trkpt><trkpt lat="40.07538276292566" lon="9.455451356697283"><ele>1000.0</ele><time>2026-04-19T14:56:51.999Z</time></trkpt><trkpt lat="40.07531948853024" lon="9.455493711582683"><ele>1000.6666666666667</ele><time>2026-04-19T14:56:52.999Z</time></trkpt><trkpt lat="40.07525735164516" lon="9.455536037608512"><ele>1001.3333333333334</ele><time>2026-04-19T14:56:53.999Z</time></trkpt><trkpt lat="40.075198483608986" lon="9.45557639417922"><ele>1002.0</ele><time>2026-04-19T14:56:54.999Z</time></trkpt><trkpt lat="40.07513268864793" lon="9.455618810074236"><ele>1002.7142857142858</ele><time>2026-04-19T14:56:55.999Z</time></trkpt><trkpt lat="40.07506815758294" lon="9.45565927455804"><ele>1003.4285714285713</ele><time>2026-04-19T14:56:56.999Z</time></trkpt><trkpt lat="40.07500493834535" lon="9.455703246644763"><ele>1004.1428571428571</ele><time>2026-04-19T14:56:58Z</time></trkpt><trkpt lat="40.074936839643975" lon="9.455741266344392"><ele>1004.8571428571429</ele><time>2026-04-19T14:56:59Z</time></trkpt><trkpt lat="40.074866938866215" lon="9.455763735433539"><ele>1005.5714285714287</ele><time>2026-04-19T14:57:00Z</time></trkpt><trkpt lat="40.074793261585434" lon="9.455776676259397"><ele>1006.2857142857142</ele><time>2026-04-19T14:57:01Z</time></trkpt><trkpt lat="40.07472443997919" lon="9.455806022963309"><ele>1007.0</ele><time>2026-04-19T14:57:02Z</time></trkpt><trkpt lat="40.074659331554415" lon="9.455847969058645"><ele>1007.0</ele><time>2026-04-19T14:57:03Z</time></trkpt><trkpt lat="40.07459440373786" lon="9.455887686620178"><ele>1007.0</ele><time>2026-04-19T14:57:04Z</time></trkpt><trkpt lat="40.07453678621715" lon="9.455928925331682"><ele>1007.0</ele><time>2026-04-19T14:57:05Z</time></trkpt><trkpt lat="40.074428308498035" lon="9.456015004924227"><ele>1007.0</ele><time>2026-04-19T14:57:07Z</time></trkpt><trkpt lat="40.07432306807548" lon="9.456078176945708"><ele>1007.0</ele><time>2026-04-19T14:57:09Z</time></trkpt><trkpt lat="40.074233326468615" lon="9.456178826287392"><ele>1007.0000000000001</ele><time>2026-04-19T14:57:11Z</time></trkpt><trkpt lat="40.07419629335548" lon="9.456251237242059"><ele>1007.0</ele><time>2026-04-19T14:57:12Z</time></trkpt><trkpt lat="40.07415704264359" lon="9.456337308029873"><ele>1007.0</ele><time>2026-04-19T14:57:13Z</time></trkpt><trkpt lat="40.07411289053518" lon="9.456425819767723"><ele>1007.0</ele><time>2026-04-19T14:57:14Z</time></trkpt><trkpt lat="40.074060928807704" lon="9.456504017658897"><ele>1007.0000000000001</ele><time>2026-04-19T14:57:15Z</time></trkpt><trkpt lat="40.074001705504756" lon="9.456571005217905"><ele>1007.0</ele><time>2026-04-19T14:57:16Z</time></trkpt><trkpt lat="40.073935274058854" lon="9.456636812120008"><ele>1008.5000000000001</ele><time>2026-04-19T14:57:17Z</time></trkpt><trkpt lat="40.07387350007263" lon="9.456705696404134"><ele>1010.0</ele><time>2026-04-19T14:57:18Z</time></trkpt><trkpt lat="40.07381264641474" lon="9.456759979835713"><ele>1011.5</ele><time>2026-04-19T14:57:19Z</time></trkpt><trkpt lat="40.07375750011373" lon="9.456825429465626"><ele>1013.0</ele><time>2026-04-19T14:57:20Z</time></trkpt><trkpt lat="40.073705648669645" lon="9.456910938261029"><ele>1014.5000000000001</ele><time>2026-04-19T14:57:21Z</time></trkpt><trkpt lat="40.07364927873888" lon="9.457000518534779"><ele>1016.0</ele><time>2026-04-19T14:57:22Z</time></trkpt><trkpt lat="40.0735877283096" lon="9.457080707025531"><ele>1016.6666666666667</ele><time>2026-04-19T14:57:23Z</time></trkpt><trkpt lat="40.07352334201852" lon="9.457154263908121"><ele>1017.3333333333334</ele><time>2026-04-19T14:57:24Z</time></trkpt><trkpt lat="40.0734585188701" lon="9.457213669614337"><ele>1018.0</ele><time>2026-04-19T14:57:25Z</time></trkpt><trkpt lat="40.073391755585334" lon="9.457260301054447"><ele>1018.6666666666667</ele><time>2026-04-19T14:57:26Z</time></trkpt><trkpt lat="40.07332174525713" lon="9.457291182636661"><ele>1019.3333333333334</ele><time>2026-04-19T14:57:27Z</time></trkpt><trkpt lat="40.073245081950965" lon="9.457325472799797"><ele>1020.0</ele><time>2026-04-19T14:57:28Z</time></trkpt><trkpt lat="40.0731684630067" lon="9.457361523310839"><ele>1020.0</ele><time>2026-04-19T14:57:29Z</time></trkpt><trkpt lat="40.0730978993756" lon="9.457389012655383"><ele>1020.0</ele><time>2026-04-19T14:57:30Z</time></trkpt><trkpt lat="40.07302352002174" lon="9.457407727531788"><ele>1020.0</ele><time>2026-04-19T14:57:31Z</time></trkpt><trkpt lat="40.07294665561034" lon="9.457410775880959"><ele>1020.0</ele><time>2026-04-19T14:57:32Z</time></trkpt><trkpt lat="40.07286913080497" lon="9.45741116058298"><ele>1020.0</ele><time>2026-04-19T14:57:33Z</time></trkpt><trkpt lat="40.07278261016604" lon="9.457427013071976"><ele>1020.0</ele><time>2026-04-19T14:57:34Z</time></trkpt><trkpt lat="40.07270858103175" lon="9.457462341888974"><ele>1020.0</ele><time>2026-04-19T14:57:35Z</time></trkpt><trkpt lat="40.072628736614156" lon="9.457497690236771"><ele>1020.0</ele><time>2026-04-19T14:57:36Z</time></trkpt><trkpt lat="40.07254938562851" lon="9.457541656778899"><ele>1020.0</ele><time>2026-04-19T14:57:37Z</time></trkpt><trkpt lat="40.07247864065386" lon="9.457604211264124"><ele>1020.0</ele><time>2026-04-19T14:57:38Z</time></trkpt><trkpt lat="40.072411805070885" lon="9.45767645829482"><ele>1020.0</ele><time>2026-04-19T14:57:39Z</time></trkpt><trkpt lat="40.072365940842936" lon="9.45776956307556"><ele>1020.0</ele><time>2026-04-19T14:57:40Z</time></trkpt><trkpt lat="40.07233804555892" lon="9.457870246129637"><ele>1021.5</ele><time>2026-04-19T14:57:41Z</time></trkpt><trkpt lat="40.072316216696684" lon="9.457980963248898"><ele>1023.0</ele><time>2026-04-19T14:57:42Z</time></trkpt><trkpt lat="40.072301251873974" lon="9.458088655900152"><ele>1024.5</ele><time>2026-04-19T14:57:43Z</time></trkpt><trkpt lat="40.07228533231575" lon="9.458194330849526"><ele>1026.0</ele><time>2026-04-19T14:57:44Z</time></trkpt><trkpt lat="40.07226990527362" lon="9.458283789222401"><ele>1027.5</ele><time>2026-04-19T14:57:47Z</time></trkpt><trkpt lat="40.0722629343723" lon="9.458384183773004"><ele>1029.0</ele><time>2026-04-19T14:57:50Z</time></trkpt><trkpt lat="40.07223550190444" lon="9.458487896390107"><ele>1029.0</ele><time>2026-04-19T14:57:52Z</time></trkpt><trkpt lat="40.07222770869472" lon="9.458609713456505"><ele>1029.0</ele><time>2026-04-19T14:57:54Z</time></trkpt><trkpt lat="40.072229334395416" lon="9.458739359458116"><ele>1029.0</ele><time>2026-04-19T14:57:56Z</time></trkpt><trkpt lat="40.0722175324352" lon="9.458864960666467"><ele>1029.0</ele><time>2026-04-19T14:57:58Z</time></trkpt><trkpt lat="40.07218390435548" lon="9.45899036303536"><ele>1029.0</ele><time>2026-04-19T14:58:00Z</time></trkpt><trkpt lat="40.072110496835485" lon="9.459078345228933"><ele>1029.0</ele><time>2026-04-19T14:58:02Z</time></trkpt><trkpt lat="40.07200301377743" lon="9.459125939849406"><ele>1029.0</ele><time>2026-04-19T14:58:04Z</time></trkpt><trkpt lat="40.071877548717126" lon="9.459115265420024"><ele>1029.0</ele><time>2026-04-19T14:58:06Z</time></trkpt><trkpt lat="40.07175467292617" lon="9.45911394182184"><ele>1029.0</ele><time>2026-04-19T14:58:07.999Z</time></trkpt><trkpt lat="40.07168131012384" lon="9.459112955185672"><ele>1029.0</ele><time>2026-04-19T14:58:08.999Z</time></trkpt><trkpt lat="40.071606147667666" lon="9.459111432518352"><ele>1029.0</ele><time>2026-04-19T14:58:09.999Z</time></trkpt><trkpt lat="40.07153295554161" lon="9.459113167837453"><ele>1029.0</ele><time>2026-04-19T14:58:10.999Z</time></trkpt><trkpt lat="40.07145905037023" lon="9.459114012231161"><ele>1029.0</ele><time>2026-04-19T14:58:11.999Z</time></trkpt><trkpt lat="40.07136492005106" lon="9.459112901924145"><ele>1029.0</ele><time>2026-04-19T14:58:12.999Z</time></trkpt><trkpt lat="40.07126900299086" lon="9.459108057948807"><ele>1029.0</ele><time>2026-04-19T14:58:13.999Z</time></trkpt><trkpt lat="40.071183130443835" lon="9.459115126821066"><ele>1029.0</ele><time>2026-04-19T14:58:14.999Z</time></trkpt><trkpt lat="40.07109094072942" lon="9.459142548523834"><ele>1029.0</ele><time>2026-04-19T14:58:15.999Z</time></trkpt><trkpt lat="40.07098960461572" lon="9.459178913560505"><ele>1029.0</ele><time>2026-04-19T14:58:16.999Z</time></trkpt><trkpt lat="40.07089781765622" lon="9.45919930914253"><ele>1029.0</ele><time>2026-04-19T14:58:17.999Z</time></trkpt><trkpt lat="40.07081491352878" lon="9.459212872858402"><ele>1029.0</ele><time>2026-04-19T14:58:18.999Z</time></trkpt><trkpt lat="40.070733817746024" lon="9.45923548824016"><ele>1029.0</ele><time>2026-04-19T14:58:19.999Z</time></trkpt><trkpt lat="40.07065535101499" lon="9.45927907830789"><ele>1029.5</ele><time>2026-04-19T14:58:20.999Z</time></trkpt><trkpt lat="40.07057303951279" lon="9.459333157755289"><ele>1030.0</ele><time>2026-04-19T14:58:21.999Z</time></trkpt><trkpt lat="40.07048587797386" lon="9.45938439904269"><ele>1030.5</ele><time>2026-04-19T14:58:22.999Z</time></trkpt><trkpt lat="40.07040637914381" lon="9.459429071325657"><ele>1031.0</ele><time>2026-04-19T14:58:23.999Z</time></trkpt><trkpt lat="40.07033639136844" lon="9.459468665092789"><ele>1031.5</ele><time>2026-04-19T14:58:24.999Z</time></trkpt><trkpt lat="40.07026722009763" lon="9.45949950359509"><ele>1032.0</ele><time>2026-04-19T14:58:25.999Z</time></trkpt><trkpt lat="40.070194051160094" lon="9.459517395575638"><ele>1032.0</ele><time>2026-04-19T14:58:26.999Z</time></trkpt><trkpt lat="40.07011988328734" lon="9.459531235226018"><ele>1032.0</ele><time>2026-04-19T14:58:27.999Z</time></trkpt><trkpt lat="40.07004455238372" lon="9.459541501504198"><ele>1032.0</ele><time>2026-04-19T14:58:28.999Z</time></trkpt><trkpt lat="40.06996339220881" lon="9.459554249995701"><ele>1032.0</ele><time>2026-04-19T14:58:29.999Z</time></trkpt><trkpt lat="40.069893476018635" lon="9.459576694111163"><ele>1032.0</ele><time>2026-04-19T14:58:30.999Z</time></trkpt><trkpt lat="40.06982134570413" lon="9.459606148282806"><ele>1032.0</ele><time>2026-04-19T14:58:31.999Z</time></trkpt><trkpt lat="40.069740420129136" lon="9.459612548330442"><ele>1032.3333333333333</ele><time>2026-04-19T14:58:32.999Z</time></trkpt><trkpt lat="40.069652036673865" lon="9.459607068493204"><ele>1032.6666666666667</ele><time>2026-04-19T14:58:33.999Z</time></trkpt><trkpt lat="40.069564731468205" lon="9.459598438395751"><ele>1033.0</ele><time>2026-04-19T14:58:34.999Z</time></trkpt><trkpt lat="40.06947497878002" lon="9.459598704346012"><ele>1033.3333333333335</ele><time>2026-04-19T14:58:35.999Z</time></trkpt><trkpt lat="40.06938742496751" lon="9.459613420927004"><ele>1033.6666666666667</ele><time>2026-04-19T14:58:36.999Z</time></trkpt><trkpt lat="40.06930245021113" lon="9.459632820286021"><ele>1034.0</ele><time>2026-04-19T14:58:37.999Z</time></trkpt><trkpt lat="40.069222186876765" lon="9.459651412422355"><ele>1035.0</ele><time>2026-04-19T14:58:38.999Z</time></trkpt><trkpt lat="40.06914147289615" lon="9.459662309185154"><ele>1036.0</ele><time>2026-04-19T14:58:39.999Z</time></trkpt><trkpt lat="40.06906203841627" lon="9.459655707797282"><ele>1037.0</ele><time>2026-04-19T14:58:40.999Z</time></trkpt><trkpt lat="40.06897276079525" lon="9.459633380232141"><ele>1038.0</ele><time>2026-04-19T14:58:41.999Z</time></trkpt><trkpt lat="40.06888855560142" lon="9.459605393880064"><ele>1039.0</ele><time>2026-04-19T14:58:42.999Z</time></trkpt><trkpt lat="40.06880773582839" lon="9.459578641460604"><ele>1040.0</ele><time>2026-04-19T14:58:43.999Z</time></trkpt><trkpt lat="40.06872402474015" lon="9.459567519547573"><ele>1040.0</ele><time>2026-04-19T14:58:44.999Z</time></trkpt><trkpt lat="40.06864010100111" lon="9.459572883438742"><ele>1040.0</ele><time>2026-04-19T14:58:45.999Z</time></trkpt><trkpt lat="40.068575714286155" lon="9.459582221044654"><ele>1040.0</ele><time>2026-04-19T14:58:46.999Z</time></trkpt><trkpt lat="40.068461907648704" lon="9.459555752597323"><ele>1040.0</ele><time>2026-04-19T14:58:48.999Z</time></trkpt><trkpt lat="40.06835975626873" lon="9.459517190922764"><ele>1040.0</ele><time>2026-04-19T14:58:50.999Z</time></trkpt><trkpt lat="40.068293362708474" lon="9.459506675989575"><ele>1040.0</ele><time>2026-04-19T14:58:51.999Z</time></trkpt><trkpt lat="40.06822160045595" lon="9.459501448369158"><ele>1040.5</ele><time>2026-04-19T14:58:52.999Z</time></trkpt><trkpt lat="40.068145756790436" lon="9.459500177669112"><ele>1041.0</ele><time>2026-04-19T14:58:53.999Z</time></trkpt><trkpt lat="40.06806766792532" lon="9.459502721228354"><ele>1041.5</ele><time>2026-04-19T14:58:54.999Z</time></trkpt><trkpt lat="40.06798674920848" lon="9.459506219323037"><ele>1042.0</ele><time>2026-04-19T14:58:55.999Z</time></trkpt><trkpt lat="40.067914995717345" lon="9.459518423827776"><ele>1042.5</ele><time>2026-04-19T14:58:56.999Z</time></trkpt><trkpt lat="40.06784317645327" lon="9.459542485234907"><ele>1043.0</ele><time>2026-04-19T14:58:57.999Z</time></trkpt><trkpt lat="40.0677743206506" lon="9.459566740181279"><ele>1043.0</ele><time>2026-04-19T14:58:58.999Z</time></trkpt><trkpt lat="40.06769122433555" lon="9.459592611740565"><ele>1043.0</ele><time>2026-04-19T14:59:00.999Z</time></trkpt><trkpt lat="40.067615976101365" lon="9.459579840009905"><ele>1043.0</ele><time>2026-04-19T14:59:02.999Z</time></trkpt><trkpt lat="40.067544137996485" lon="9.45945282268318"><ele>1043.0</ele><time>2026-04-19T14:59:05Z</time></trkpt><trkpt lat="40.067492235112034" lon="9.459404314208514"><ele>1043.0</ele><time>2026-04-19T14:59:06Z</time></trkpt><trkpt lat="40.06736736025113" lon="9.459383941238238"><ele>1043.0</ele><time>2026-04-19T14:59:08Z</time></trkpt><trkpt lat="40.06730666271967" lon="9.459409210441635"><ele>1043.0</ele><time>2026-04-19T14:59:09Z</time></trkpt><trkpt lat="40.067241860896274" lon="9.459452775610346"><ele>1043.0</ele><time>2026-04-19T14:59:10Z</time></trkpt><trkpt lat="40.06717380645515" lon="9.45948248492933"><ele>1043.0</ele><time>2026-04-19T14:59:11Z</time></trkpt><trkpt lat="40.06711068146171" lon="9.459500065738505"><ele>1043.0</ele><time>2026-04-19T14:59:12Z</time></trkpt><trkpt lat="40.067040309620225" lon="9.459495055338099"><ele>1043.0</ele><time>2026-04-19T14:59:13Z</time></trkpt><trkpt lat="40.06696993413284" lon="9.459484944697099"><ele>1043.0</ele><time>2026-04-19T14:59:14Z</time></trkpt><trkpt lat="40.06689685150103" lon="9.459480267137716"><ele>1043.0</ele><time>2026-04-19T14:59:15Z</time></trkpt><trkpt lat="40.06681994678295" lon="9.459476095036967"><ele>1043.0</ele><time>2026-04-19T14:59:16Z</time></trkpt><trkpt lat="40.06673882860802" lon="9.459480026036243"><ele>1043.0</ele><time>2026-04-19T14:59:17Z</time></trkpt><trkpt lat="40.066660357156216" lon="9.459480414168441"><ele>1043.0</ele><time>2026-04-19T14:59:18Z</time></trkpt><trkpt lat="40.06658046874988" lon="9.4594877229623"><ele>1043.0</ele><time>2026-04-19T14:59:19Z</time></trkpt><trkpt lat="40.066498971399476" lon="9.459509247511072"><ele>1043.0</ele><time>2026-04-19T14:59:20Z</time></trkpt><trkpt lat="40.06642235525389" lon="9.459529566551538"><ele>1044.5</ele><time>2026-04-19T14:59:21Z</time></trkpt><trkpt lat="40.06634238651981" lon="9.459528241936265"><ele>1046.0</ele><time>2026-04-19T14:59:22Z</time></trkpt><trkpt lat="40.06626108733437" lon="9.459525463816725"><ele>1047.5</ele><time>2026-04-19T14:59:23Z</time></trkpt><trkpt lat="40.06617791959876" lon="9.459536355832274"><ele>1049.0</ele><time>2026-04-19T14:59:24Z</time></trkpt><trkpt lat="40.06609965318221" lon="9.459561750136643"><ele>1050.5</ele><time>2026-04-19T14:59:25Z</time></trkpt><trkpt lat="40.06602245051171" lon="9.459572272209614"><ele>1052.0</ele><time>2026-04-19T14:59:26Z</time></trkpt><trkpt lat="40.06594293348006" lon="9.459560866987225"><ele>1052.0</ele><time>2026-04-19T14:59:27Z</time></trkpt><trkpt lat="40.06586244431802" lon="9.459541236404307"><ele>1052.0</ele><time>2026-04-19T14:59:28Z</time></trkpt><trkpt lat="40.06578503890795" lon="9.459529511370405"><ele>1052.0</ele><time>2026-04-19T14:59:29Z</time></trkpt><trkpt lat="40.065705528822384" lon="9.459525459938032"><ele>1052.0</ele><time>2026-04-19T14:59:30Z</time></trkpt><trkpt lat="40.06562427080397" lon="9.459515120405479"><ele>1052.0</ele><time>2026-04-19T14:59:31Z</time></trkpt><trkpt lat="40.065547783390734" lon="9.459490963432366"><ele>1052.0</ele><time>2026-04-19T14:59:32Z</time></trkpt><trkpt lat="40.06547917825709" lon="9.459448485908474"><ele>1054.3333333333335</ele><time>2026-04-19T14:59:33Z</time></trkpt><trkpt lat="40.06540260007393" lon="9.459413319596473"><ele>1056.6666666666667</ele><time>2026-04-19T14:59:34Z</time></trkpt><trkpt lat="40.06534282383574" lon="9.459376262930569"><ele>1059.0</ele><time>2026-04-19T14:59:35Z</time></trkpt><trkpt lat="40.06527680997462" lon="9.459302471387153"><ele>1061.3333333333333</ele><time>2026-04-19T14:59:37Z</time></trkpt><trkpt lat="40.06528562779697" lon="9.459188023920497"><ele>1063.6666666666665</ele><time>2026-04-19T14:59:39Z</time></trkpt><trkpt lat="40.06534002399746" lon="9.459078740027167"><ele>1066.0</ele><time>2026-04-19T14:59:41Z</time></trkpt><trkpt lat="40.06532066277589" lon="9.458969512662886"><ele>1066.0</ele><time>2026-04-19T14:59:43Z</time></trkpt><trkpt lat="40.065223386853106" lon="9.458878252931855"><ele>1066.0</ele><time>2026-04-19T14:59:45Z</time></trkpt><trkpt lat="40.06515533106495" lon="9.458845295944808"><ele>1066.0</ele><time>2026-04-19T14:59:46Z</time></trkpt><trkpt lat="40.06508586289882" lon="9.45882211420398"><ele>1066.0</ele><time>2026-04-19T14:59:47Z</time></trkpt><trkpt lat="40.06501045235048" lon="9.458792442250763"><ele>1066.0</ele><time>2026-04-19T14:59:48Z</time></trkpt><trkpt lat="40.06493201841143" lon="9.458757510646944"><ele>1066.0</ele><time>2026-04-19T14:59:49Z</time></trkpt><trkpt lat="40.06485414260048" lon="9.458724197213295"><ele>1065.8333333333333</ele><time>2026-04-19T14:59:50Z</time></trkpt><trkpt lat="40.06477443116555" lon="9.458688469318247"><ele>1065.6666666666665</ele><time>2026-04-19T14:59:51Z</time></trkpt><trkpt lat="40.06469920933301" lon="9.458653248484973"><ele>1065.5</ele><time>2026-04-19T14:59:52Z</time></trkpt><trkpt lat="40.064621194547556" lon="9.458618748411022"><ele>1065.3333333333333</ele><time>2026-04-19T14:59:53Z</time></trkpt><trkpt lat="40.06453806338227" lon="9.458583997290312"><ele>1065.1666666666667</ele><time>2026-04-19T14:59:54Z</time></trkpt><trkpt lat="40.06445511909546" lon="9.45854780615231"><ele>1065.0</ele><time>2026-04-19T14:59:55Z</time></trkpt><trkpt lat="40.06437393095378" lon="9.4585076063925"><ele>1065.0</ele><time>2026-04-19T14:59:56Z</time></trkpt><trkpt lat="40.06429418024243" lon="9.458469099121519"><ele>1065.0</ele><time>2026-04-19T14:59:57Z</time></trkpt><trkpt lat="40.064211208896324" lon="9.458435850161862"><ele>1065.0</ele><time>2026-04-19T14:59:58Z</time></trkpt><trkpt lat="40.06412550716486" lon="9.458415924063807"><ele>1065.0</ele><time>2026-04-19T14:59:59Z</time></trkpt><trkpt lat="40.06403894149089" lon="9.458407832945486"><ele>1065.0</ele><time>2026-04-19T15:00:00Z</time></trkpt><trkpt lat="40.063956333723766" lon="9.458418357132027"><ele>1065.0</ele><time>2026-04-19T15:00:01Z</time></trkpt><trkpt lat="40.063876930508286" lon="9.458451706946299"><ele>1066.0</ele><time>2026-04-19T15:00:02Z</time></trkpt><trkpt lat="40.06380922375988" lon="9.458515620745356"><ele>1067.0</ele><time>2026-04-19T15:00:03Z</time></trkpt><trkpt lat="40.063750567677914" lon="9.458580191849752"><ele>1068.0</ele><time>2026-04-19T15:00:04Z</time></trkpt><trkpt lat="40.063656446006725" lon="9.458597863804139"><ele>1069.0</ele><time>2026-04-19T15:00:06Z</time></trkpt><trkpt lat="40.06357383310915" lon="9.458503842320354"><ele>1070.0</ele><time>2026-04-19T15:00:08Z</time></trkpt><trkpt lat="40.06345239001089" lon="9.45847781565746"><ele>1070.0</ele><time>2026-04-19T15:00:10Z</time></trkpt><trkpt lat="40.06332873699606" lon="9.458520109697385"><ele>1070.0</ele><time>2026-04-19T15:00:12Z</time></trkpt><trkpt lat="40.06325712842396" lon="9.458542423785909"><ele>1070.0</ele><time>2026-04-19T15:00:13Z</time></trkpt><trkpt lat="40.063180518339614" lon="9.458538645947526"><ele>1070.0</ele><time>2026-04-19T15:00:13.999Z</time></trkpt><trkpt lat="40.06310615415098" lon="9.45853123403541"><ele>1070.0</ele><time>2026-04-19T15:00:14.999Z</time></trkpt><trkpt lat="40.06303137202184" lon="9.458541023874528"><ele>1070.0</ele><time>2026-04-19T15:00:15.999Z</time></trkpt><trkpt lat="40.06295289146135" lon="9.45855827932489"><ele>1071.0</ele><time>2026-04-19T15:00:16.999Z</time></trkpt><trkpt lat="40.06287513853587" lon="9.458565973968465"><ele>1072.0</ele><time>2026-04-19T15:00:17.999Z</time></trkpt><trkpt lat="40.062805757762305" lon="9.45855773025105"><ele>1073.0</ele><time>2026-04-19T15:00:18.999Z</time></trkpt><trkpt lat="40.062737974886254" lon="9.458533503316035"><ele>1074.0</ele><time>2026-04-19T15:00:19.999Z</time></trkpt><trkpt lat="40.062667777168585" lon="9.458497010150387"><ele>1075.0</ele><time>2026-04-19T15:00:20.999Z</time></trkpt><trkpt lat="40.06259467987284" lon="9.458462383936439"><ele>1076.0</ele><time>2026-04-19T15:00:21.999Z</time></trkpt><trkpt lat="40.06252221513215" lon="9.458427566626241"><ele>1077.0</ele><time>2026-04-19T15:00:22.999Z</time></trkpt><trkpt lat="40.06244832117803" lon="9.45840153856051"><ele>1078.5</ele><time>2026-04-19T15:00:23.999Z</time></trkpt><trkpt lat="40.06237176339581" lon="9.458391056946057"><ele>1080.0</ele><time>2026-04-19T15:00:24.999Z</time></trkpt><trkpt lat="40.06229914359571" lon="9.458390595630524"><ele>1081.5</ele><time>2026-04-19T15:00:25.999Z</time></trkpt><trkpt lat="40.062224595578044" lon="9.45839666432314"><ele>1083.0</ele><time>2026-04-19T15:00:26.999Z</time></trkpt><trkpt lat="40.06214309199523" lon="9.458412530008582"><ele>1084.5</ele><time>2026-04-19T15:00:27.999Z</time></trkpt><trkpt lat="40.06206018010193" lon="9.458434096639042"><ele>1086.0</ele><time>2026-04-19T15:00:28.999Z</time></trkpt><trkpt lat="40.06197424646124" lon="9.458453981865535"><ele>1086.0</ele><time>2026-04-19T15:00:29.999Z</time></trkpt><trkpt lat="40.06189650403171" lon="9.458477703225467"><ele>1086.0</ele><time>2026-04-19T15:00:30.999Z</time></trkpt><trkpt lat="40.0618290580413" lon="9.458511009496437"><ele>1086.0</ele><time>2026-04-19T15:00:31.999Z</time></trkpt><trkpt lat="40.06177451694652" lon="9.458566530621335"><ele>1086.0</ele><time>2026-04-19T15:00:32.999Z</time></trkpt><trkpt lat="40.061691342856854" lon="9.45866296469328"><ele>1086.0</ele><time>2026-04-19T15:00:34.999Z</time></trkpt><trkpt lat="40.06160096376226" lon="9.458621898104504"><ele>1086.0</ele><time>2026-04-19T15:00:36.999Z</time></trkpt><trkpt lat="40.061532748828306" lon="9.458501874187583"><ele>1087.6666666666667</ele><time>2026-04-19T15:00:38.999Z</time></trkpt><trkpt lat="40.061425899356806" lon="9.458411248498868"><ele>1089.3333333333333</ele><time>2026-04-19T15:00:40.999Z</time></trkpt><trkpt lat="40.06136302427866" lon="9.458381179983471"><ele>1091.0</ele><time>2026-04-19T15:00:41.999Z</time></trkpt><trkpt lat="40.06129207585415" lon="9.458337119261532"><ele>1092.6666666666665</ele><time>2026-04-19T15:00:42.999Z</time></trkpt><trkpt lat="40.06122127821708" lon="9.458277618948207"><ele>1094.3333333333333</ele><time>2026-04-19T15:00:43.999Z</time></trkpt><trkpt lat="40.06115314660653" lon="9.458225433473018"><ele>1096.0</ele><time>2026-04-19T15:00:44.999Z</time></trkpt><trkpt lat="40.061078621432976" lon="9.45818675060058"><ele>1096.0</ele><time>2026-04-19T15:00:45.999Z</time></trkpt><trkpt lat="40.06099667165633" lon="9.458163648669975"><ele>1096.0</ele><time>2026-04-19T15:00:46.999Z</time></trkpt><trkpt lat="40.06091805901557" lon="9.458146807424088"><ele>1096.0</ele><time>2026-04-19T15:00:47.999Z</time></trkpt><trkpt lat="40.060854014980556" lon="9.45812360182058"><ele>1096.0</ele><time>2026-04-19T15:00:48.999Z</time></trkpt><trkpt lat="40.060762898556426" lon="9.458055931343656"><ele>1096.0</ele><time>2026-04-19T15:00:50.999Z</time></trkpt><trkpt lat="40.060675339087645" lon="9.45795062890126"><ele>1096.6666666666665</ele><time>2026-04-19T15:00:52.999Z</time></trkpt><trkpt lat="40.060617623246266" lon="9.457888069037965"><ele>1097.3333333333333</ele><time>2026-04-19T15:00:53.999Z</time></trkpt><trkpt lat="40.060555146645534" lon="9.457841630061864"><ele>1098.0</ele><time>2026-04-19T15:00:54.999Z</time></trkpt><trkpt lat="40.060489748536654" lon="9.45781307260419"><ele>1098.6666666666667</ele><time>2026-04-19T15:00:55.999Z</time></trkpt><trkpt lat="40.06042554167957" lon="9.45779891091291"><ele>1099.3333333333335</ele><time>2026-04-19T15:00:56.999Z</time></trkpt><trkpt lat="40.06030968778733" lon="9.457813086861366"><ele>1100.0</ele><time>2026-04-19T15:00:58.999Z</time></trkpt><trkpt lat="40.060247444272704" lon="9.457827709702112"><ele>1100.0</ele><time>2026-04-19T15:00:59.999Z</time></trkpt><trkpt lat="40.06012994881752" lon="9.457853173037632"><ele>1100.0</ele><time>2026-04-19T15:01:01.999Z</time></trkpt><trkpt lat="40.06003374604011" lon="9.457861421009138"><ele>1100.0</ele><time>2026-04-19T15:01:03.999Z</time></trkpt><trkpt lat="40.05995423154242" lon="9.457886755094073"><ele>1100.0</ele><time>2026-04-19T15:01:05.999Z</time></trkpt><trkpt lat="40.059887261804256" lon="9.457887819756486"><ele>1100.0</ele><time>2026-04-19T15:01:08.999Z</time></trkpt><trkpt lat="40.059949357881" lon="9.457919639052983"><ele>1100.0</ele><time>2026-04-19T15:01:12Z</time></trkpt><trkpt lat="40.060033609757724" lon="9.457895652442906"><ele>1100.0</ele><time>2026-04-19T15:01:14Z</time></trkpt><trkpt lat="40.06012960809535" lon="9.457859659246322"><ele>1100.0</ele><time>2026-04-19T15:01:16Z</time></trkpt><trkpt lat="40.06021729843846" lon="9.457829188945533"><ele>1100.0</ele><time>2026-04-19T15:01:18Z</time></trkpt><trkpt lat="40.06029530705617" lon="9.45780000300814"><ele>1100.0</ele><time>2026-04-19T15:01:20Z</time></trkpt><trkpt lat="40.06037780551098" lon="9.457806327835398"><ele>1100.0</ele><time>2026-04-19T15:01:24Z</time></trkpt><trkpt lat="40.06042474131502" lon="9.457863548025568"><ele>1100.0</ele><time>2026-04-19T15:01:27Z</time></trkpt><trkpt lat="40.06043438335123" lon="9.457949030605011"><ele>1100.0</ele><time>2026-04-19T15:01:32Z</time></trkpt><trkpt lat="40.06044990809807" lon="9.457862357138257"><ele>1100.0</ele><time>2026-04-19T15:01:37Z</time></trkpt><trkpt lat="40.06038162236409" lon="9.45780514404759"><ele>1100.0</ele><time>2026-04-19T15:01:39Z</time></trkpt><trkpt lat="40.060316081812296" lon="9.45779807964945"><ele>1100.0</ele><time>2026-04-19T15:01:40Z</time></trkpt><trkpt lat="40.06023503562449" lon="9.457815922598382"><ele>1100.0</ele><time>2026-04-19T15:01:41Z</time></trkpt><trkpt lat="40.06014678395282" lon="9.457840324130348"><ele>1100.0</ele><time>2026-04-19T15:01:42Z</time></trkpt><trkpt lat="40.06005271237152" lon="9.457872064727956"><ele>1100.0</ele><time>2026-04-19T15:01:43Z</time></trkpt><trkpt lat="40.05996530706602" lon="9.45787978948224"><ele>1100.0</ele><time>2026-04-19T15:01:44Z</time></trkpt><trkpt lat="40.059899042045636" lon="9.457873510344148"><ele>1100.0</ele><time>2026-04-19T15:01:45Z</time></trkpt><trkpt lat="40.0598365553484" lon="9.457860338540238"><ele>1100.0</ele><time>2026-04-19T15:01:46Z</time></trkpt><trkpt lat="40.059743253861186" lon="9.45787113196355"><ele>1100.0</ele><time>2026-04-19T15:01:47Z</time></trkpt><trkpt lat="40.05963722619796" lon="9.457844082758458"><ele>1100.0</ele><time>2026-04-19T15:01:48Z</time></trkpt><trkpt lat="40.05952928790481" lon="9.457810924457876"><ele>1098.6</ele><time>2026-04-19T15:01:49Z</time></trkpt><trkpt lat="40.05942531175025" lon="9.457777673162196"><ele>1097.2</ele><time>2026-04-19T15:01:50Z</time></trkpt><trkpt lat="40.05932810541808" lon="9.457750038885523"><ele>1095.8</ele><time>2026-04-19T15:01:51Z</time></trkpt><trkpt lat="40.059231568402744" lon="9.457721369770463"><ele>1094.4</ele><time>2026-04-19T15:01:52Z</time></trkpt><trkpt lat="40.05913724254667" lon="9.4577009095262"><ele>1093.0</ele><time>2026-04-19T15:01:53Z</time></trkpt><trkpt lat="40.05903872961991" lon="9.457675039215246"><ele>1091.4</ele><time>2026-04-19T15:01:54Z</time></trkpt><trkpt lat="40.05893362406102" lon="9.457650389872013"><ele>1089.8</ele><time>2026-04-19T15:01:55Z</time></trkpt><trkpt lat="40.05882173710817" lon="9.457635672283299"><ele>1088.2</ele><time>2026-04-19T15:01:56Z</time></trkpt><trkpt lat="40.05870919392005" lon="9.457628350345528"><ele>1086.6</ele><time>2026-04-19T15:01:57Z</time></trkpt><trkpt lat="40.05861247669552" lon="9.457631833054657"><ele>1085.0</ele><time>2026-04-19T15:01:58Z</time></trkpt><trkpt lat="40.05852473717173" lon="9.457640760567049"><ele>1085.0</ele><time>2026-04-19T15:01:59Z</time></trkpt><trkpt lat="40.05843509073987" lon="9.457662501248072"><ele>1085.0</ele><time>2026-04-19T15:02:00Z</time></trkpt><trkpt lat="40.0583522803003" lon="9.45768388871764"><ele>1085.0</ele><time>2026-04-19T15:02:01Z</time></trkpt><trkpt lat="40.05828131477391" lon="9.457703486699536"><ele>1085.0</ele><time>2026-04-19T15:02:02Z</time></trkpt><trkpt lat="40.058169528934755" lon="9.457730190689205"><ele>1085.0</ele><time>2026-04-19T15:02:04Z</time></trkpt><trkpt lat="40.058069749968396" lon="9.457737249806636"><ele>1084.2</ele><time>2026-04-19T15:02:06Z</time></trkpt><trkpt lat="40.0579746455256" lon="9.457740360495189"><ele>1083.4</ele><time>2026-04-19T15:02:08Z</time></trkpt><trkpt lat="40.05786698918542" lon="9.457758013309729"><ele>1082.6</ele><time>2026-04-19T15:02:10Z</time></trkpt><trkpt lat="40.05775794865525" lon="9.45776217461489"><ele>1081.8</ele><time>2026-04-19T15:02:12Z</time></trkpt><trkpt lat="40.0576643596401" lon="9.45775184846776"><ele>1081.0</ele><time>2026-04-19T15:02:13.999Z</time></trkpt><trkpt lat="40.05758127749042" lon="9.457739557530843"><ele>1081.0</ele><time>2026-04-19T15:02:15.999Z</time></trkpt><trkpt lat="40.05750742044479" lon="9.45773225393735"><ele>1081.0</ele><time>2026-04-19T15:02:17.999Z</time></trkpt><trkpt lat="40.05743449931338" lon="9.457712489813328"><ele>1081.0</ele><time>2026-04-19T15:02:19.999Z</time></trkpt><trkpt lat="40.057350476394866" lon="9.457689258529811"><ele>1081.0</ele><time>2026-04-19T15:02:21.999Z</time></trkpt><trkpt lat="40.05725131766358" lon="9.457662170872197"><ele>1081.0</ele><time>2026-04-19T15:02:23.999Z</time></trkpt><trkpt lat="40.05712700695313" lon="9.457621483484106"><ele>1080.8333333333333</ele><time>2026-04-19T15:02:25.999Z</time></trkpt><trkpt lat="40.05705503602067" lon="9.45759319247994"><ele>1080.6666666666665</ele><time>2026-04-19T15:02:26.999Z</time></trkpt><trkpt lat="40.05697574772482" lon="9.457566542740697"><ele>1080.5</ele><time>2026-04-19T15:02:27.999Z</time></trkpt><trkpt lat="40.05689240222354" lon="9.457540537254491"><ele>1080.3333333333333</ele><time>2026-04-19T15:02:28.999Z</time></trkpt><trkpt lat="40.056805891350024" lon="9.457518178265262"><ele>1080.1666666666667</ele><time>2026-04-19T15:02:29.999Z</time></trkpt><trkpt lat="40.05671480392488" lon="9.457491492178736"><ele>1080.0</ele><time>2026-04-19T15:02:30.999Z</time></trkpt><trkpt lat="40.05661875330027" lon="9.457461331971983"><ele>1079.2</ele><time>2026-04-19T15:02:31.999Z</time></trkpt><trkpt lat="40.05652217715079" lon="9.457424966490477"><ele>1078.4</ele><time>2026-04-19T15:02:32.999Z</time></trkpt><trkpt lat="40.056419003672666" lon="9.457390875748466"><ele>1077.6</ele><time>2026-04-19T15:02:33.999Z</time></trkpt><trkpt lat="40.05631112272555" lon="9.457359559622551"><ele>1076.8</ele><time>2026-04-19T15:02:34.999Z</time></trkpt><trkpt lat="40.05619995243978" lon="9.457328224947803"><ele>1076.0</ele><time>2026-04-19T15:02:35.999Z</time></trkpt><trkpt lat="40.05608318875222" lon="9.457289771418862"><ele>1076.0</ele><time>2026-04-19T15:02:36.999Z</time></trkpt><trkpt lat="40.055965908846346" lon="9.45725180878718"><ele>1076.0</ele><time>2026-04-19T15:02:37.999Z</time></trkpt><trkpt lat="40.055854492643725" lon="9.457217061626686"><ele>1076.0</ele><time>2026-04-19T15:02:38.999Z</time></trkpt><trkpt lat="40.05574623510656" lon="9.4571869845511"><ele>1076.0</ele><time>2026-04-19T15:02:39.999Z</time></trkpt><trkpt lat="40.05564358268289" lon="9.457163656366681"><ele>1075.6</ele><time>2026-04-19T15:02:40.999Z</time></trkpt><trkpt lat="40.05553734032757" lon="9.457137488697652"><ele>1075.1999999999998</ele><time>2026-04-19T15:02:41.999Z</time></trkpt><trkpt lat="40.05543097424195" lon="9.457115449491909"><ele>1074.8000000000002</ele><time>2026-04-19T15:02:42.999Z</time></trkpt><trkpt lat="40.05532168443283" lon="9.457096395195135"><ele>1074.4</ele><time>2026-04-19T15:02:43.999Z</time></trkpt><trkpt lat="40.055203007393956" lon="9.45707906496872"><ele>1074.0</ele><time>2026-04-19T15:02:44.999Z</time></trkpt><trkpt lat="40.05507878525472" lon="9.457075762931051"><ele>1073.0</ele><time>2026-04-19T15:02:45.999Z</time></trkpt><trkpt lat="40.05495409076411" lon="9.457081522112883"><ele>1072.0</ele><time>2026-04-19T15:02:46.999Z</time></trkpt><trkpt lat="40.054835997280826" lon="9.45710317742599"><ele>1071.0</ele><time>2026-04-19T15:02:47.999Z</time></trkpt><trkpt lat="40.05471706269291" lon="9.457146437412277"><ele>1070.0</ele><time>2026-04-19T15:02:48.999Z</time></trkpt><trkpt lat="40.054601589236206" lon="9.457205139926323"><ele>1070.0</ele><time>2026-04-19T15:02:49.999Z</time></trkpt><trkpt lat="40.05449349026626" lon="9.45726217501905"><ele>1070.0</ele><time>2026-04-19T15:02:50.999Z</time></trkpt><trkpt lat="40.05438003184811" lon="9.457305891494459"><ele>1070.0</ele><time>2026-04-19T15:02:51.999Z</time></trkpt><trkpt lat="40.054266051148275" lon="9.457331810779959"><ele>1070.0</ele><time>2026-04-19T15:02:52.999Z</time></trkpt><trkpt lat="40.0541494719564" lon="9.457325758105641"><ele>1069.25</ele><time>2026-04-19T15:02:53.999Z</time></trkpt><trkpt lat="40.05402143779765" lon="9.457297125253849"><ele>1068.5</ele><time>2026-04-19T15:02:54.999Z</time></trkpt><trkpt lat="40.0539029755528" lon="9.457265317558008"><ele>1067.75</ele><time>2026-04-19T15:02:55.999Z</time></trkpt><trkpt lat="40.05378689225789" lon="9.45725054978933"><ele>1067.0</ele><time>2026-04-19T15:02:56.999Z</time></trkpt><trkpt lat="40.05367914560396" lon="9.457252352329414"><ele>1067.0</ele><time>2026-04-19T15:02:57.999Z</time></trkpt><trkpt lat="40.05357805791852" lon="9.457255858327157"><ele>1067.0</ele><time>2026-04-19T15:02:58.999Z</time></trkpt><trkpt lat="40.05347768592728" lon="9.457263318963221"><ele>1067.0</ele><time>2026-04-19T15:02:59.999Z</time></trkpt><trkpt lat="40.05338361417039" lon="9.457277254663195"><ele>1067.0</ele><time>2026-04-19T15:03:00.999Z</time></trkpt><trkpt lat="40.05329323746794" lon="9.45728788064541"><ele>1067.0</ele><time>2026-04-19T15:03:01.999Z</time></trkpt><trkpt lat="40.05319731405324" lon="9.457293426720158"><ele>1067.0</ele><time>2026-04-19T15:03:02.999Z</time></trkpt><trkpt lat="40.05309822725075" lon="9.45728857149283"><ele>1067.0</ele><time>2026-04-19T15:03:03.999Z</time></trkpt><trkpt lat="40.052997765346795" lon="9.45727449598721"><ele>1067.0</ele><time>2026-04-19T15:03:04.999Z</time></trkpt><trkpt lat="40.052894677206844" lon="9.4572472897428"><ele>1067.0</ele><time>2026-04-19T15:03:05.999Z</time></trkpt><trkpt lat="40.05279103038932" lon="9.457209144124496"><ele>1067.0</ele><time>2026-04-19T15:03:06.999Z</time></trkpt><trkpt lat="40.05267836918784" lon="9.457175652868678"><ele>1067.0</ele><time>2026-04-19T15:03:07.999Z</time></trkpt><trkpt lat="40.05255215829251" lon="9.457132195908848"><ele>1067.0</ele><time>2026-04-19T15:03:08.999Z</time></trkpt><trkpt lat="40.05242310975839" lon="9.457097857974015"><ele>1067.0</ele><time>2026-04-19T15:03:09.999Z</time></trkpt><trkpt lat="40.05228832030825" lon="9.457080131848153"><ele>1067.0</ele><time>2026-04-19T15:03:10.999Z</time></trkpt><trkpt lat="40.052149784760644" lon="9.45707677199949"><ele>1066.0</ele><time>2026-04-19T15:03:11.999Z</time></trkpt><trkpt lat="40.052014491144426" lon="9.457080997733303"><ele>1065.0</ele><time>2026-04-19T15:03:12.999Z</time></trkpt><trkpt lat="40.0518779033668" lon="9.45708451860862"><ele>1064.0</ele><time>2026-04-19T15:03:13.999Z</time></trkpt><trkpt lat="40.051748874669606" lon="9.457085753494427"><ele>1063.0</ele><time>2026-04-19T15:03:14.999Z</time></trkpt><trkpt lat="40.05161742809023" lon="9.457090697559321"><ele>1062.75</ele><time>2026-04-19T15:03:16Z</time></trkpt><trkpt lat="40.05148538022182" lon="9.457108540539465"><ele>1062.5</ele><time>2026-04-19T15:03:17Z</time></trkpt><trkpt lat="40.05135406531023" lon="9.457133523459536"><ele>1062.25</ele><time>2026-04-19T15:03:18Z</time></trkpt><trkpt lat="40.05122784489477" lon="9.457158220629916"><ele>1062.0</ele><time>2026-04-19T15:03:19Z</time></trkpt><trkpt lat="40.05110432289869" lon="9.457180964640823"><ele>1062.0</ele><time>2026-04-19T15:03:20Z</time></trkpt><trkpt lat="40.050991897380925" lon="9.457185905251942"><ele>1062.0</ele><time>2026-04-19T15:03:21Z</time></trkpt><trkpt lat="40.05088419463005" lon="9.457170743904026"><ele>1062.0</ele><time>2026-04-19T15:03:22Z</time></trkpt><trkpt lat="40.05079440467342" lon="9.45712062383754"><ele>1062.0</ele><time>2026-04-19T15:03:23Z</time></trkpt><trkpt lat="40.05070292774952" lon="9.457052097915073"><ele>1062.0</ele><time>2026-04-19T15:03:24Z</time></trkpt><trkpt lat="40.05061088099356" lon="9.456967034014133"><ele>1060.0</ele><time>2026-04-19T15:03:25Z</time></trkpt><trkpt lat="40.050521451315845" lon="9.456878028136433"><ele>1058.0</ele><time>2026-04-19T15:03:26Z</time></trkpt><trkpt lat="40.050425891630915" lon="9.456778497637703"><ele>1056.0</ele><time>2026-04-19T15:03:27Z</time></trkpt><trkpt lat="40.05033472488119" lon="9.456669424715452"><ele>1054.0</ele><time>2026-04-19T15:03:28Z</time></trkpt><trkpt lat="40.050251606442544" lon="9.456553253871157"><ele>1054.0</ele><time>2026-04-19T15:03:29Z</time></trkpt><trkpt lat="40.050162622471156" lon="9.456413440002832"><ele>1054.0</ele><time>2026-04-19T15:03:30Z</time></trkpt><trkpt lat="40.050064097117165" lon="9.456281826975463"><ele>1054.0</ele><time>2026-04-19T15:03:31Z</time></trkpt><trkpt lat="40.049948939550525" lon="9.456172514372438"><ele>1054.0</ele><time>2026-04-19T15:03:32Z</time></trkpt><trkpt lat="40.04984042972419" lon="9.456094498336432"><ele>1053.2</ele><time>2026-04-19T15:03:33Z</time></trkpt><trkpt lat="40.04973718989754" lon="9.456027744084144"><ele>1052.4</ele><time>2026-04-19T15:03:34Z</time></trkpt><trkpt lat="40.04964398151057" lon="9.455965305811553"><ele>1051.6</ele><time>2026-04-19T15:03:35Z</time></trkpt><trkpt lat="40.04955697264642" lon="9.455903752522683"><ele>1050.8</ele><time>2026-04-19T15:03:36Z</time></trkpt><trkpt lat="40.049476298952996" lon="9.455843075631167"><ele>1050.0</ele><time>2026-04-19T15:03:37Z</time></trkpt><trkpt lat="40.049400935830434" lon="9.45578765603574"><ele>1050.0</ele><time>2026-04-19T15:03:38Z</time></trkpt><trkpt lat="40.04932364332161" lon="9.45572582133874"><ele>1050.0</ele><time>2026-04-19T15:03:39Z</time></trkpt><trkpt lat="40.04923880900173" lon="9.455650593720675"><ele>1050.0</ele><time>2026-04-19T15:03:40Z</time></trkpt><trkpt lat="40.04914787596933" lon="9.455563275913624"><ele>1050.0</ele><time>2026-04-19T15:03:41Z</time></trkpt><trkpt lat="40.04905214913423" lon="9.455468830432594"><ele>1050.0</ele><time>2026-04-19T15:03:42Z</time></trkpt><trkpt lat="40.04895273190289" lon="9.455379401221704"><ele>1049.6</ele><time>2026-04-19T15:03:43Z</time></trkpt><trkpt lat="40.048850787049396" lon="9.455303013086018"><ele>1049.2</ele><time>2026-04-19T15:03:44Z</time></trkpt><trkpt lat="40.04874615488846" lon="9.455250322314043"><ele>1048.8</ele><time>2026-04-19T15:03:45Z</time></trkpt><trkpt lat="40.04864463260133" lon="9.455217726836622"><ele>1048.4</ele><time>2026-04-19T15:03:46Z</time></trkpt><trkpt lat="40.048548894363094" lon="9.455169947464373"><ele>1048.0</ele><time>2026-04-19T15:03:47Z</time></trkpt><trkpt lat="40.04845530996371" lon="9.455116629630695"><ele>1048.0</ele><time>2026-04-19T15:03:48Z</time></trkpt><trkpt lat="40.04836813549599" lon="9.455059579884042"><ele>1048.0</ele><time>2026-04-19T15:03:49Z</time></trkpt><trkpt lat="40.048278505550364" lon="9.4549979120146"><ele>1048.0</ele><time>2026-04-19T15:03:50Z</time></trkpt><trkpt lat="40.048194218383955" lon="9.454921582179265"><ele>1048.0</ele><time>2026-04-19T15:03:51Z</time></trkpt><trkpt lat="40.04811360684127" lon="9.45482961959738"><ele>1048.0</ele><time>2026-04-19T15:03:52Z</time></trkpt><trkpt lat="40.04803338815969" lon="9.454754055019423"><ele>1048.8</ele><time>2026-04-19T15:03:53Z</time></trkpt><trkpt lat="40.04795045516334" lon="9.454698377850784"><ele>1049.6</ele><time>2026-04-19T15:03:54Z</time></trkpt><trkpt lat="40.04785932042768" lon="9.454669720917142"><ele>1050.4</ele><time>2026-04-19T15:03:55Z</time></trkpt><trkpt lat="40.047764251679645" lon="9.454673691320991"><ele>1051.2</ele><time>2026-04-19T15:03:56Z</time></trkpt><trkpt lat="40.047657786234666" lon="9.454689181809057"><ele>1052.0</ele><time>2026-04-19T15:03:57Z</time></trkpt><trkpt lat="40.04754881821568" lon="9.45470284602384"><ele>1051.5</ele><time>2026-04-19T15:03:58Z</time></trkpt><trkpt lat="40.04743297791013" lon="9.454720379056157"><ele>1051.0</ele><time>2026-04-19T15:03:59Z</time></trkpt><trkpt lat="40.0473134456724" lon="9.45473845571521"><ele>1050.5</ele><time>2026-04-19T15:04:00Z</time></trkpt><trkpt lat="40.0471967984987" lon="9.454783558764989"><ele>1050.0</ele><time>2026-04-19T15:04:01Z</time></trkpt><trkpt lat="40.047080231281676" lon="9.454842995826166"><ele>1050.0</ele><time>2026-04-19T15:04:02Z</time></trkpt><trkpt lat="40.046962037505054" lon="9.454924425584588"><ele>1050.0</ele><time>2026-04-19T15:04:03Z</time></trkpt><trkpt lat="40.04684606823656" lon="9.45501180876179"><ele>1050.0</ele><time>2026-04-19T15:04:04Z</time></trkpt><trkpt lat="40.04674359655707" lon="9.45511563476223"><ele>1050.0</ele><time>2026-04-19T15:04:05Z</time></trkpt><trkpt lat="40.04664160883335" lon="9.455228679827407"><ele>1050.5</ele><time>2026-04-19T15:04:06Z</time></trkpt><trkpt lat="40.046534873298825" lon="9.455343596169941"><ele>1051.0</ele><time>2026-04-19T15:04:07Z</time></trkpt><trkpt lat="40.04642467897201" lon="9.455454613744655"><ele>1051.5</ele><time>2026-04-19T15:04:08Z</time></trkpt><trkpt lat="40.0463141992875" lon="9.455567025171788"><ele>1052.0</ele><time>2026-04-19T15:04:09Z</time></trkpt><trkpt lat="40.04620801419387" lon="9.455675381999734"><ele>1052.0</ele><time>2026-04-19T15:04:10Z</time></trkpt><trkpt lat="40.04610427449784" lon="9.455781860351514"><ele>1052.0</ele><time>2026-04-19T15:04:11Z</time></trkpt><trkpt lat="40.046008044344184" lon="9.455891034087625"><ele>1052.0</ele><time>2026-04-19T15:04:12Z</time></trkpt><trkpt lat="40.0459093903179" lon="9.456006383519835"><ele>1052.0</ele><time>2026-04-19T15:04:13Z</time></trkpt><trkpt lat="40.04580352475219" lon="9.456121430323238"><ele>1053.0</ele><time>2026-04-19T15:04:14Z</time></trkpt><trkpt lat="40.04568301093076" lon="9.456235433412745"><ele>1054.0</ele><time>2026-04-19T15:04:15Z</time></trkpt><trkpt lat="40.04555372720919" lon="9.45633139692762"><ele>1055.0</ele><time>2026-04-19T15:04:16Z</time></trkpt><trkpt lat="40.04541301108546" lon="9.456433876252142"><ele>1055.0</ele><time>2026-04-19T15:04:17Z</time></trkpt><trkpt lat="40.0452777381118" lon="9.45652995012068"><ele>1055.0</ele><time>2026-04-19T15:04:18Z</time></trkpt><trkpt lat="40.04513424618001" lon="9.456625444654772"><ele>1055.0</ele><time>2026-04-19T15:04:19Z</time></trkpt><trkpt lat="40.044956203924706" lon="9.456717779999945"><ele>1055.0</ele><time>2026-04-19T15:04:20Z</time></trkpt><trkpt lat="40.045116008764204" lon="9.4568658191393"><ele>1055.0</ele><time>2026-04-19T15:04:21Z</time></trkpt><trkpt lat="40.04500511779172" lon="9.456953563673656"><ele>1055.0</ele><time>2026-04-19T15:04:22Z</time></trkpt><trkpt lat="40.044891461040635" lon="9.457032960376095"><ele>1056.5</ele><time>2026-04-19T15:04:23Z</time></trkpt><trkpt lat="40.044773363832036" lon="9.457091530513186"><ele>1058.0</ele><time>2026-04-19T15:04:23.999Z</time></trkpt><trkpt lat="40.04465260032861" lon="9.457118869580023"><ele>1059.5</ele><time>2026-04-19T15:04:24.999Z</time></trkpt><trkpt lat="40.04452515566569" lon="9.45711186630447"><ele>1061.0</ele><time>2026-04-19T15:04:25.999Z</time></trkpt><trkpt lat="40.04440480745902" lon="9.457102645990327"><ele>1061.0</ele><time>2026-04-19T15:04:26.999Z</time></trkpt><trkpt lat="40.04429469087544" lon="9.457105500702909"><ele>1061.0</ele><time>2026-04-19T15:04:27.999Z</time></trkpt><trkpt lat="40.04419755895709" lon="9.457125289361608"><ele>1061.0</ele><time>2026-04-19T15:04:28.999Z</time></trkpt><trkpt lat="40.044109599320635" lon="9.45715398589019"><ele>1061.0</ele><time>2026-04-19T15:04:29.999Z</time></trkpt><trkpt lat="40.04402360924809" lon="9.457175409268592"><ele>1061.0</ele><time>2026-04-19T15:04:30.999Z</time></trkpt><trkpt lat="40.04394803698979" lon="9.457200005284525"><ele>1062.0</ele><time>2026-04-19T15:04:31.999Z</time></trkpt><trkpt lat="40.043878114166816" lon="9.457229395781372"><ele>1063.0</ele><time>2026-04-19T15:04:32.999Z</time></trkpt><trkpt lat="40.04381179694403" lon="9.45723153536379"><ele>1064.0</ele><time>2026-04-19T15:04:33.999Z</time></trkpt><trkpt lat="40.04374316902783" lon="9.457161188919322"><ele>1065.0</ele><time>2026-04-19T15:04:35.999Z</time></trkpt><trkpt lat="40.04372801347284" lon="9.457034907764243"><ele>1066.0</ele><time>2026-04-19T15:04:37.999Z</time></trkpt><trkpt lat="40.04373255744948" lon="9.456944592178127"><ele>1067.0</ele><time>2026-04-19T15:04:38.999Z</time></trkpt><trkpt lat="40.043747570663974" lon="9.45683552649034"><ele>1068.0</ele><time>2026-04-19T15:04:39.999Z</time></trkpt><trkpt lat="40.04377308207586" lon="9.456726707518307"><ele>1069.0</ele><time>2026-04-19T15:04:40.999Z</time></trkpt><trkpt lat="40.043801050383394" lon="9.456606525383277"><ele>1070.0</ele><time>2026-04-19T15:04:41.999Z</time></trkpt><trkpt lat="40.04386525309484" lon="9.456464103224206"><ele>1071.0</ele><time>2026-04-19T15:04:42.999Z</time></trkpt><trkpt lat="40.04392732497055" lon="9.456356575518669"><ele>1072.0</ele><time>2026-04-19T15:04:43.999Z</time></trkpt><trkpt lat="40.043998602738576" lon="9.45626169338702"><ele>1071.0</ele><time>2026-04-19T15:04:44.999Z</time></trkpt><trkpt lat="40.044072750548516" lon="9.456160957892754"><ele>1070.0</ele><time>2026-04-19T15:04:45.999Z</time></trkpt><trkpt lat="40.044082221851205" lon="9.456016659260436"><ele>1069.0</ele><time>2026-04-19T15:04:46.999Z</time></trkpt><trkpt lat="40.04412029425126" lon="9.455897527141355"><ele>1068.0</ele><time>2026-04-19T15:04:47.999Z</time></trkpt><trkpt lat="40.044156756912656" lon="9.45582895368067"><ele>1067.0</ele><time>2026-04-19T15:04:48.999Z</time></trkpt><trkpt lat="40.04412310404608" lon="9.455690751744918"><ele>1068.8</ele><time>2026-04-19T15:04:50.999Z</time></trkpt><trkpt lat="40.04406165836622" lon="9.455606609832246"><ele>1070.6</ele><time>2026-04-19T15:04:51.999Z</time></trkpt><trkpt lat="40.04399364558172" lon="9.4555165162278"><ele>1072.3999999999999</ele><time>2026-04-19T15:04:52.999Z</time></trkpt><trkpt lat="40.04393517667496" lon="9.455444115457567"><ele>1074.2</ele><time>2026-04-19T15:04:53.999Z</time></trkpt><trkpt lat="40.04387176149816" lon="9.455352967626277"><ele>1076.0</ele><time>2026-04-19T15:04:54.999Z</time></trkpt><trkpt lat="40.04380436379622" lon="9.455257307382952"><ele>1076.0</ele><time>2026-04-19T15:04:55.999Z</time></trkpt><trkpt lat="40.04373260134113" lon="9.455150591909703"><ele>1076.0</ele><time>2026-04-19T15:04:56.999Z</time></trkpt><trkpt lat="40.04366242350676" lon="9.45504600507551"><ele>1076.0</ele><time>2026-04-19T15:04:57.999Z</time></trkpt><trkpt lat="40.04359367977488" lon="9.454957166092507"><ele>1076.0</ele><time>2026-04-19T15:04:58.999Z</time></trkpt><trkpt lat="40.0435257625278" lon="9.454855231380021"><ele>1076.0</ele><time>2026-04-19T15:04:59.999Z</time></trkpt><trkpt lat="40.043470565672514" lon="9.454744259030383"><ele>1076.0</ele><time>2026-04-19T15:05:00.999Z</time></trkpt><trkpt lat="40.04342446909856" lon="9.454647543753037"><ele>1076.0</ele><time>2026-04-19T15:05:01.999Z</time></trkpt><trkpt lat="40.04337464880516" lon="9.454579319667637"><ele>1076.0</ele><time>2026-04-19T15:05:02.999Z</time></trkpt><trkpt lat="40.04332377729007" lon="9.454524254214782"><ele>1076.0</ele><time>2026-04-19T15:05:03.999Z</time></trkpt><trkpt lat="40.043241589388856" lon="9.454466884373325"><ele>1076.0</ele><time>2026-04-19T15:05:05.999Z</time></trkpt><trkpt lat="40.04316807288595" lon="9.454460883422621"><ele>1076.0</ele><time>2026-04-19T15:05:23Z</time></trkpt><trkpt lat="40.04308087536941" lon="9.454688031222283"><ele>1074.1666666666667</ele><time>2026-04-19T15:05:27Z</time></trkpt><trkpt lat="40.04303783015069" lon="9.454788175558262"><ele>1072.3333333333335</ele><time>2026-04-19T15:05:28Z</time></trkpt><trkpt lat="40.04300047987882" lon="9.454885339369032"><ele>1070.5</ele><time>2026-04-19T15:05:29Z</time></trkpt><trkpt lat="40.042964675059906" lon="9.454979875239484"><ele>1068.6666666666667</ele><time>2026-04-19T15:05:30Z</time></trkpt><trkpt lat="40.04293706559968" lon="9.455078516822203"><ele>1066.8333333333333</ele><time>2026-04-19T15:05:31Z</time></trkpt><trkpt lat="40.042902264904846" lon="9.455159359228844"><ele>1065.0</ele><time>2026-04-19T15:05:32Z</time></trkpt><trkpt lat="40.042850863617765" lon="9.455265887534173"><ele>1065.0</ele><time>2026-04-19T15:05:33Z</time></trkpt><trkpt lat="40.04280330030458" lon="9.455375444711112"><ele>1065.0</ele><time>2026-04-19T15:05:34Z</time></trkpt><trkpt lat="40.042759486297946" lon="9.455475861262201"><ele>1065.0</ele><time>2026-04-19T15:05:35Z</time></trkpt><trkpt lat="40.04272100487774" lon="9.455577473364684"><ele>1065.0</ele><time>2026-04-19T15:05:36Z</time></trkpt><trkpt lat="40.04267588581608" lon="9.455695970966232"><ele>1065.0</ele><time>2026-04-19T15:05:37Z</time></trkpt><trkpt lat="40.04262879620006" lon="9.455820897576086"><ele>1065.4</ele><time>2026-04-19T15:05:38Z</time></trkpt><trkpt lat="40.04258198016145" lon="9.455945901476417"><ele>1065.8</ele><time>2026-04-19T15:05:39Z</time></trkpt><trkpt lat="40.0425279338076" lon="9.456074474733605"><ele>1066.2</ele><time>2026-04-19T15:05:40Z</time></trkpt><trkpt lat="40.042472402577324" lon="9.45620983131252"><ele>1066.6</ele><time>2026-04-19T15:05:41Z</time></trkpt><trkpt lat="40.04241976495036" lon="9.456338769144104"><ele>1067.0</ele><time>2026-04-19T15:05:42Z</time></trkpt><trkpt lat="40.04237347458157" lon="9.456467163327385"><ele>1067.0</ele><time>2026-04-19T15:05:43Z</time></trkpt><trkpt lat="40.04233077321898" lon="9.456602579631474"><ele>1067.0</ele><time>2026-04-19T15:05:44Z</time></trkpt><trkpt lat="40.0422783344661" lon="9.456745370769665"><ele>1067.0</ele><time>2026-04-19T15:05:45Z</time></trkpt><trkpt lat="40.042227729886" lon="9.456893020981154"><ele>1067.0</ele><time>2026-04-19T15:05:46Z</time></trkpt><trkpt lat="40.04217529162959" lon="9.457044964706991"><ele>1067.25</ele><time>2026-04-19T15:05:47Z</time></trkpt><trkpt lat="40.04211715545566" lon="9.4571979265673"><ele>1067.5</ele><time>2026-04-19T15:05:48Z</time></trkpt><trkpt lat="40.04205782046454" lon="9.457355187170931"><ele>1067.75</ele><time>2026-04-19T15:05:49Z</time></trkpt><trkpt lat="40.042003097407864" lon="9.45751743501694"><ele>1068.0</ele><time>2026-04-19T15:05:50Z</time></trkpt><trkpt lat="40.041954283958916" lon="9.457680916884705"><ele>1068.0</ele><time>2026-04-19T15:05:51Z</time></trkpt><trkpt lat="40.04190050556574" lon="9.457844427811875"><ele>1068.0</ele><time>2026-04-19T15:05:52Z</time></trkpt><trkpt lat="40.04183968356162" lon="9.458011630199818"><ele>1068.0</ele><time>2026-04-19T15:05:53Z</time></trkpt><trkpt lat="40.04177623264894" lon="9.458190079210663"><ele>1068.0</ele><time>2026-04-19T15:05:54Z</time></trkpt><trkpt lat="40.04171145594706" lon="9.458364275306627"><ele>1068.75</ele><time>2026-04-19T15:05:55Z</time></trkpt><trkpt lat="40.04165141565066" lon="9.458537758236567"><ele>1069.5</ele><time>2026-04-19T15:05:56Z</time></trkpt><trkpt lat="40.04159082769331" lon="9.458712721522609"><ele>1070.25</ele><time>2026-04-19T15:05:57Z</time></trkpt><trkpt lat="40.0415342108784" lon="9.458887204165741"><ele>1071.0</ele><time>2026-04-19T15:05:58Z</time></trkpt><trkpt lat="40.04147059212961" lon="9.459060329844245"><ele>1071.0</ele><time>2026-04-19T15:05:59Z</time></trkpt><trkpt lat="40.04140966476505" lon="9.459228874136826"><ele>1071.0</ele><time>2026-04-19T15:06:00Z</time></trkpt><trkpt lat="40.04134584939329" lon="9.459400468324574"><ele>1071.0</ele><time>2026-04-19T15:06:01Z</time></trkpt><trkpt lat="40.04128574760412" lon="9.459571737131961"><ele>1071.0</ele><time>2026-04-19T15:06:02Z</time></trkpt><trkpt lat="40.041227446589524" lon="9.459741813175675"><ele>1074.0</ele><time>2026-04-19T15:06:03Z</time></trkpt><trkpt lat="40.041170148611954" lon="9.459902269035261"><ele>1077.0</ele><time>2026-04-19T15:06:04Z</time></trkpt><trkpt lat="40.04110410431569" lon="9.460061583734875"><ele>1080.0</ele><time>2026-04-19T15:06:05Z</time></trkpt><trkpt lat="40.04102943920686" lon="9.460216384934824"><ele>1083.0</ele><time>2026-04-19T15:06:06Z</time></trkpt><trkpt lat="40.040935056672176" lon="9.46034158404188"><ele>1085.3333333333333</ele><time>2026-04-19T15:06:07Z</time></trkpt><trkpt lat="40.04081981204307" lon="9.460459914496834"><ele>1087.6666666666665</ele><time>2026-04-19T15:06:08Z</time></trkpt><trkpt lat="40.04069164019215" lon="9.460565539257805"><ele>1090.0</ele><time>2026-04-19T15:06:09Z</time></trkpt><trkpt lat="40.04055008568047" lon="9.46065727055191"><ele>1090.0</ele><time>2026-04-19T15:06:10Z</time></trkpt><trkpt lat="40.04040858203322" lon="9.46075152099101"><ele>1090.0</ele><time>2026-04-19T15:06:11Z</time></trkpt><trkpt lat="40.04025487134349" lon="9.460848547853436"><ele>1090.0</ele><time>2026-04-19T15:06:12Z</time></trkpt><trkpt lat="40.04009820809002" lon="9.46094695648314"><ele>1088.6666666666665</ele><time>2026-04-19T15:06:13Z</time></trkpt><trkpt lat="40.039945661926645" lon="9.461051641156228"><ele>1087.3333333333333</ele><time>2026-04-19T15:06:14Z</time></trkpt><trkpt lat="40.039804288159374" lon="9.461150394370923"><ele>1086.0</ele><time>2026-04-19T15:06:15Z</time></trkpt><trkpt lat="40.03966512487164" lon="9.461250565356895"><ele>1088.0</ele><time>2026-04-19T15:06:16Z</time></trkpt><trkpt lat="40.03951971884015" lon="9.461350388691864"><ele>1090.0</ele><time>2026-04-19T15:06:17Z</time></trkpt><trkpt lat="40.039376016659396" lon="9.461448715474605"><ele>1092.0</ele><time>2026-04-19T15:06:18Z</time></trkpt><trkpt lat="40.039231077194295" lon="9.461544473809038"><ele>1091.3333333333333</ele><time>2026-04-19T15:06:19Z</time></trkpt><trkpt lat="40.039085124466176" lon="9.461633628455964"><ele>1090.6666666666665</ele><time>2026-04-19T15:06:20Z</time></trkpt><trkpt lat="40.03893698048674" lon="9.461710237854389"><ele>1090.0</ele><time>2026-04-19T15:06:21Z</time></trkpt><trkpt lat="40.038787408196015" lon="9.461765954406875"><ele>1090.0</ele><time>2026-04-19T15:06:22Z</time></trkpt><trkpt lat="40.03863826298824" lon="9.461831635703334"><ele>1090.0</ele><time>2026-04-19T15:06:23Z</time></trkpt><trkpt lat="40.038498867371" lon="9.461913766335435"><ele>1090.0</ele><time>2026-04-19T15:06:24Z</time></trkpt><trkpt lat="40.03837151482793" lon="9.462027891438337"><ele>1089.0</ele><time>2026-04-19T15:06:25Z</time></trkpt><trkpt lat="40.03825555124688" lon="9.462172789359096"><ele>1088.0</ele><time>2026-04-19T15:06:26Z</time></trkpt><trkpt lat="40.03814804858266" lon="9.462330805621077"><ele>1087.0</ele><time>2026-04-19T15:06:27Z</time></trkpt><trkpt lat="40.038043141074056" lon="9.462490914296977"><ele>1087.0</ele><time>2026-04-19T15:06:27.999Z</time></trkpt><trkpt lat="40.03792995271594" lon="9.462644586406489"><ele>1087.0</ele><time>2026-04-19T15:06:28.999Z</time></trkpt><trkpt lat="40.0378133738293" lon="9.462798203751383"><ele>1087.0</ele><time>2026-04-19T15:06:29.999Z</time></trkpt><trkpt lat="40.037698108757965" lon="9.46295258888466"><ele>1089.3333333333333</ele><time>2026-04-19T15:06:30.999Z</time></trkpt><trkpt lat="40.0375814394587" lon="9.463105719491022"><ele>1091.6666666666667</ele><time>2026-04-19T15:06:31.999Z</time></trkpt><trkpt lat="40.037466019379515" lon="9.463260093596343"><ele>1094.0</ele><time>2026-04-19T15:06:32.999Z</time></trkpt><trkpt lat="40.037348264177275" lon="9.463413655626177"><ele>1094.0</ele><time>2026-04-19T15:06:33.999Z</time></trkpt><trkpt lat="40.037231817142775" lon="9.463567231373988"><ele>1094.0</ele><time>2026-04-19T15:06:34.999Z</time></trkpt><trkpt lat="40.03711697930339" lon="9.46372048102845"><ele>1094.0</ele><time>2026-04-19T15:06:35.999Z</time></trkpt><trkpt lat="40.036998707632016" lon="9.463875707303448"><ele>1095.3333333333335</ele><time>2026-04-19T15:06:36.999Z</time></trkpt><trkpt lat="40.03688092189638" lon="9.464027387760835"><ele>1096.6666666666667</ele><time>2026-04-19T15:06:37.999Z</time></trkpt><trkpt lat="40.0367641658986" lon="9.464182193898395"><ele>1098.0</ele><time>2026-04-19T15:06:38.999Z</time></trkpt><trkpt lat="40.0366539117477" lon="9.464340364946459"><ele>1097.6666666666667</ele><time>2026-04-19T15:06:39.999Z</time></trkpt><trkpt lat="40.03655236685746" lon="9.464502929441466"><ele>1097.3333333333335</ele><time>2026-04-19T15:06:40.999Z</time></trkpt><trkpt lat="40.036461326607764" lon="9.464673594054089"><ele>1097.0</ele><time>2026-04-19T15:06:41.999Z</time></trkpt><trkpt lat="40.03637956979551" lon="9.464854960245573"><ele>1097.0</ele><time>2026-04-19T15:06:42.999Z</time></trkpt><trkpt lat="40.036309637695965" lon="9.465052586798947"><ele>1097.0</ele><time>2026-04-19T15:06:43.999Z</time></trkpt><trkpt lat="40.03624732983496" lon="9.465252997755034"><ele>1097.0</ele><time>2026-04-19T15:06:44.999Z</time></trkpt><trkpt lat="40.03619031526722" lon="9.465460168444725"><ele>1097.6666666666667</ele><time>2026-04-19T15:06:45.999Z</time></trkpt><trkpt lat="40.036134236854416" lon="9.465669938833196"><ele>1098.3333333333333</ele><time>2026-04-19T15:06:46.999Z</time></trkpt><trkpt lat="40.036075423561655" lon="9.465885311217054"><ele>1099.0</ele><time>2026-04-19T15:06:47.999Z</time></trkpt><trkpt lat="40.03601539704915" lon="9.466094973172774"><ele>1099.3333333333333</ele><time>2026-04-19T15:06:48.999Z</time></trkpt><trkpt lat="40.03595167882256" lon="9.46630499526168"><ele>1099.6666666666667</ele><time>2026-04-19T15:06:49.999Z</time></trkpt><trkpt lat="40.035888055968265" lon="9.466510536163627"><ele>1100.0</ele><time>2026-04-19T15:06:50.999Z</time></trkpt><trkpt lat="40.035828581853025" lon="9.466715532936485"><ele>1098.0</ele><time>2026-04-19T15:06:51.999Z</time></trkpt><trkpt lat="40.03577508236217" lon="9.46690841654278"><ele>1096.0</ele><time>2026-04-19T15:06:52.999Z</time></trkpt><trkpt lat="40.035724038388096" lon="9.467097131901756"><ele>1094.0</ele><time>2026-04-19T15:06:53.999Z</time></trkpt><trkpt lat="40.035671599377864" lon="9.467299755885598"><ele>1094.0</ele><time>2026-04-19T15:06:54.999Z</time></trkpt><trkpt lat="40.0356100705336" lon="9.467495413504523"><ele>1094.0</ele><time>2026-04-19T15:06:55.999Z</time></trkpt><trkpt lat="40.03555336236416" lon="9.467698945707895"><ele>1094.0</ele><time>2026-04-19T15:06:56.999Z</time></trkpt><trkpt lat="40.035497146489014" lon="9.467911604886895"><ele>1092.3333333333335</ele><time>2026-04-19T15:06:57.999Z</time></trkpt><trkpt lat="40.03543650225535" lon="9.468120729086701"><ele>1090.6666666666667</ele><time>2026-04-19T15:06:58.999Z</time></trkpt><trkpt lat="40.03537269530674" lon="9.468329192549248"><ele>1089.0</ele><time>2026-04-19T15:06:59.999Z</time></trkpt><trkpt lat="40.03531450212808" lon="9.468541484835681"><ele>1089.0</ele><time>2026-04-19T15:07:00.999Z</time></trkpt><trkpt lat="40.0352685978211" lon="9.46876023603671"><ele>1089.0</ele><time>2026-04-19T15:07:01.999Z</time></trkpt><trkpt lat="40.0352372007845" lon="9.468987143325426"><ele>1089.0</ele><time>2026-04-19T15:07:02.999Z</time></trkpt><trkpt lat="40.03521427679237" lon="9.469213340179468"><ele>1088.6666666666667</ele><time>2026-04-19T15:07:03.999Z</time></trkpt><trkpt lat="40.03519292557033" lon="9.469436756370357"><ele>1088.3333333333335</ele><time>2026-04-19T15:07:04.999Z</time></trkpt><trkpt lat="40.03519482370778" lon="9.4696460016077"><ele>1088.0</ele><time>2026-04-19T15:07:05.999Z</time></trkpt><trkpt lat="40.035221043679975" lon="9.469853689981877"><ele>1087.3333333333335</ele><time>2026-04-19T15:07:06.999Z</time></trkpt><trkpt lat="40.03526227408742" lon="9.470057095713223"><ele>1086.6666666666667</ele><time>2026-04-19T15:07:07.999Z</time></trkpt><trkpt lat="40.03530258135798" lon="9.470260055339484"><ele>1086.0</ele><time>2026-04-19T15:07:08.999Z</time></trkpt><trkpt lat="40.03534803137626" lon="9.470469380554082"><ele>1085.3333333333333</ele><time>2026-04-19T15:07:09.999Z</time></trkpt><trkpt lat="40.03539288554068" lon="9.47067949017253"><ele>1084.6666666666665</ele><time>2026-04-19T15:07:10.999Z</time></trkpt><trkpt lat="40.03543564643792" lon="9.470888626369057"><ele>1084.0</ele><time>2026-04-19T15:07:11.999Z</time></trkpt><trkpt lat="40.03547855891153" lon="9.471094458366773"><ele>1084.25</ele><time>2026-04-19T15:07:12.999Z</time></trkpt><trkpt lat="40.035516874658526" lon="9.471295565703592"><ele>1084.5</ele><time>2026-04-19T15:07:13.999Z</time></trkpt><trkpt lat="40.035554975344354" lon="9.471484876083816"><ele>1084.75</ele><time>2026-04-19T15:07:14.999Z</time></trkpt><trkpt lat="40.0355915321879" lon="9.471662378996047"><ele>1085.0</ele><time>2026-04-19T15:07:15.999Z</time></trkpt><trkpt lat="40.03562497440137" lon="9.471821037864776"><ele>1085.0</ele><time>2026-04-19T15:07:16.999Z</time></trkpt><trkpt lat="40.035660300764285" lon="9.471971834491892"><ele>1085.0</ele><time>2026-04-19T15:07:17.999Z</time></trkpt><trkpt lat="40.03568540018097" lon="9.47212047349392"><ele>1085.0</ele><time>2026-04-19T15:07:18.999Z</time></trkpt><trkpt lat="40.03571274972339" lon="9.472274928519616"><ele>1085.0</ele><time>2026-04-19T15:07:19.999Z</time></trkpt><trkpt lat="40.035744497053486" lon="9.472425351750537"><ele>1085.5</ele><time>2026-04-19T15:07:20.999Z</time></trkpt><trkpt lat="40.03578105876322" lon="9.472568081037576"><ele>1086.0</ele><time>2026-04-19T15:07:21.999Z</time></trkpt><trkpt lat="40.035822268388905" lon="9.4727118742768"><ele>1086.5</ele><time>2026-04-19T15:07:22.999Z</time></trkpt><trkpt lat="40.035865292805724" lon="9.472854117067119"><ele>1087.0</ele><time>2026-04-19T15:07:23.999Z</time></trkpt><trkpt lat="40.03590203981018" lon="9.4729967408127"><ele>1087.5</ele><time>2026-04-19T15:07:24.999Z</time></trkpt><trkpt lat="40.03593934103928" lon="9.473141468621831"><ele>1088.0</ele><time>2026-04-19T15:07:25.999Z</time></trkpt><trkpt lat="40.03598095388434" lon="9.473280803687187"><ele>1088.5</ele><time>2026-04-19T15:07:26.999Z</time></trkpt><trkpt lat="40.03602369893128" lon="9.473418365331355"><ele>1089.0</ele><time>2026-04-19T15:07:28Z</time></trkpt><trkpt lat="40.03606105296877" lon="9.47356024119243"><ele>1089.0</ele><time>2026-04-19T15:07:29Z</time></trkpt><trkpt lat="40.03610189023975" lon="9.473705425385809"><ele>1089.0</ele><time>2026-04-19T15:07:30Z</time></trkpt><trkpt lat="40.03614094245921" lon="9.473847245094905"><ele>1089.0</ele><time>2026-04-19T15:07:31Z</time></trkpt><trkpt lat="40.03618010813807" lon="9.473980118397883"><ele>1089.0</ele><time>2026-04-19T15:07:32Z</time></trkpt><trkpt lat="40.03620621300517" lon="9.474115298442078"><ele>1089.4</ele><time>2026-04-19T15:07:33Z</time></trkpt><trkpt lat="40.03622815565096" lon="9.474250565643326"><ele>1089.8000000000002</ele><time>2026-04-19T15:07:34Z</time></trkpt><trkpt lat="40.03627047564475" lon="9.474376658378617"><ele>1090.1999999999998</ele><time>2026-04-19T15:07:35Z</time></trkpt><trkpt lat="40.03631254751878" lon="9.474511061594644"><ele>1090.6</ele><time>2026-04-19T15:07:36Z</time></trkpt><trkpt lat="40.03635643522169" lon="9.474640988826165"><ele>1091.0</ele><time>2026-04-19T15:07:37Z</time></trkpt><trkpt lat="40.036402804158534" lon="9.474768748416597"><ele>1091.3999999999999</ele><time>2026-04-19T15:07:38Z</time></trkpt><trkpt lat="40.03644422068274" lon="9.474900784687767"><ele>1091.8</ele><time>2026-04-19T15:07:39Z</time></trkpt><trkpt lat="40.0364807323733" lon="9.475032543892338"><ele>1092.1999999999998</ele><time>2026-04-19T15:07:40Z</time></trkpt><trkpt lat="40.03650728972219" lon="9.475164317472952"><ele>1092.6</ele><time>2026-04-19T15:07:41Z</time></trkpt><trkpt lat="40.0365343894346" lon="9.475294134379755"><ele>1093.0</ele><time>2026-04-19T15:07:42Z</time></trkpt><trkpt lat="40.03654950396428" lon="9.475440348151707"><ele>1093.25</ele><time>2026-04-19T15:07:43Z</time></trkpt><trkpt lat="40.03653553318301" lon="9.475602021637858"><ele>1093.5</ele><time>2026-04-19T15:07:44Z</time></trkpt><trkpt lat="40.03650108559288" lon="9.47576525548512"><ele>1093.75</ele><time>2026-04-19T15:07:45Z</time></trkpt><trkpt lat="40.03646223140119" lon="9.475919514219742"><ele>1094.0</ele><time>2026-04-19T15:07:46Z</time></trkpt><trkpt lat="40.036418568874645" lon="9.476074238561532"><ele>1094.0</ele><time>2026-04-19T15:07:47Z</time></trkpt><trkpt lat="40.036371920097345" lon="9.476226915973523"><ele>1094.0</ele><time>2026-04-19T15:07:48Z</time></trkpt><trkpt lat="40.0363303000731" lon="9.476392707319508"><ele>1094.0</ele><time>2026-04-19T15:07:49Z</time></trkpt><trkpt lat="40.03628801000111" lon="9.476560472651789"><ele>1094.0</ele><time>2026-04-19T15:07:50Z</time></trkpt><trkpt lat="40.03625086854577" lon="9.476719600735743"><ele>1093.4</ele><time>2026-04-19T15:07:51Z</time></trkpt><trkpt lat="40.036214618393174" lon="9.476854700915107"><ele>1092.8000000000002</ele><time>2026-04-19T15:07:52Z</time></trkpt><trkpt lat="40.03617573626978" lon="9.476989756354627"><ele>1092.1999999999998</ele><time>2026-04-19T15:07:53Z</time></trkpt><trkpt lat="40.036123916169444" lon="9.477118527066594"><ele>1091.6</ele><time>2026-04-19T15:07:54Z</time></trkpt><trkpt lat="40.03605862572215" lon="9.477239594792083"><ele>1091.0</ele><time>2026-04-19T15:07:55Z</time></trkpt><trkpt lat="40.0359863285906" lon="9.477351333073171"><ele>1091.1666666666667</ele><time>2026-04-19T15:07:56Z</time></trkpt><trkpt lat="40.03592275150657" lon="9.477456971807127"><ele>1091.3333333333335</ele><time>2026-04-19T15:07:57Z</time></trkpt><trkpt lat="40.03586879715679" lon="9.477550316653156"><ele>1091.5</ele><time>2026-04-19T15:07:58Z</time></trkpt><trkpt lat="40.03581789425323" lon="9.477636494769852"><ele>1091.6666666666667</ele><time>2026-04-19T15:07:59Z</time></trkpt><trkpt lat="40.03577905327697" lon="9.477719144059543"><ele>1091.8333333333333</ele><time>2026-04-19T15:08:00Z</time></trkpt><trkpt lat="40.03574930178636" lon="9.477800086567308"><ele>1092.0</ele><time>2026-04-19T15:08:01Z</time></trkpt><trkpt lat="40.0357134428995" lon="9.477935114111764"><ele>1090.3333333333333</ele><time>2026-04-19T15:08:03Z</time></trkpt><trkpt lat="40.035685317790154" lon="9.478018716150688"><ele>1088.6666666666667</ele><time>2026-04-19T15:08:06Z</time></trkpt><trkpt lat="40.03566933038106" lon="9.478098796051468"><ele>1087.0</ele><time>2026-04-19T15:08:31.999Z</time></trkpt><trkpt lat="40.035621270122405" lon="9.478197532692812"><ele>1085.3333333333335</ele><time>2026-04-19T15:08:35.999Z</time></trkpt><trkpt lat="40.035559721641405" lon="9.478245329676396"><ele>1083.6666666666667</ele><time>2026-04-19T15:08:38.999Z</time></trkpt><trkpt lat="40.035497990561225" lon="9.478311260031257"><ele>1082.0</ele><time>2026-04-19T15:08:41.999Z</time></trkpt><trkpt lat="40.03542706732349" lon="9.478372090770748"><ele>1082.0</ele><time>2026-04-19T15:08:45.999Z</time></trkpt></trkseg></trk></gpx>